GFSGBSN_700_spd_000.txt.gz
Wind_Speed
11 10 8 7 7 5 4 4 6 8 9 10 11 12 14 15 17 19 21 21 20 18 15 15 18 21 22 20 14 19 16 14 13 9 7 8 5 4 2 7 15 12 8 5 4 3 3
7 7 5 4 2 1 3 5 6 8 10 13 14 15 16 18 19 21 21 21 19 17 15 13 14 18 20 9 14 15 15 13 10 9 7 8 10 11 10 11 8 6 4 2 1 3 1
3 3 2 3 3 5 8 9 11 12 13 15 16 18 20 20 22 23 22 21 19 16 13 14 16 16 16 14 15 13 12 12 10 11 8 11 13 9 8 7 5 4 2 3 1 0 4
1 2 3 6 6 7 9 13 14 16 18 19 19 19 20 22 22 20 21 19 16 13 14 14 15 14 13 10 10 10 13 13 11 11 10 11 8 5 3 3 2 2 0 2 3 3 4
4 5 5 8 8 9 11 13 16 18 19 19 20 20 21 21 20 20 20 17 14 14 14 14 13 12 10 10 10 11 11 11 12 13 14 9 6 2 5 2 3 2 2 5 2 2 5
7 6 7 9 9 10 12 13 15 17 18 18 19 20 20 20 20 19 17 18 17 14 15 15 11 8 9 9 9 9 9 11 12 10 6 4 2 1 4 7 1 5 8 9 8 13 13
9 8 8 10 10 10 11 12 14 15 16 17 18 18 19 19 20 20 21 19 18 15 12 7 9 7 8 6 4 4 5 9 11 8 6 4 2 4 7 9 6 7 10 12 11 10 17
9 8 9 9 9 9 10 11 12 14 15 16 16 16 17 18 18 17 17 17 15 13 11 10 10 9 8 6 5 4 4 8 8 7 5 3 2 4 6 7 7 8 10 11 7 11 14
9 9 9 9 9 8 8 9 11 12 14 15 16 16 15 13 13 13 15 14 12 10 13 13 12 10 8 6 7 6 3 3 3 2 1 2 4 7 5 6 7 7 6 11 13 12 6
9 8 8 10 9 8 7 8 9 11 12 13 13 13 13 13 13 14 13 11 13 13 7 6 5 9 6 3 6 9 7 3 2 3 6 5 3 4 7 9 11 10 12 14 12 9 1
10 9 8 9 9 8 7 8 9 10 11 11 13 13 13 14 14 11 13 10 12 10 5 5 10 6 8 4 4 7 7 5 4 2 2 2 2 5 7 9 11 9 12 14 10 4 2
11 9 8 8 9 8 8 8 9 9 10 11 11 12 14 13 13 12 13 11 11 4 4 5 6 8 5 8 8 9 8 3 3 2 1 1 3 3 5 10 10 12 12 4 3 2 2
13 10 9 8 8 8 7 8 9 10 10 11 13 14 13 14 14 15 13 12 5 4 9 7 6 7 6 7 6 9 11 4 4 1 3 1 2 3 6 8 5 10 6 2 3 3 4
14 11 10 9 8 8 8 8 10 10 11 12 13 14 13 14 17 13 14 8 3 10 7 9 8 6 5 4 7 8 7 11 13 9 5 5 1 4 6 8 6 10 10 5 2 1 6
15 12 10 10 9 9 8 9 9 11 11 12 12 12 12 14 14 13 12 4 5 12 10 9 10 6 4 2 2 5 8 10 12 14 6 7 2 5 8 3 4 4 5 6 1 2 3
16 13 11 10 9 9 9 9 9 10 11 12 11 11 12 14 13 13 11 6 10 10 10 9 7 4 5 2 1 3 5 6 7 12 10 8 1 5 3 2 3 2 2 3 4 2 4
17 14 12 11 10 9 9 9 10 10 11 12 12 12 13 13 12 11 9 7 11 10 8 8 7 5 6 3 2 1 1 3 6 8 9 8 3 5 3 3 2 2 1 1 3 2 3
20 16 13 12 11 10 9 8 9 11 12 13 13 12 13 13 12 10 8 11 10 9 8 6 6 4 4 3 2 2 2 2 5 7 10 11 3 6 7 4 2 4 4 8 2 2 8
21 19 16 13 12 12 10 8 9 10 11 11 11 12 14 12 10 11 11 11 11 9 8 7 6 5 4 4 2 3 2 4 7 10 10 12 5 6 5 4 4 8 13 20 16 16 12
23 20 18 17 14 13 12 11 10 11 11 11 11 12 13 12 9 9 13 12 11 10 8 7 6 5 3 2 1 2 4 5 10 11 13 14 5 5 7 14 20 26 24 25 25 18 19
27 23 20 19 17 16 14 13 12 11 11 10 11 11 13 13 13 12 12 12 10 10 6 5 4 2 1 1 3 5 6 8 11 14 13 9 10 15 18 18 20 25 26 25 24 27 24
29 26 24 22 21 19 17 16 13 13 12 11 10 10 12 13 13 14 11 11 9 7 5 4 2 2 4 5 6 10 13 13 10 10 12 17 14 20 25 17 17 30 31 17 9 20 28
31 28 26 24 22 20 18 17 15 13 11 11 11 10 12 13 14 13 12 10 9 7 6 5 4 4 6 6 11 14 14 10 14 17 16 18 15 13 16 20 20 21 3 13 25 22 24
32 29 27 26 23 21 19 18 17 15 13 12 11 11 12 14 14 13 12 10 10 8 7 6 6 7 8 12 15 15 13 12 10 12 11 14 15 14 13 18 1 17 19 29 24 19 27
32 31 29 26 24 22 20 19 18 17 15 14 13 12 12 13 13 14 13 13 12 11 10 9 9 10 13 15 16 11 11 5 9 13 12 9 14 13 10 10 20 32 20 19 28 32 28
32 31 30 28 27 24 22 21 19 19 18 17 16 15 14 12 13 13 14 14 14 12 12 12 12 14 15 15 13 6 4 13 5 10 14 19 15 17 17 8 5 21 25 22 22 31 16
34 33 31 29 27 25 24 22 21 21 20 20 19 18 16 14 14 13 16 16 15 15 15 15 15 16 16 16 14 11 9 14 8 11 16 17 17 23 26 20 22 27 15 16 17 21 34
34 34 31 29 28 26 25 24 23 22 21 21 21 20 18 18 16 15 17 17 17 17 17 16 16 19 17 16 11 10 10 12 16 19 20 21 17 25 16 9 11 5 20 31 38 45 46
36 34 31 30 30 28 27 26 24 24 24 23 22 22 21 20 16 18 19 18 18 18 18 19 21 20 14 13 10 11 16 23 25 29 30 23 27 23 21 23 40 44 45 31 38 41 41

GFSGBSN_700_spd_003.txt.gz
Wind_Speed
10 10 11 11 10 8 7 8 5 6 5 7 9 11 12 12 14 17 19 21 21 20 20 20 21 21 20 17 10 17 14 11 8 9 10 9 8 6 3 14 17 13 11 9 7 5 4
6 7 7 6 6 3 3 3 4 4 7 9 10 11 13 16 18 20 23 22 21 18 17 18 20 20 18 14 11 16 14 11 9 7 6 6 8 6 12 15 10 10 8 4 3 3 4
3 3 3 2 1 3 3 4 6 8 10 12 13 15 17 20 22 24 23 22 19 15 14 15 17 17 18 9 10 11 12 10 9 5 6 9 11 8 10 8 7 7 5 3 3 4 7
2 0 1 2 5 7 7 9 11 14 15 17 18 20 21 23 23 21 22 19 15 13 13 12 13 14 14 5 7 9 8 9 6 7 7 9 7 4 3 3 4 3 2 2 0 2 4
4 3 3 5 8 10 12 12 15 17 18 19 20 21 23 21 20 21 20 16 13 13 12 13 12 10 7 6 6 5 6 8 6 7 7 6 4 1 3 2 3 1 1 1 3 4 5
5 6 5 7 8 11 13 15 16 18 18 19 20 21 20 19 20 20 18 15 15 14 16 14 11 8 9 7 5 4 6 8 8 8 6 3 2 2 1 2 2 1 2 4 5 7 7
7 7 7 8 9 11 12 14 15 17 17 18 18 18 18 18 20 20 19 20 17 15 9 11 11 10 10 7 5 6 5 8 9 7 4 3 3 1 2 5 3 3 4 5 6 3 8
8 8 8 9 9 10 11 12 12 14 14 15 16 16 17 17 17 18 19 18 15 15 17 14 14 12 10 8 6 4 4 6 7 5 4 5 1 2 3 5 6 5 5 4 2 6 6
9 9 9 9 9 10 10 11 11 12 13 14 15 15 15 15 15 16 16 16 14 14 18 18 14 11 10 9 8 8 5 4 6 4 3 4 5 4 5 5 5 5 3 7 8 6 1
9 9 9 9 9 10 10 11 11 11 13 14 14 14 14 15 15 16 18 14 14 13 8 7 7 10 4 6 8 10 7 4 6 5 7 4 3 2 6 8 7 5 7 10 9 4 3
11 10 10 8 9 10 10 11 10 11 12 13 13 13 13 15 15 16 15 13 16 8 4 6 10 5 8 3 6 9 6 7 6 5 1 2 1 5 7 7 9 6 13 11 6 4 5
13 11 10 9 9 10 11 11 11 11 12 13 13 14 15 16 15 14 14 14 13 4 4 6 6 5 5 9 9 10 6 5 5 3 2 1 1 3 6 9 9 10 10 2 4 4 3
14 13 11 10 9 9 11 12 11 11 12 13 14 14 15 16 14 14 14 13 6 3 12 10 10 6 6 9 10 10 10 3 3 1 2 1 1 2 6 7 5 9 4 1 1 1 2
15 13 12 10 10 9 11 12 12 12 12 13 14 15 14 14 16 18 16 11 3 13 9 12 12 7 4 6 9 10 9 12 13 7 6 5 1 3 5 8 6 11 10 4 1 2 5
16 14 13 11 11 10 11 12 13 13 13 13 14 14 14 18 17 18 15 3 5 14 16 14 12 7 5 4 4 5 9 10 13 12 5 5 2 3 6 3 5 5 6 6 3 4 3
18 16 14 12 11 11 10 12 13 14 14 14 13 13 14 18 16 16 12 6 14 13 14 14 8 6 4 3 2 3 4 7 8 9 8 6 1 2 2 1 3 3 3 4 5 2 3
20 17 16 14 13 11 11 12 13 14 14 13 13 13 15 17 15 14 11 7 16 14 13 11 8 5 6 3 1 3 3 3 5 7 8 7 3 3 2 2 3 2 1 2 2 1 1
22 19 17 15 14 12 11 12 13 14 14 14 13 11 14 14 14 13 10 12 14 14 11 8 8 6 6 5 3 3 2 1 4 7 7 10 2 3 3 1 2 2 4 4 3 2 5
24 20 18 17 15 14 12 12 13 14 14 13 12 11 14 14 13 14 12 13 13 12 11 9 8 7 6 5 3 2 1 2 4 8 8 10 4 3 1 3 4 5 9 15 9 8 11
26 23 20 18 17 15 14 12 13 13 13 13 11 13 15 14 10 10 13 13 14 12 9 8 7 7 6 4 3 2 1 4 9 10 11 10 4 5 7 9 15 20 19 18 15 12 16
27 24 23 20 17 17 15 14 13 14 13 13 12 11 15 15 12 12 13 13 13 12 9 10 8 5 5 4 2 2 3 6 9 10 8 8 9 14 14 15 17 21 21 20 22 23 17
30 26 23 21 21 19 18 16 14 13 12 12 12 9 14 14 14 14 13 13 12 11 10 9 7 6 4 2 1 3 6 7 5 7 11 17 11 16 20 12 14 26 27 10 2 10 18
32 29 26 23 22 22 20 18 15 13 13 13 12 9 11 13 14 14 14 13 12 10 8 7 6 5 2 1 5 8 7 5 7 11 14 15 10 11 10 12 19 20 4 11 20 24 20
34 31 29 26 24 23 21 19 17 15 13 13 14 12 12 13 13 13 12 10 9 8 7 7 5 3 3 6 9 10 4 4 3 9 10 14 14 11 10 15 2 14 23 28 24 13 18
35 32 30 28 26 24 22 21 19 17 15 14 14 15 14 12 13 12 12 11 10 10 8 7 5 5 6 8 10 7 5 2 9 6 13 11 11 11 5 7 18 27 10 14 17 27 22
34 34 32 29 27 25 23 22 20 19 17 16 15 14 15 13 12 12 11 11 11 11 10 9 8 8 9 11 10 3 3 8 4 10 11 14 15 17 12 6 5 16 22 25 24 25 14
32 32 32 30 28 26 24 23 21 20 18 18 17 16 15 14 12 10 12 11 11 13 11 9 9 11 11 11 11 8 8 10 6 7 9 16 19 20 18 12 18 23 13 12 11 16 28
32 31 30 29 28 27 26 24 22 21 20 19 19 18 16 15 14 13 13 14 14 14 14 12 10 12 12 11 8 8 8 10 11 12 18 25 17 21 12 9 8 6 21 28 37 46 34
34 32 30 29 29 27 26 24 23 22 21 20 19 19 18 17 14 16 18 16 18 19 17 16 15 14 9 9 7 8 13 17 19 21 21 19 17 19 16 23 28 36 39 38 40 38 34

GFSGBSN_700_spd_006.txt.gz
Wind_Speed
14 13 14 13 12 12 11 9 7 6 6 8 8 9 10 12 15 17 18 21 20 19 20 20 20 21 18 14 11 17 14 12 12 13 10 10 9 8 8 13 13 13 12 11 8 7 6
10 11 10 9 8 8 7 6 3 3 5 7 8 10 13 15 18 20 23 22 20 21 19 19 20 18 16 9 8 15 14 11 11 8 9 9 10 7 12 19 11 14 12 8 6 5 5
7 9 6 5 4 4 2 2 1 4 7 9 13 15 17 19 22 24 24 22 20 17 16 17 17 16 15 11 8 16 12 10 8 7 6 8 11 13 17 12 11 10 6 4 4 8 9
6 5 3 1 0 1 2 4 6 9 12 14 16 19 21 23 24 24 23 20 16 14 15 15 15 14 12 10 7 9 10 9 7 10 9 11 10 9 9 9 9 7 6 5 3 4 4
5 5 3 4 4 5 7 9 12 15 16 18 21 22 24 24 24 23 21 17 15 15 16 15 13 11 9 6 6 7 8 9 9 9 10 8 7 3 5 5 5 5 3 2 3 5 5
6 6 6 7 7 8 11 13 15 18 19 20 22 24 24 23 24 23 20 18 17 17 15 14 12 7 7 6 6 8 10 10 11 10 8 4 2 2 1 1 3 3 3 3 2 6 6
8 8 8 9 10 12 13 15 16 18 19 21 22 23 22 23 24 21 21 20 18 17 13 9 10 9 9 8 8 8 8 11 9 8 6 5 3 4 1 2 3 3 2 2 2 4 1
10 9 10 10 11 12 14 15 16 18 18 19 20 20 21 22 22 19 20 19 15 18 17 15 13 11 10 8 9 8 9 10 10 8 7 3 2 2 2 1 2 3 1 1 2 3 1
11 10 11 11 11 12 13 15 16 18 19 19 19 19 20 20 20 19 20 16 16 17 15 14 12 14 12 9 6 9 9 9 10 7 7 6 7 4 3 4 4 4 1 3 3 5 3
12 11 11 11 11 12 13 14 15 17 18 18 18 18 18 19 20 21 21 19 18 15 8 8 6 6 8 9 8 8 7 7 9 9 10 6 5 2 4 4 4 2 5 9 7 3 6
14 12 11 10 10 12 13 14 15 15 16 16 17 17 18 19 19 20 20 19 18 7 3 8 8 6 7 5 7 7 7 8 7 7 5 4 2 3 4 5 7 3 10 9 5 6 4
15 13 12 11 10 11 13 14 14 15 16 17 17 19 19 19 20 20 19 18 15 2 3 5 7 7 5 9 9 9 7 6 6 6 5 2 0 2 5 8 5 8 8 2 3 4 5
16 14 12 11 10 11 12 13 14 15 17 18 17 18 20 21 20 20 16 15 6 3 12 8 10 9 7 11 11 10 8 4 4 3 3 3 1 3 4 5 5 8 2 3 2 4 1
18 15 14 12 11 12 12 13 13 15 17 18 18 19 20 21 18 19 17 16 4 9 8 14 13 11 8 10 10 9 10 11 9 7 5 3 2 3 6 4 3 8 7 3 2 2 4
20 17 15 13 12 13 13 13 13 15 17 18 18 18 19 18 19 21 19 7 4 11 16 17 13 6 6 6 6 6 9 11 9 8 4 3 2 3 6 4 5 3 4 4 2 3 3
21 18 16 15 12 13 14 14 14 15 17 18 18 17 19 21 21 21 14 7 12 13 18 16 7 7 6 6 4 4 4 5 7 9 7 3 2 2 3 3 3 2 2 2 3 3 4
23 20 18 16 14 12 14 15 15 15 16 18 18 18 22 21 20 18 11 7 17 18 16 15 8 9 9 7 5 5 4 4 4 4 4 4 1 2 2 2 2 2 1 1 1 1 3
25 22 19 17 15 12 13 16 17 16 16 17 17 15 21 20 18 17 12 14 16 17 15 12 10 7 10 8 6 5 5 4 0 3 2 5 2 2 4 4 5 5 4 2 2 2 5
26 23 21 19 17 14 13 15 17 17 17 16 15 15 19 19 15 17 14 16 18 17 14 12 11 9 9 9 5 6 5 2 2 5 4 6 2 2 2 3 6 5 5 8 10 7 11
28 25 22 20 18 16 13 13 16 17 17 17 15 14 17 18 13 12 14 16 17 16 12 11 10 10 9 8 5 5 3 2 4 5 5 4 4 4 6 8 8 10 11 10 11 10 14
29 26 23 21 19 17 15 14 15 16 16 17 16 14 18 19 15 14 14 15 16 16 13 12 12 10 9 7 6 3 2 4 5 6 4 5 7 12 12 14 18 17 15 15 19 20 17
32 29 26 23 21 20 18 16 15 16 15 16 15 12 17 11 15 15 15 17 15 14 15 13 11 10 8 5 4 3 2 4 6 6 7 10 8 15 17 17 16 19 24 17 8 13 17
33 31 28 25 23 21 20 19 17 16 16 15 15 11 15 13 17 17 16 17 16 12 12 11 10 9 7 6 4 1 3 5 7 8 9 10 9 11 8 13 24 13 3 5 12 12 13
35 32 29 26 24 23 21 20 18 16 15 15 14 12 15 17 18 17 14 13 14 13 11 12 11 8 7 5 2 2 2 4 6 5 6 9 11 10 9 15 4 5 16 22 14 11 10
37 34 30 27 25 22 22 21 19 17 15 15 16 16 15 14 17 15 14 14 14 13 11 10 9 8 6 3 1 1 2 2 5 9 6 6 9 7 3 6 21 13 4 8 10 17 19
37 36 33 30 26 24 22 21 20 19 17 15 15 17 19 16 17 15 15 13 13 13 12 11 10 9 6 4 2 2 2 4 3 6 5 8 11 10 9 5 5 3 17 20 15 14 14
36 35 34 32 28 25 24 23 22 20 18 17 16 16 16 16 13 16 15 13 14 14 13 11 11 10 8 6 6 4 5 6 4 5 8 12 13 14 11 11 13 16 14 10 9 13 31
32 34 34 33 30 27 25 24 23 21 19 19 18 17 17 15 12 13 13 13 13 14 14 12 12 14 11 10 7 6 8 8 9 12 13 12 7 9 7 8 7 6 16 22 27 33 36
31 32 33 33 32 28 26 25 24 22 21 20 19 19 17 16 11 14 14 14 15 16 16 16 16 10 10 8 9 7 10 13 15 13 16 13 11 14 13 18 21 27 28 30 29 32 33

GFSGBSN_700_spd_009.txt.gz
Wind_Speed
21 22 22 21 19 18 15 13 10 9 9 8 9 9 10 11 13 15 15 16 16 17 18 17 18 19 18 8 6 15 11 14 16 12 7 6 7 8 6 7 7 6 7 7 7 7 6
20 19 20 16 15 13 11 9 5 5 6 7 9 11 12 13 15 17 17 18 18 17 16 16 19 18 16 6 7 14 12 11 7 7 6 6 7 4 7 9 5 9 7 7 6 5 5
19 17 15 13 11 8 7 4 1 3 6 9 11 13 15 16 18 19 19 19 17 14 15 17 16 16 10 9 7 14 12 11 12 10 5 9 7 5 6 6 7 9 7 4 5 5 4
16 13 12 8 7 5 3 2 3 5 8 11 14 15 18 20 21 22 21 18 15 14 14 13 13 12 4 6 3 15 13 8 7 8 9 9 10 9 9 10 8 7 8 10 6 6 8
13 10 9 6 4 2 2 5 6 7 11 14 17 20 22 24 25 23 20 17 16 14 14 13 11 8 4 3 7 12 12 8 10 10 10 10 9 5 7 8 9 9 13 6 4 7 6
11 10 8 5 4 3 6 9 10 14 17 19 22 24 26 26 25 22 20 18 16 16 15 12 10 5 3 6 8 11 12 13 10 11 7 5 2 3 5 9 12 8 7 8 5 5 6
11 11 9 8 7 7 10 11 13 15 19 22 24 25 25 26 25 22 21 20 18 16 9 7 8 6 5 6 9 11 12 14 10 7 6 5 6 2 1 3 4 1 4 5 4 5 2
13 12 10 10 10 11 12 14 15 16 19 21 23 23 25 26 23 22 23 10 15 14 9 9 8 9 9 12 6 8 11 5 7 6 6 4 4 2 2 1 1 2 3 2 4 3 2
14 13 12 11 12 12 14 14 15 17 19 20 21 23 25 25 21 21 18 19 17 19 9 10 11 7 11 9 7 10 8 6 5 5 5 2 5 4 2 2 3 3 3 3 5 6 7
15 14 13 12 13 14 15 16 16 17 18 19 21 23 24 22 19 21 17 20 17 16 6 4 2 4 8 11 3 7 8 8 5 8 8 4 5 1 2 3 4 5 3 7 7 6 10
17 15 13 13 13 15 17 18 18 18 18 19 20 22 24 25 21 18 21 21 15 9 3 4 2 5 7 3 8 3 7 5 5 6 5 3 2 2 2 3 3 4 8 6 7 9 9
18 16 14 13 13 15 16 18 18 18 19 19 21 22 23 21 25 23 21 21 11 2 3 4 4 7 8 7 5 8 6 7 9 5 7 5 1 0 3 4 2 5 5 4 3 5 7
19 17 15 13 12 13 15 17 18 19 20 20 21 22 21 22 22 23 19 17 4 3 6 6 8 8 7 7 9 9 7 5 3 4 2 5 2 2 3 2 3 6 4 5 3 4 2
20 17 16 14 13 13 14 15 16 18 20 20 21 22 22 21 22 22 18 10 6 2 7 9 12 11 6 7 7 5 7 7 6 4 4 4 5 3 5 2 3 6 5 4 4 2 5
21 18 17 14 13 13 14 14 15 17 19 20 20 21 22 22 22 21 15 11 3 5 9 13 13 7 6 4 5 5 8 6 5 4 2 0 2 2 4 4 4 4 3 1 0 1 3
22 19 18 15 13 13 14 14 14 17 18 20 19 20 21 22 21 22 10 8 5 12 12 14 7 7 7 6 5 5 3 3 4 6 6 0 2 1 4 4 5 3 1 4 3 3 4
24 21 19 16 13 14 15 14 13 16 18 19 19 14 19 21 22 16 8 7 8 15 16 11 7 7 8 7 6 5 3 4 4 3 4 3 2 1 5 1 3 4 2 3 4 3 4
26 22 20 18 14 14 16 16 15 16 18 20 18 8 22 24 16 13 8 7 13 18 16 11 7 7 7 7 5 4 5 4 2 2 1 4 1 1 1 6 5 2 3 3 3 3 5
27 24 22 20 16 14 15 18 17 16 17 19 10 13 23 23 12 18 14 12 15 16 12 10 11 9 8 8 4 6 5 3 1 0 1 1 2 4 3 1 2 3 5 6 5 6 12
29 26 23 21 18 15 15 17 19 19 18 18 10 12 21 22 13 13 13 13 17 17 15 14 11 10 10 7 5 7 4 3 3 2 1 0 1 2 7 10 11 12 13 12 13 14 15
30 27 24 23 20 17 16 16 19 20 19 18 13 12 18 21 17 12 13 12 14 17 16 12 11 8 10 6 7 5 5 4 4 3 1 1 1 6 10 13 14 16 17 16 18 20 21
32 28 26 24 22 19 17 16 18 19 18 19 14 15 18 10 16 14 15 13 14 13 13 13 10 12 9 6 3 7 5 3 3 2 1 5 4 11 17 10 12 17 20 20 18 13 16
35 32 28 25 23 22 20 18 18 18 18 18 18 16 17 17 18 15 14 15 14 14 15 10 13 11 12 9 10 9 8 7 5 3 4 5 5 10 7 18 24 9 3 2 7 11 11
37 34 30 26 24 23 21 20 19 18 18 16 16 15 16 18 18 14 15 13 14 12 13 15 11 12 12 10 9 7 6 5 6 5 5 4 6 6 10 12 3 2 11 16 14 12 10
37 35 32 28 25 23 21 20 19 18 17 16 15 16 16 15 19 18 15 16 17 15 12 16 14 11 11 10 6 4 4 3 5 6 5 5 5 5 2 8 19 8 1 3 10 14 13
37 35 33 30 27 24 22 20 19 18 17 16 16 17 16 16 18 18 17 17 18 18 15 14 14 12 11 9 7 5 3 4 3 4 5 6 6 5 7 4 4 2 9 13 13 14 13
39 36 34 31 28 25 22 20 20 19 18 17 16 16 19 19 17 19 18 18 15 15 12 16 14 13 12 11 9 8 5 7 3 5 6 8 11 11 9 9 12 12 20 11 6 11 21
39 38 36 33 30 26 24 22 21 21 20 19 17 16 17 18 16 19 21 18 17 17 16 17 15 16 16 14 11 9 9 8 7 5 8 7 6 7 6 7 8 6 9 17 19 24 30
36 37 36 35 32 29 27 24 22 22 21 20 19 18 17 17 13 16 17 18 19 19 16 16 15 12 13 12 15 10 11 9 10 5 7 8 12 8 9 14 19 26 29 26 24 28 29

GFSGBSN_700_spd_012.txt.gz
Wind_Speed
24 25 26 26 27 25 24 23 21 16 14 12 11 10 10 12 13 13 13 13 15 16 16 17 17 19 18 11 6 12 9 16 12 11 11 6 8 6 8 8 7 3 3 4 6 7 8
22 24 24 24 23 22 20 18 14 12 9 8 8 10 12 12 13 14 15 16 17 16 16 17 18 19 12 4 7 12 15 13 7 4 3 8 4 4 7 7 3 6 5 6 6 5 5
21 23 22 22 20 17 15 12 8 8 6 7 10 12 12 13 14 16 17 18 17 16 16 16 18 18 5 2 5 7 12 5 12 8 6 10 7 7 6 3 3 7 7 6 5 5 1
19 20 20 18 16 13 11 5 4 5 7 8 9 11 14 16 18 20 20 18 16 15 14 14 16 15 4 6 8 13 7 3 8 7 4 10 12 4 1 7 6 8 8 8 8 6 6
18 18 16 15 11 9 5 3 3 7 8 10 12 16 19 22 23 23 21 18 16 14 14 14 13 7 1 1 6 11 15 7 6 7 9 10 11 4 5 7 8 8 11 9 7 6 5
17 15 14 12 9 6 4 5 7 10 12 14 17 21 25 26 25 23 20 18 16 16 15 12 12 2 1 5 8 10 10 11 5 10 9 7 4 7 8 8 4 11 8 5 5 6 4
16 13 12 11 7 6 7 8 10 14 16 18 21 24 27 27 25 23 21 19 16 18 12 4 7 2 2 3 10 8 13 12 9 5 6 4 6 2 4 4 6 7 5 3 9 2 9
16 13 13 10 9 8 10 11 12 14 17 20 23 26 27 25 24 26 18 10 14 12 7 9 6 9 7 12 6 6 11 6 5 7 4 4 2 3 3 6 4 4 4 4 4 9 4
16 14 13 12 11 10 12 12 14 16 18 20 22 26 25 23 24 23 11 14 16 17 10 9 9 3 10 8 7 6 11 4 5 4 4 4 4 2 4 3 3 3 3 2 4 4 9
18 16 14 14 13 13 14 14 14 16 18 19 21 24 23 20 21 15 16 20 18 18 8 4 3 1 3 6 3 5 11 9 4 5 6 3 1 4 1 1 3 3 3 5 7 8 11
20 18 15 15 15 15 16 15 15 17 17 18 20 23 23 19 20 12 18 23 17 8 4 6 4 7 7 3 5 2 8 8 3 5 3 4 3 3 1 3 2 4 10 7 7 10 11
21 19 16 15 16 17 17 16 16 17 17 17 19 22 23 20 22 20 23 21 11 2 4 5 4 7 6 4 4 5 6 10 10 6 6 4 2 1 2 3 4 5 7 7 6 8 6
23 20 17 15 16 17 17 18 19 18 18 18 19 21 24 23 23 20 21 15 1 2 6 4 10 8 5 7 9 5 6 5 1 4 3 6 4 4 5 4 5 7 6 7 3 5 2
24 20 18 16 15 16 17 19 19 19 19 19 21 22 23 21 22 20 18 8 4 2 5 8 10 11 7 6 5 7 7 6 4 3 6 9 6 2 5 4 4 5 5 4 4 5 4
25 21 18 16 14 15 16 17 19 20 20 20 20 21 22 21 19 20 19 8 1 1 6 10 12 8 5 4 6 7 8 4 4 7 5 1 5 3 6 4 6 5 5 3 2 3 3
25 21 19 15 14 14 15 16 18 19 20 20 20 19 20 19 20 20 13 8 3 6 6 11 8 5 6 6 7 6 3 3 3 5 7 2 5 2 5 7 7 7 3 4 4 2 3
25 21 19 16 14 15 16 15 16 19 20 20 20 16 16 20 21 21 8 7 6 9 12 12 7 6 4 7 5 5 3 4 5 2 6 8 3 1 5 4 5 3 3 3 4 2 2
26 22 20 17 15 15 16 15 16 20 21 19 17 7 9 21 21 17 8 8 8 8 15 13 7 7 7 6 6 4 7 5 4 6 2 4 4 3 3 5 3 2 2 3 2 3 4
27 23 21 18 15 15 17 16 17 20 21 22 10 8 12 22 13 17 12 7 8 8 9 6 5 7 8 7 4 8 6 5 3 5 7 6 1 1 7 1 2 4 3 5 6 8 10
28 25 22 19 16 16 17 17 18 21 23 20 9 7 20 26 8 16 9 8 12 13 13 8 7 6 8 6 4 7 4 5 5 2 4 4 2 2 1 6 10 11 12 13 14 13 14
29 26 23 20 18 17 16 19 19 22 26 20 9 6 20 26 13 11 12 8 10 14 8 9 6 6 8 6 7 6 5 2 3 2 4 3 3 3 5 9 9 13 14 14 16 18 20
31 28 24 22 20 17 17 18 20 20 21 19 8 6 16 6 16 10 14 11 13 9 9 11 7 9 8 7 4 7 6 3 1 4 3 1 2 8 11 2 11 20 17 15 15 16 16
33 29 26 23 21 19 17 17 18 19 18 15 14 12 12 16 13 14 15 10 13 15 13 9 10 13 13 13 16 16 14 11 7 3 4 3 3 8 3 15 16 3 4 5 6 7 10
34 31 27 25 22 21 19 18 18 18 19 19 16 12 12 12 14 14 9 12 14 13 10 10 13 18 21 13 9 9 8 7 6 8 7 4 4 5 7 10 3 2 16 14 11 9 9
35 33 29 26 24 22 21 19 18 17 17 15 13 14 14 13 13 12 12 13 16 15 14 18 18 18 12 12 10 7 6 5 7 7 7 5 4 4 2 4 15 5 7 6 11 16 12
36 34 31 28 25 23 21 20 18 17 16 15 14 14 13 12 16 12 13 18 19 19 20 16 16 14 14 13 11 8 5 4 5 4 7 6 7 6 6 2 4 4 8 18 19 15 15
36 34 32 29 26 24 21 20 18 16 15 14 14 15 15 14 13 16 16 19 14 16 13 15 15 14 15 15 13 10 7 9 7 9 5 7 8 11 8 7 10 10 14 13 6 9 18
36 34 32 30 27 25 23 21 19 17 16 16 14 15 16 16 13 17 19 16 17 13 16 15 16 17 18 16 13 12 10 11 12 7 7 6 5 6 5 6 8 9 11 13 15 21 31
37 35 33 31 29 26 24 21 19 18 18 17 17 16 15 15 11 16 18 19 19 18 17 18 12 13 12 10 14 11 12 12 15 9 8 10 14 9 11 10 10 19 23 30 32 32 33

GFSGBSN_700_spd_015.txt.gz
Wind_Speed
25 24 25 25 27 25 27 27 29 27 23 19 16 14 12 13 14 13 14 14 14 14 14 15 17 21 14 9 7 8 10 15 10 13 14 15 9 5 5 3 4 5 3 4 6 7 15
24 22 23 24 24 23 24 24 25 21 18 14 13 10 13 12 11 12 14 15 15 15 16 17 21 21 12 6 5 10 18 12 9 5 5 6 8 10 1 12 7 7 3 3 7 9 14
23 23 22 21 21 21 21 21 19 16 13 11 10 11 10 10 12 14 15 16 17 17 17 19 23 18 4 6 7 10 16 8 10 10 5 8 8 10 3 10 9 7 6 4 9 3 4
22 21 20 19 17 19 17 16 15 12 9 8 7 8 11 14 17 18 20 19 18 17 17 19 20 13 5 2 10 14 13 9 14 11 10 13 13 11 2 5 6 8 12 12 9 7 4
22 19 17 16 15 15 12 11 9 6 6 7 9 12 16 20 22 23 21 20 18 18 18 20 18 8 4 6 9 20 13 11 12 10 6 14 12 9 5 7 10 11 12 13 14 8 4
20 17 14 14 13 10 7 8 5 6 8 11 14 18 22 25 25 24 22 20 20 20 19 19 15 3 5 3 7 13 16 11 12 13 14 13 13 8 6 8 7 4 10 21 16 13 10
18 15 14 13 11 7 6 7 7 10 12 16 20 25 27 27 26 24 22 20 19 20 16 6 6 9 4 2 7 13 14 16 14 13 10 4 4 8 9 7 3 3 8 20 15 11 5
17 16 14 13 10 8 9 9 10 13 17 21 26 29 28 26 25 27 20 18 10 11 8 11 7 7 9 10 6 10 13 12 15 7 1 6 8 6 2 3 2 3 4 12 8 6 2
18 16 14 14 11 11 12 12 14 16 20 24 27 28 25 25 27 15 13 17 17 13 11 10 7 9 16 9 10 17 18 10 6 2 7 6 5 4 9 2 7 6 3 2 1 2 2
21 18 15 15 14 14 14 14 16 18 19 22 26 26 24 25 22 10 18 20 20 17 7 7 5 9 11 10 3 14 13 12 7 7 9 2 1 7 5 1 1 1 3 6 7 4 4
23 19 17 17 16 16 17 17 18 18 19 20 24 24 21 22 20 15 18 20 20 6 3 8 7 5 12 5 5 7 13 11 3 6 6 6 6 6 4 3 5 2 7 7 7 7 8
23 20 19 18 18 18 18 19 19 19 20 20 22 24 21 21 20 16 18 20 10 5 3 6 5 7 7 8 4 4 15 9 9 6 6 4 0 1 2 8 10 7 8 6 6 6 3
24 21 21 19 19 19 19 20 21 20 20 20 22 25 23 20 21 20 23 10 1 2 10 5 13 9 9 8 9 10 11 10 7 8 10 10 4 8 5 4 5 7 9 1 1 1 3
25 23 21 19 19 19 20 21 22 21 21 20 21 23 23 19 18 22 20 7 2 6 4 10 12 11 6 7 14 7 8 8 10 7 13 9 3 1 5 6 3 10 7 5 1 1 5
27 24 22 20 19 19 20 22 22 22 22 21 21 21 21 21 18 21 19 6 3 5 8 9 13 10 8 7 8 6 5 1 6 5 7 10 5 5 5 10 5 6 8 7 3 4 3
29 25 22 20 18 18 20 22 23 23 23 22 20 19 20 20 20 20 19 8 2 6 7 13 13 11 9 9 9 4 2 2 5 5 8 9 7 4 10 8 10 9 6 4 3 1 2
30 25 22 20 18 18 20 22 24 24 24 22 20 19 19 19 21 22 17 7 4 13 14 15 10 8 5 10 7 9 4 6 7 6 7 12 7 8 5 4 4 4 1 3 1 0 4
30 26 23 20 19 18 20 21 23 24 25 22 19 16 14 20 22 23 13 5 9 8 15 14 7 10 6 12 6 7 11 7 8 10 9 8 9 8 5 4 3 1 1 1 1 2 3
30 26 24 21 19 19 20 20 22 25 24 22 20 11 10 21 22 23 9 9 6 6 14 12 13 12 7 12 5 7 11 9 8 8 9 12 7 8 3 1 2 3 3 7 7 9 8
31 28 25 22 19 19 20 19 22 25 25 25 17 12 13 22 16 20 11 11 13 12 12 10 8 12 11 10 8 11 9 9 5 7 9 10 9 5 6 4 6 8 8 8 11 8 14
31 28 25 22 20 19 20 19 23 28 31 21 12 9 14 27 17 20 10 6 12 16 13 13 8 9 11 9 7 8 7 6 7 8 9 8 9 7 4 5 5 8 12 12 12 14 15
32 28 26 24 21 19 21 20 24 31 27 19 12 14 18 22 18 18 17 11 11 5 8 9 5 9 11 13 12 9 8 3 5 9 11 8 6 4 2 5 7 13 2 4 2 5 10
33 29 26 24 22 20 20 23 23 30 26 16 9 12 18 11 20 16 12 16 14 13 8 11 11 16 16 14 15 16 14 11 7 9 8 6 3 2 2 5 6 4 4 5 7 9 10
33 30 27 25 23 21 19 21 25 25 24 20 17 13 17 16 17 18 14 15 11 14 12 12 12 20 19 16 13 13 11 11 10 10 7 6 5 3 4 3 1 6 11 15 13 11 12
34 30 28 25 23 22 20 19 20 22 22 21 13 14 12 11 12 14 11 11 13 17 16 18 19 18 18 17 12 10 9 9 10 10 12 11 8 4 3 3 9 3 7 11 11 13 16
34 31 28 25 24 22 21 20 19 19 18 16 13 12 11 9 11 14 14 17 19 19 18 21 21 20 17 16 14 8 7 6 7 6 14 11 9 7 7 4 6 6 9 14 14 17 17
35 32 29 26 24 22 21 19 18 17 15 14 13 13 11 11 14 17 16 18 20 21 21 20 18 17 14 15 14 11 10 10 8 8 10 15 12 14 13 8 7 11 15 12 10 15 20
35 32 29 27 24 22 20 18 17 16 15 14 13 12 12 12 9 14 18 18 18 16 17 17 17 18 17 16 14 15 11 14 13 14 12 13 9 11 9 7 10 7 14 16 21 26 25
35 33 30 28 25 22 20 18 17 17 16 15 14 13 12 11 9 13 19 19 19 17 15 14 15 13 13 11 15 12 13 13 18 15 18 16 19 13 14 11 20 23 21 27 28 28 28

GFSGBSN_700_spd_018.txt.gz
Wind_Speed
29 29 28 26 26 25 25 25 26 26 27 26 23 19 18 14 14 14 14 14 15 15 14 15 18 21 15 10 8 9 17 15 9 11 11 8 7 8 10 7 7 13 7 8 12 18 11
27 26 26 25 25 25 24 22 23 24 24 22 18 15 14 14 11 11 12 14 16 16 17 20 24 20 13 11 12 11 12 8 5 6 3 4 5 7 4 6 13 12 8 8 11 16 15
26 25 24 25 24 22 21 20 21 21 20 17 13 11 11 9 10 12 15 17 18 19 20 22 25 16 9 10 8 9 9 8 6 5 8 6 2 7 13 17 15 10 1 5 10 12 15
26 25 24 24 22 20 19 17 18 17 15 12 9 7 9 11 14 16 18 19 19 20 21 26 21 11 8 9 11 10 10 11 9 6 8 9 5 8 8 11 10 0 5 3 3 5 7
25 24 25 22 20 18 14 15 13 12 10 8 7 10 13 15 17 19 20 20 20 20 21 25 19 10 5 12 14 15 14 14 12 7 10 11 5 9 7 3 6 7 10 15 10 10 3
26 25 23 20 17 14 11 12 10 8 7 7 10 14 17 19 22 23 22 21 20 19 21 24 15 7 5 5 13 19 14 11 16 10 9 13 5 7 6 5 6 8 13 20 15 14 11
27 25 22 20 15 10 10 9 7 8 9 11 16 20 23 25 26 25 23 22 21 19 20 15 10 7 5 1 4 16 15 13 16 16 14 10 4 3 4 8 8 3 4 14 19 16 11
27 24 22 19 14 11 10 9 8 10 13 17 22 26 27 26 24 22 22 22 23 17 8 10 9 9 8 10 9 16 15 20 21 16 7 4 5 7 8 7 7 5 14 17 13 13 8
27 25 23 19 15 14 12 12 12 15 18 24 28 28 27 27 27 18 22 22 20 15 9 9 5 8 9 10 13 20 19 20 13 6 4 8 9 9 6 5 9 10 16 15 10 6 8
29 27 24 20 17 17 16 15 16 19 23 27 29 29 29 30 18 19 23 20 17 13 6 10 5 13 12 11 7 19 16 14 5 6 7 7 8 9 5 5 4 5 5 2 3 3 7
31 28 25 22 20 19 19 18 20 22 25 29 30 28 29 27 18 22 23 24 19 8 3 11 6 10 11 7 9 20 16 9 9 11 8 7 8 7 4 2 3 2 2 1 2 3 6
32 30 26 24 23 22 22 22 22 24 27 30 29 27 28 27 20 20 23 22 17 4 4 8 9 12 12 8 10 16 13 12 8 8 8 7 3 4 3 9 7 2 2 3 1 0 1
33 30 28 26 25 24 24 24 25 26 26 28 29 27 28 26 19 19 20 17 5 3 13 12 15 13 11 10 12 16 14 16 10 10 8 8 6 7 9 7 7 2 1 2 2 2 4
34 31 29 27 26 25 26 26 26 27 25 26 29 27 25 24 19 19 19 10 3 10 9 16 17 14 14 12 12 12 12 10 10 9 15 5 4 2 5 6 5 8 6 4 4 2 3
35 33 29 27 26 26 27 28 28 28 26 26 27 27 25 23 19 23 16 6 5 10 17 17 15 12 13 13 10 11 9 9 10 10 10 7 5 7 11 8 5 3 9 6 4 2 1
36 32 29 27 26 26 27 29 29 29 27 26 25 25 24 22 19 22 18 5 4 9 13 10 20 12 10 13 11 10 5 5 12 10 12 9 9 10 8 9 9 8 5 2 3 2 1
37 32 30 27 25 25 28 29 30 30 28 26 24 23 23 22 20 22 22 7 5 11 14 15 15 8 9 11 14 10 7 7 10 11 10 13 8 9 6 3 4 4 2 3 2 1 4
36 32 30 26 25 25 27 29 30 31 29 27 24 22 22 22 22 24 24 6 8 12 15 13 10 9 15 15 14 15 10 7 9 10 14 10 11 9 7 6 4 1 2 2 1 2 2
36 33 29 26 25 25 27 28 31 31 30 27 23 21 20 23 23 24 17 8 10 9 17 15 12 11 14 14 10 6 8 8 9 9 15 14 10 9 4 4 5 4 4 4 5 7 9
37 33 29 27 25 25 27 28 30 30 30 28 27 20 19 22 23 23 15 11 10 8 12 16 14 12 13 12 12 8 10 9 10 11 12 13 14 8 9 5 6 7 9 10 8 8 13
36 32 29 27 25 26 27 27 29 31 31 30 25 18 19 25 25 26 15 10 14 14 13 12 17 13 15 14 13 12 11 11 10 12 13 12 11 9 8 9 10 10 9 10 14 14 12
36 33 30 27 25 27 26 26 31 33 35 28 19 15 14 11 20 26 18 14 8 17 15 14 10 12 14 15 14 13 10 11 10 13 14 13 10 11 11 10 9 10 8 5 6 7 10
37 33 31 28 27 27 26 27 33 38 34 25 22 16 19 24 22 22 23 14 11 8 9 10 12 14 14 11 11 8 8 6 6 8 11 12 10 10 6 10 10 7 13 6 7 12 14
36 33 32 29 27 26 27 28 35 39 33 22 23 19 20 29 26 21 17 18 14 14 11 10 12 13 15 13 11 9 10 10 9 9 10 10 10 8 5 7 1 8 9 8 9 14 18
36 34 32 30 27 26 27 28 36 34 27 17 19 18 22 18 21 23 17 17 17 15 15 12 14 13 15 14 13 11 13 13 15 16 15 14 12 7 5 8 10 11 16 11 8 12 18
36 34 32 30 28 26 26 27 29 31 26 21 16 15 14 16 19 20 19 18 17 17 15 16 18 19 16 16 15 11 7 9 6 7 18 17 16 14 9 4 6 7 12 12 11 19 5
36 34 32 30 28 26 25 25 26 26 24 21 19 15 14 14 16 20 21 17 16 17 17 18 19 18 18 17 17 16 13 10 8 9 10 16 18 19 18 11 10 16 15 13 10 13 18
36 33 31 29 28 26 24 24 23 22 20 18 17 15 14 13 15 20 19 20 18 18 16 17 18 19 18 17 16 15 12 15 16 18 16 14 12 16 14 11 12 14 14 17 19 25 25
36 33 31 28 27 25 23 22 21 19 18 17 15 14 13 14 13 16 20 18 17 17 16 16 17 15 11 11 16 13 13 14 18 18 20 18 23 17 17 12 15 23 26 25 27 26 28

GFSGBSN_700_spd_021.txt.gz
Wind_Speed
27 26 27 29 28 30 28 29 29 28 27 29 26 23 20 18 15 15 14 14 14 13 13 14 14 15 15 11 12 10 13 16 14 10 9 10 12 12 15 11 6 13 14 12 12 15 18
28 27 27 27 26 28 27 27 27 27 26 25 22 19 16 14 12 13 13 13 14 14 15 16 18 19 16 13 14 12 14 11 8 11 7 7 8 7 5 11 7 16 13 11 15 14 13
29 29 27 25 25 26 26 26 26 26 25 21 16 14 12 10 10 12 13 13 14 15 18 19 22 19 14 13 10 11 13 13 12 10 10 10 5 6 3 15 16 11 6 4 15 17 17
30 31 27 25 24 25 24 24 24 23 21 17 12 9 9 9 11 13 13 14 16 18 20 21 22 15 14 15 12 12 13 11 10 9 9 10 8 12 8 18 18 8 5 6 11 13 15
33 32 28 26 24 23 22 23 22 20 16 12 9 8 9 10 11 13 14 17 18 19 21 24 20 11 10 15 14 15 10 10 9 7 5 9 8 17 17 15 13 11 8 6 4 7 6
35 32 28 27 23 22 22 21 19 15 13 10 9 10 10 13 14 16 18 18 17 19 22 24 15 10 7 9 17 15 9 10 10 8 8 9 8 10 9 7 5 5 8 10 12 10 11
36 32 29 27 24 21 21 20 13 12 11 9 10 11 15 19 20 20 19 17 16 16 24 19 10 4 7 5 12 19 10 9 11 8 9 12 3 5 4 5 3 4 8 13 9 10 12
37 34 31 27 25 21 20 16 11 12 10 11 13 16 21 23 22 21 18 16 16 15 21 12 12 10 8 7 8 19 16 14 14 12 12 10 6 4 2 3 5 4 1 13 13 11 9
39 36 32 28 25 22 20 15 13 13 13 16 19 24 25 25 23 22 19 19 18 16 11 11 9 9 5 6 10 18 16 15 18 12 9 4 6 4 4 5 3 12 14 18 15 7 4
41 38 33 29 26 24 20 18 16 16 18 21 26 27 26 26 26 21 22 21 17 12 8 10 8 8 5 8 13 16 15 15 12 9 11 7 7 9 10 5 4 12 13 9 9 8 9
42 39 35 30 27 25 22 20 19 20 22 27 29 29 29 28 18 22 21 20 16 9 3 10 9 11 10 9 13 15 10 10 7 16 8 8 7 8 7 6 5 7 7 6 7 10 9
44 41 36 32 30 28 25 24 23 24 27 31 31 29 29 24 24 24 22 21 15 1 2 8 9 13 12 9 16 16 11 12 11 9 7 11 9 7 7 6 7 8 7 7 4 4 2
44 40 37 35 32 30 29 28 27 27 30 33 31 29 30 23 22 22 22 20 7 3 12 11 13 15 13 11 15 17 15 17 12 14 12 7 5 6 12 7 4 7 10 3 0 0 4
46 42 39 37 34 33 32 31 30 30 31 33 30 29 32 25 21 22 22 17 5 7 10 14 18 15 14 15 15 18 14 13 11 8 15 5 4 6 12 9 4 6 5 4 5 3 2
46 44 40 38 35 35 34 34 32 31 31 34 32 30 32 27 22 22 21 13 1 12 11 21 19 16 15 11 13 15 14 12 11 11 5 6 4 6 8 9 7 2 4 4 5 3 2
47 44 41 38 36 36 36 35 34 33 32 33 34 31 30 29 23 24 18 5 5 10 22 20 20 14 19 12 14 12 10 11 13 13 15 8 8 12 9 7 5 4 4 1 2 2 1
48 44 41 38 37 36 37 36 35 34 33 32 31 31 29 28 24 24 20 6 7 12 17 19 19 13 10 18 14 14 11 8 13 14 17 12 8 12 8 4 6 4 1 1 3 2 5
48 44 40 38 35 36 37 37 36 36 34 32 30 29 30 28 26 27 24 8 9 7 16 14 16 8 12 16 16 12 10 7 11 13 13 12 9 12 8 7 5 3 3 3 0 3 4
47 43 40 37 35 35 36 37 37 36 35 32 30 29 29 29 29 30 26 12 11 10 10 13 11 10 13 18 15 14 12 9 9 11 13 13 10 11 5 6 8 6 7 5 4 5 7
46 42 39 36 34 33 35 37 38 37 35 32 31 27 30 30 30 29 23 16 12 12 11 13 13 12 14 14 10 9 11 8 10 11 15 16 12 11 11 4 9 9 11 10 11 9 13
45 42 38 36 33 33 34 36 38 37 36 34 32 26 33 33 32 27 22 17 13 9 13 12 14 14 14 14 12 12 10 11 11 11 14 14 10 16 10 9 9 10 12 14 16 16 14
45 41 36 33 32 32 32 34 37 38 37 35 30 23 29 13 28 27 25 18 15 14 13 13 12 15 14 14 14 8 12 11 11 13 14 15 9 13 12 12 13 15 15 17 18 18 21
44 39 35 33 31 32 32 33 35 37 37 36 29 25 26 23 29 29 29 18 11 12 15 12 9 11 12 11 9 7 8 6 8 9 13 14 13 10 7 12 13 14 19 17 14 15 14
42 38 36 32 31 31 32 31 35 36 36 30 24 24 23 24 29 27 25 19 14 11 7 8 11 13 12 10 7 8 7 6 6 7 9 11 12 10 6 6 1 15 14 17 18 17 17
41 38 35 31 30 31 30 31 36 37 38 24 25 22 23 28 24 23 25 22 17 15 14 10 7 10 10 12 10 7 8 9 12 13 12 12 13 11 6 11 14 13 15 18 19 18 16
40 38 34 32 29 30 28 32 37 42 40 27 25 24 20 30 25 25 20 19 20 16 16 15 12 15 14 16 14 10 6 6 5 6 13 18 18 17 11 5 6 10 11 14 19 24 17
39 38 34 31 29 30 29 33 43 38 34 31 22 21 20 25 23 27 24 20 17 18 17 16 14 16 17 17 17 16 14 12 8 10 13 14 18 21 22 15 13 18 18 17 16 16 11
38 37 34 31 30 30 30 35 39 35 27 21 18 16 17 19 20 22 21 19 18 17 16 16 16 18 18 18 17 16 12 14 16 19 19 17 11 14 16 13 15 20 21 20 16 17 24
37 36 34 31 29 31 30 31 33 33 29 21 18 17 17 19 17 20 20 18 17 16 16 14 15 13 12 12 17 15 13 14 17 19 21 21 22 17 17 14 18 18 16 20 27 27 29

GFSGBSN_700_spd_024.txt.gz
Wind_Speed
34 32 30 29 28 28 27 29 28 28 26 27 30 29 31 27 23 18 15 12 12 11 13 13 11 10 11 12 10 8 7 11 12 12 9 8 9 8 8 13 6 7 12 5 22 23 17
35 33 32 30 29 28 26 27 26 25 24 27 28 26 27 22 18 15 12 10 11 12 14 13 13 14 16 14 13 14 12 10 10 10 8 7 8 7 7 7 3 13 8 8 12 26 16
37 34 33 31 30 28 26 25 25 24 23 25 27 24 21 17 14 12 10 9 11 13 14 14 15 18 17 13 15 13 15 15 12 11 9 12 9 9 8 13 10 9 10 12 16 20 17
40 36 34 32 30 29 25 24 24 22 22 23 23 20 16 13 11 9 8 9 12 14 15 15 18 19 16 12 12 13 15 14 12 10 12 10 7 11 9 16 17 14 8 11 14 15 15
41 38 36 33 30 29 25 23 23 22 21 21 18 16 12 10 8 7 8 11 13 14 16 19 21 15 11 12 11 12 14 13 10 8 9 8 7 10 11 22 19 14 8 8 10 11 8
44 39 37 35 31 29 26 23 22 21 19 18 14 12 10 9 8 8 10 12 13 16 18 20 18 11 9 10 16 13 11 11 6 6 6 8 8 16 17 15 10 9 7 9 5 7 7
47 41 38 37 33 29 26 23 22 19 17 15 12 10 11 10 11 13 13 13 13 14 19 17 14 5 9 9 19 16 13 12 11 5 7 9 8 10 11 10 8 5 3 8 10 12 11
51 43 39 38 34 30 26 24 21 17 15 12 11 11 14 14 16 17 16 15 13 14 19 12 10 8 7 9 15 20 13 12 11 10 13 13 9 10 7 6 5 4 3 3 9 12 14
53 45 41 39 36 31 27 24 21 17 14 13 13 15 18 20 19 17 15 14 12 12 15 10 10 7 5 4 10 20 19 14 12 12 11 10 9 8 4 5 4 4 7 11 11 11 9
54 47 43 41 37 32 29 26 22 18 15 16 18 21 23 22 20 18 16 15 14 12 7 10 9 8 5 6 6 14 18 12 11 11 9 7 7 5 6 3 1 8 9 5 6 5 5
55 49 44 43 38 34 30 27 23 20 19 21 24 25 25 23 19 16 17 16 13 11 3 11 11 10 7 9 9 11 13 12 13 12 11 8 6 5 4 2 3 7 9 8 6 6 5
58 51 45 44 40 36 33 29 26 23 24 26 29 28 26 25 17 18 18 17 13 3 3 10 11 14 11 8 14 12 11 12 14 13 6 8 8 6 6 6 7 8 10 8 3 1 2
59 51 47 46 41 38 36 32 29 27 28 31 31 29 27 21 19 20 20 18 7 4 9 10 12 15 12 9 16 14 14 17 13 11 9 8 7 8 8 7 6 7 7 1 1 1 4
54 52 49 46 43 41 38 35 32 31 32 34 32 29 28 22 20 22 20 17 6 4 12 11 12 15 11 10 16 14 17 15 12 8 13 7 4 7 10 9 4 6 9 5 5 3 3
60 53 48 46 44 42 41 38 35 34 35 37 33 30 30 26 22 23 21 17 2 7 7 13 17 14 12 12 12 16 16 12 13 10 6 7 5 8 9 12 6 3 3 6 1 1 1
54 52 48 46 46 43 42 40 38 37 36 38 33 31 32 28 24 23 21 16 4 8 13 18 16 13 13 10 13 15 14 12 12 12 8 7 6 8 7 7 8 5 6 2 2 2 3
49 51 48 46 45 44 44 42 40 38 36 37 35 33 33 31 25 24 23 13 7 8 20 19 16 12 13 13 12 12 11 7 12 13 14 8 7 9 9 5 8 7 4 3 3 2 4
54 53 50 48 46 45 45 42 41 39 38 38 37 34 34 33 27 27 26 11 8 9 18 20 17 8 12 18 14 14 11 9 10 13 13 14 8 10 11 8 8 7 6 5 3 3 4
47 54 50 47 47 46 45 44 42 41 40 37 36 36 34 32 31 29 29 14 9 9 12 15 18 14 9 15 16 15 12 10 6 13 12 13 7 8 5 8 11 9 9 8 7 6 8
56 54 50 48 46 45 45 45 43 42 39 36 35 33 34 33 33 33 31 20 9 10 10 11 11 10 10 16 15 10 13 11 9 11 14 15 10 12 13 4 8 13 13 12 11 7 7
57 53 50 47 45 45 45 45 44 42 40 37 36 33 36 36 36 34 32 21 15 13 11 11 12 12 13 14 12 8 9 10 10 12 12 14 13 16 13 10 10 11 12 14 16 17 16
55 51 48 45 43 44 43 44 45 42 41 39 36 30 33 20 34 32 30 25 20 17 11 11 12 13 14 12 10 9 9 12 10 12 12 15 11 14 16 15 14 16 17 19 20 21 24
52 49 46 43 42 40 40 43 44 43 42 40 34 30 28 34 27 32 32 27 20 18 13 11 8 12 14 13 11 9 8 8 8 11 10 13 14 10 7 14 16 18 23 23 24 26 23
49 47 43 41 38 37 38 41 42 43 40 37 34 26 25 27 24 33 30 29 19 13 14 13 10 10 9 7 6 6 5 6 7 7 8 10 11 10 6 8 2 18 18 17 20 21 23
48 45 41 35 34 34 36 37 39 40 39 35 30 27 22 22 25 29 29 28 21 16 12 9 8 10 8 9 8 6 8 8 11 11 10 10 11 8 6 10 17 16 20 21 23 21 23
46 43 39 36 33 32 33 34 37 39 37 34 26 25 24 21 26 27 28 29 24 18 17 14 10 9 10 11 11 8 5 4 4 4 8 13 15 15 11 6 6 13 15 16 18 28 28
44 39 36 32 30 30 31 33 35 37 38 29 26 21 18 20 27 26 25 29 23 21 19 16 16 14 13 13 14 13 11 9 7 7 10 12 12 17 20 16 13 19 22 21 14 22 12
40 36 33 30 28 29 29 31 35 39 40 30 25 24 20 23 25 26 24 22 21 19 19 18 18 17 15 18 17 16 11 13 14 18 17 15 9 12 11 10 12 15 18 18 17 17 17
37 35 33 31 30 28 28 32 37 41 39 38 26 19 19 22 22 23 22 22 18 18 18 15 14 10 10 12 16 15 15 16 18 18 19 18 20 15 13 13 18 23 26 27 24 24 27

GFSGBSN_700_spd_027.txt.gz
Wind_Speed
39 37 34 32 31 29 27 27 27 27 25 25 23 24 27 29 28 26 22 18 13 13 13 12 11 9 9 11 8 5 4 4 6 10 9 8 8 10 9 12 13 6 2 10 20 15 13
43 39 36 34 32 30 28 27 27 26 24 23 22 23 26 27 24 21 18 13 13 11 12 12 10 11 14 13 12 11 10 11 12 10 7 9 11 10 10 12 8 12 7 2 15 17 17
46 42 39 36 34 31 29 28 27 26 22 20 22 23 25 23 18 16 13 10 12 11 12 11 11 15 17 13 15 13 12 10 10 11 8 8 8 15 9 9 6 8 10 8 9 24 21
49 46 40 39 37 31 30 28 27 24 21 19 22 22 23 17 13 11 9 9 11 10 11 10 13 18 16 13 16 15 13 12 11 9 8 12 13 14 12 12 8 11 9 11 14 20 16
51 50 44 40 38 33 30 28 27 23 20 19 22 21 18 12 9 7 7 8 9 10 11 13 19 18 12 13 15 13 12 12 10 7 7 10 10 13 14 12 19 13 7 9 14 16 16
55 51 47 42 40 35 32 29 26 23 20 19 20 19 13 10 8 6 7 9 9 11 12 17 18 13 11 10 18 14 14 10 9 5 7 9 10 5 15 21 14 14 11 14 13 15 12
57 54 49 44 42 37 32 30 25 23 20 20 19 15 12 10 8 7 9 10 10 10 14 17 16 7 10 11 19 16 14 10 11 2 7 15 10 16 15 16 9 8 9 11 12 12 11
57 57 52 47 44 39 34 31 26 23 20 20 18 13 13 11 10 11 12 11 10 10 16 12 13 8 6 10 18 18 15 12 8 4 2 11 8 10 10 10 9 8 5 3 7 13 13
60 58 55 50 46 40 35 32 27 24 20 19 16 15 14 14 15 15 14 11 9 11 17 10 8 8 7 8 14 22 15 13 11 10 6 10 10 12 8 7 6 6 3 4 6 11 10
60 60 58 50 49 42 37 33 29 25 22 20 18 17 17 19 19 18 14 12 9 12 9 11 8 8 6 6 8 23 20 13 7 14 11 11 11 9 6 4 5 7 5 3 5 7 4
59 63 60 51 52 44 39 34 31 27 24 21 21 20 24 24 22 17 15 14 11 14 3 9 12 11 8 9 11 12 22 14 10 15 12 10 11 8 5 4 4 5 6 6 6 6 6
62 66 56 54 54 46 41 36 33 29 25 25 25 27 28 26 21 18 18 15 11 6 4 11 15 14 11 10 12 13 18 16 15 15 11 13 11 8 6 4 2 3 5 5 5 5 4
66 70 67 56 54 48 43 39 35 32 28 29 30 30 28 27 21 20 18 14 7 4 7 10 16 16 12 10 15 14 15 18 16 13 11 10 8 6 5 5 4 6 7 0 1 1 3
68 72 63 63 58 50 45 42 38 35 32 34 35 33 31 25 22 21 19 16 6 5 12 11 13 16 12 11 17 15 17 18 15 11 12 9 5 6 8 8 3 6 9 5 4 3 2
50 74 65 64 60 52 48 44 41 38 38 39 38 35 34 27 24 23 19 18 7 5 13 14 13 17 12 13 16 16 17 15 13 9 8 8 5 8 7 9 7 6 7 9 3 1 1
47 81 55 63 57 53 49 47 44 41 41 41 39 36 34 29 25 23 21 18 11 8 11 13 16 15 14 13 12 15 16 12 11 10 9 7 5 9 7 9 10 7 6 3 4 3 3
49 55 61 61 55 53 50 49 46 44 42 43 41 37 35 32 28 23 25 25 10 10 14 18 15 13 14 13 9 15 13 8 13 11 13 6 6 8 9 8 9 9 8 4 4 3 3
46 56 69 55 56 53 51 49 48 46 46 47 43 39 38 35 30 27 26 23 12 11 20 18 15 8 12 14 11 13 12 11 9 13 13 13 7 7 12 8 9 10 9 8 4 4 5
45 54 53 57 57 54 51 50 49 48 47 48 44 37 37 36 34 29 28 24 13 12 20 17 16 13 9 12 14 13 12 11 8 10 12 15 9 6 4 9 13 14 13 12 10 7 7
43 53 59 56 56 54 52 51 49 46 44 44 42 31 38 37 34 32 28 25 14 12 14 16 18 16 12 9 16 10 14 11 11 10 15 14 14 11 14 6 9 17 17 15 14 8 9
58 40 54 59 57 54 52 51 49 47 45 44 42 32 39 40 38 34 29 27 16 14 12 14 13 13 12 9 18 14 14 14 13 13 14 16 16 17 16 13 10 12 13 16 19 19 17
57 37 59 56 55 54 53 52 50 49 45 44 38 32 32 17 35 33 30 28 23 15 12 11 11 12 13 12 13 11 7 10 12 13 15 16 12 15 16 17 16 17 17 19 21 23 27
30 61 55 56 54 52 51 52 51 50 47 45 36 26 27 38 28 35 33 31 26 20 16 13 11 14 12 11 10 9 9 11 11 13 13 15 14 11 8 15 16 16 24 25 26 27 26
54 60 56 53 50 49 49 51 51 50 46 42 34 31 21 27 25 34 31 29 30 20 16 13 12 10 13 12 10 7 7 8 9 9 10 10 11 10 6 6 2 16 18 18 19 18 21
55 55 52 50 47 46 47 50 49 46 44 41 37 28 25 22 27 26 33 29 26 20 17 15 13 12 10 11 9 7 8 7 10 10 10 9 9 6 5 8 15 14 15 20 23 22 22
53 50 47 46 44 43 45 46 46 45 43 40 36 29 19 20 24 26 31 32 29 23 18 16 13 13 12 13 11 6 4 4 4 4 11 14 13 12 9 5 5 5 12 18 21 24 21
47 45 44 41 39 39 40 41 44 44 42 38 32 29 23 19 13 25 29 32 32 25 23 19 16 14 11 12 11 10 10 8 4 4 5 8 10 14 16 12 10 12 16 17 10 14 14
47 43 39 37 35 35 37 39 41 42 40 35 27 22 23 21 15 24 26 30 30 26 21 19 19 19 15 15 12 12 9 10 11 13 11 11 7 7 8 7 8 5 7 10 15 24 21
39 37 34 31 31 33 34 36 38 39 36 34 27 23 20 18 17 25 23 22 27 25 22 20 18 13 15 13 13 9 12 12 14 13 15 13 15 11 11 11 18 23 23 21 22 22 21

GFSGBSN_700_spd_030.txt.gz
Wind_Speed
40 39 37 36 34 32 29 27 24 24 25 26 26 24 23 24 24 25 27 23 18 15 12 9 11 11 9 9 7 4 5 5 5 8 7 7 10 12 11 12 14 12 5 14 16 15 16
41 42 41 39 36 34 31 29 25 24 24 26 25 22 22 23 23 25 23 20 15 12 10 9 10 10 12 13 10 6 5 6 10 11 10 10 11 12 11 11 11 7 10 18 16 14 13
42 42 44 43 38 36 33 30 28 24 24 25 23 21 21 22 22 22 19 16 13 10 9 9 10 12 14 12 12 9 7 5 8 9 8 7 7 12 11 16 11 7 7 11 19 20 16
42 43 43 44 42 38 34 31 29 26 24 23 22 20 20 21 20 18 15 12 9 7 8 8 10 14 17 14 14 9 7 7 7 7 9 12 14 14 12 11 12 9 10 8 14 19 17
38 42 43 44 45 41 38 33 30 26 24 22 21 20 19 20 17 15 12 8 5 5 8 10 14 16 14 13 13 10 8 8 9 8 8 10 14 12 10 11 12 13 9 8 8 14 15
37 39 43 44 44 43 39 35 30 27 25 22 21 20 17 18 14 12 9 6 4 5 8 12 15 14 12 12 16 10 7 7 7 5 5 11 11 9 15 15 13 15 9 11 11 12 14
38 40 41 43 44 44 41 37 32 28 24 22 21 20 16 15 13 11 8 8 7 7 11 14 17 7 11 13 18 11 7 2 6 6 7 10 7 9 13 16 8 10 9 12 12 18 13
41 41 41 43 42 44 43 39 34 29 25 23 22 19 15 14 14 12 11 10 9 9 15 12 17 8 10 12 21 14 8 6 14 5 9 8 9 8 11 14 9 7 10 12 17 20 17
44 42 40 43 41 43 44 40 34 31 27 24 23 19 16 15 15 14 12 11 9 10 15 10 14 10 8 9 15 16 10 6 21 8 6 12 9 15 11 10 8 9 8 11 9 21 19
46 43 42 42 43 43 44 42 36 32 29 26 23 19 17 17 18 18 14 12 9 11 10 9 10 10 8 8 10 23 16 10 13 16 5 5 9 8 8 6 7 7 9 7 6 12 10
51 46 44 43 45 45 44 42 39 34 30 28 24 20 19 22 22 19 17 14 11 16 6 10 11 11 10 10 8 20 21 14 8 13 12 7 11 10 7 6 7 6 8 8 7 7 7
52 50 48 47 50 47 47 43 40 37 33 30 25 23 24 27 24 21 19 15 14 9 6 11 17 15 11 12 12 12 23 16 10 15 21 12 13 11 8 8 7 7 7 7 6 5 10
52 52 51 51 53 50 50 45 43 39 35 32 28 27 28 30 26 23 21 17 9 10 7 11 17 17 13 12 14 14 20 20 14 13 12 11 11 10 8 6 7 8 8 4 4 5 7
64 61 58 58 59 56 54 49 45 41 39 35 31 32 34 33 28 25 21 19 10 11 10 11 16 16 14 13 15 16 18 17 17 13 14 13 7 9 10 10 7 10 8 6 4 4 2
58 71 72 66 65 60 57 52 47 45 42 38 36 38 39 34 31 27 24 19 13 8 13 14 16 17 13 15 13 15 14 15 18 18 12 10 5 10 9 11 8 6 6 9 3 4 3
56 48 51 65 71 61 57 55 51 49 45 41 39 41 40 35 31 28 27 20 15 9 14 16 16 17 16 15 15 15 16 18 17 14 12 8 4 9 8 9 10 7 5 3 6 3 4
53 51 47 46 66 64 60 55 56 52 47 44 44 45 43 38 34 30 26 23 21 10 16 16 15 14 15 15 14 17 15 12 14 12 10 8 8 6 8 8 8 11 8 8 4 3 2
49 50 46 51 62 63 65 58 59 54 50 48 51 46 48 42 36 34 27 24 22 14 17 18 15 12 14 15 14 15 17 15 14 15 12 13 8 5 9 11 13 14 10 10 6 4 4
42 46 45 50 70 56 61 59 61 58 57 55 55 37 47 43 34 34 26 28 23 15 20 21 19 11 13 16 11 14 16 16 13 10 14 15 9 6 4 7 13 13 16 15 14 10 8
40 43 42 47 67 56 62 61 62 59 55 51 53 36 46 45 33 31 28 26 22 17 20 21 19 16 12 12 15 11 15 15 14 11 12 14 17 13 14 5 6 12 21 19 14 8 9
40 41 44 45 64 50 57 66 61 57 55 54 49 33 40 51 44 31 31 26 21 19 17 22 18 18 16 13 12 16 14 15 14 13 12 16 13 19 19 15 13 13 12 18 21 18 12
38 40 43 53 59 56 60 64 60 56 54 55 48 34 37 29 44 30 33 27 23 21 19 20 17 17 17 15 11 14 15 15 15 14 16 16 12 17 18 19 18 18 18 18 18 20 24
36 36 37 66 45 61 65 64 62 60 57 56 48 29 36 22 43 37 37 27 25 21 18 17 14 14 15 14 11 11 12 11 11 15 14 17 16 11 7 15 17 16 24 25 25 26 26
35 27 53 41 62 64 64 64 62 60 56 53 41 30 31 40 31 39 31 30 27 25 19 16 12 13 15 14 12 12 11 12 13 14 13 12 14 11 6 3 3 12 15 15 17 17 19
26 47 39 60 64 64 65 64 60 57 52 52 36 33 28 27 28 33 35 31 26 24 21 17 13 12 11 14 12 10 10 9 10 11 11 12 11 7 5 7 12 15 14 14 15 15 17
57 39 64 59 66 64 61 58 57 54 50 49 36 38 28 23 30 25 38 30 28 28 23 21 16 15 13 17 14 9 6 6 6 5 15 14 13 12 7 4 4 6 8 13 16 12 4
50 63 57 58 56 56 55 56 55 52 49 45 39 31 26 27 18 27 27 35 30 29 27 25 20 18 16 19 17 10 8 9 5 6 5 9 10 14 15 9 8 12 12 11 3 4 12
58 55 54 53 51 50 52 53 52 50 47 42 37 34 26 22 17 19 28 29 33 30 26 23 22 22 20 17 14 11 8 11 10 10 7 7 5 6 7 6 6 1 7 8 12 20 20
51 49 45 44 45 48 50 50 49 48 46 41 34 30 28 24 16 15 23 27 31 30 26 23 24 15 19 16 14 8 10 9 11 6 9 9 10 8 7 5 13 18 13 16 21 23 23

GFSGBSN_700_spd_033.txt.gz
Wind_Speed
39 37 36 36 35 34 32 30 28 27 25 25 22 24 23 23 23 24 26 29 25 20 16 14 11 9 8 7 7 7 6 6 5 6 6 9 10 9 10 11 11 12 8 6 9 8 14
40 38 38 37 37 36 35 32 30 28 26 25 23 24 22 22 22 22 26 26 20 17 15 12 10 9 8 7 8 4 1 2 4 7 9 9 7 8 9 10 13 10 6 10 11 12 12
35 37 39 39 38 37 38 34 31 29 27 25 23 23 22 21 21 21 24 20 17 14 12 11 9 9 11 14 10 3 3 5 6 8 6 9 10 7 6 8 11 7 12 13 13 11 10
32 33 36 39 40 38 38 36 33 30 28 26 24 23 22 21 20 20 21 15 14 10 10 9 8 8 11 11 10 7 4 2 4 6 9 12 12 10 7 10 8 10 11 18 12 13 13
34 33 34 35 39 40 39 37 35 32 29 26 24 22 22 20 20 18 17 12 10 7 8 8 9 10 9 10 11 6 5 3 4 6 7 8 9 9 9 14 13 13 15 8 10 15 12
39 36 35 34 35 39 40 38 36 33 29 27 25 22 21 20 18 16 14 10 7 6 9 11 11 11 9 8 12 6 5 2 6 4 5 7 6 7 9 14 18 16 5 14 12 12 14
43 41 39 37 35 36 39 38 36 34 30 28 25 22 20 19 17 14 12 8 4 5 11 13 6 8 10 7 16 7 3 3 4 5 6 7 10 14 15 13 7 9 9 9 11 9 12
48 45 43 40 39 36 36 38 38 36 31 29 25 22 20 19 16 13 12 9 11 10 8 10 18 9 11 12 13 11 6 5 8 7 10 10 12 9 10 14 10 9 10 9 6 10 11
53 50 47 44 42 39 36 38 39 37 33 29 27 23 20 18 15 13 12 11 9 9 8 10 18 12 7 11 15 13 11 9 14 8 13 10 11 11 9 14 10 8 6 7 10 14 15
58 55 53 49 45 42 38 37 40 39 36 31 28 24 21 18 15 14 13 12 10 11 7 13 16 13 9 9 10 14 15 9 9 11 2 6 6 12 6 10 10 10 10 8 8 16 21
64 59 56 52 49 44 41 37 40 41 37 33 30 26 22 20 16 19 20 16 13 14 5 12 14 12 11 10 4 16 18 11 10 17 12 2 10 8 10 6 10 5 8 7 9 16 12
69 66 60 56 52 49 45 41 42 42 40 35 32 28 25 21 21 24 21 18 16 9 9 11 15 15 13 12 10 8 21 15 8 11 12 10 10 7 4 8 7 5 5 7 9 15 10
71 68 64 60 56 53 50 46 44 44 41 38 35 30 25 24 28 28 24 19 10 14 7 12 18 16 15 12 11 11 20 20 17 13 13 10 8 7 5 4 4 6 8 12 8 7 9
71 69 67 63 60 56 56 51 47 47 44 40 37 33 29 30 32 30 27 19 14 14 14 7 15 17 17 14 12 12 15 23 22 17 15 17 10 11 9 9 5 9 13 13 7 7 8
68 70 69 65 63 61 59 57 50 50 46 43 40 36 34 35 35 34 30 25 23 10 16 10 13 17 18 16 10 14 15 20 19 19 16 15 7 10 12 8 6 8 10 9 6 6 8
65 71 72 71 68 66 63 61 55 52 49 47 43 37 35 41 39 36 30 28 22 14 13 13 17 18 19 17 15 17 16 15 15 18 15 5 3 5 8 8 10 10 4 5 8 3 6
60 67 54 56 72 73 69 65 59 54 52 46 44 40 40 46 41 39 33 30 21 16 13 15 18 15 17 17 17 18 16 10 15 16 19 12 12 5 6 10 12 8 12 9 5 5 3
62 57 58 56 51 61 74 65 65 56 53 52 48 37 47 49 46 43 35 29 18 18 12 14 16 15 16 16 17 17 16 13 16 12 12 13 9 10 13 11 14 9 10 12 9 6 6
51 46 53 57 53 49 46 64 70 57 59 58 50 35 44 51 46 35 29 28 23 18 15 17 16 14 14 16 14 15 17 18 13 17 13 12 11 13 10 10 11 12 12 12 10 7 10
43 44 45 55 55 50 46 70 73 60 63 59 41 38 46 57 41 34 33 31 26 21 16 17 15 13 13 15 14 13 14 17 18 17 16 14 15 15 15 8 2 10 13 14 15 11 11
41 38 45 49 55 53 51 72 68 63 64 59 44 44 49 56 50 37 33 29 28 23 17 19 18 18 15 12 12 12 13 15 17 18 15 14 13 17 19 11 10 10 10 13 20 21 18
33 42 40 43 46 56 63 73 62 63 64 62 43 43 36 33 45 34 36 32 31 23 20 22 18 19 17 14 13 10 14 12 13 17 15 16 10 13 13 13 16 14 16 16 18 20 22
27 40 38 41 40 59 58 76 57 66 69 69 43 39 37 36 49 38 37 30 32 24 21 20 19 17 16 15 14 13 14 13 11 11 13 10 11 9 9 8 8 15 22 22 21 21 20
34 36 37 42 43 46 55 63 72 68 72 63 42 38 43 38 52 42 32 28 31 23 18 20 16 15 17 16 14 13 12 13 12 13 12 14 11 10 5 4 1 10 12 13 13 16 18
36 37 39 39 40 51 54 69 74 69 70 55 35 35 37 33 42 37 31 30 27 24 17 23 20 15 11 13 14 12 11 13 14 14 15 13 12 7 5 8 11 13 12 11 7 6 7
33 35 37 37 45 64 38 63 69 70 68 50 42 33 28 39 30 38 31 30 28 26 25 21 17 13 11 14 14 9 8 9 6 5 15 14 14 10 8 4 4 2 7 8 8 7 3
33 36 35 44 45 55 58 69 70 69 65 39 43 30 20 29 24 29 36 30 25 23 21 24 21 16 12 16 17 9 9 8 6 7 7 14 15 15 11 7 6 9 12 9 6 4 10
33 32 41 52 41 53 71 68 67 69 56 44 44 34 26 24 28 30 26 28 26 24 27 26 22 21 20 17 15 10 10 11 8 7 7 6 7 8 8 6 6 6 4 2 7 15 17
42 44 40 56 58 65 69 66 64 64 51 42 38 33 30 23 26 22 30 27 32 25 23 22 17 18 20 14 15 12 11 9 12 6 11 6 9 5 7 3 9 9 14 14 19 22 22

GFSGBSN_700_spd_036.txt.gz
Wind_Speed
36 37 37 36 35 34 33 31 30 28 27 26 24 24 23 24 24 22 25 25 24 23 22 19 15 10 8 7 8 11 8 7 5 4 6 5 7 7 10 10 10 15 11 11 7 6 8
30 32 35 36 36 36 34 33 32 30 28 26 25 24 23 23 23 21 23 24 23 20 19 16 12 9 8 7 2 10 4 3 5 7 7 6 5 6 11 9 11 11 9 8 5 6 10
30 29 30 31 33 36 36 35 34 32 29 26 25 25 23 23 22 21 21 22 19 17 14 11 8 8 9 8 11 4 1 4 5 8 3 5 7 6 2 6 9 8 11 6 9 4 9
33 31 30 30 28 33 36 36 35 34 31 27 25 25 24 22 21 20 20 20 16 13 10 8 6 7 8 13 9 5 6 2 2 6 10 6 12 11 9 5 7 8 10 10 5 10 7
36 34 33 31 29 30 31 36 35 35 33 30 26 24 23 22 20 19 19 17 14 11 9 7 5 7 6 9 8 4 5 2 9 4 6 8 7 7 4 6 8 9 11 15 11 13 9
41 39 36 35 32 31 30 31 34 36 34 31 27 24 23 20 20 19 17 14 11 9 7 5 5 3 7 4 6 5 8 7 4 3 5 5 5 6 8 10 8 9 13 14 12 13 13
46 42 40 39 37 35 32 30 31 35 35 32 28 24 21 19 20 18 13 11 4 10 8 7 6 6 6 4 9 8 8 5 6 6 6 7 8 12 12 8 13 6 11 10 11 8 11
52 49 46 42 41 38 36 33 31 31 34 33 29 25 21 20 20 17 12 10 4 12 10 12 11 16 12 10 8 9 9 6 7 12 6 7 12 3 7 9 10 10 11 6 5 5 9
58 54 50 47 44 41 39 38 34 30 34 34 31 26 22 21 20 15 12 12 14 7 9 7 12 20 6 10 12 14 11 10 7 7 12 5 1 8 7 9 11 13 7 7 11 6 9
64 60 56 52 48 45 43 41 37 33 32 36 33 28 23 23 19 14 9 13 10 6 4 9 16 18 14 12 12 11 16 10 6 9 7 8 6 8 6 13 13 11 2 10 11 10 12
69 65 62 58 54 50 46 43 41 37 33 36 34 29 25 25 18 14 16 16 10 7 4 8 15 10 12 16 3 17 12 13 8 9 11 5 13 12 12 9 7 4 11 7 9 12 9
74 70 66 63 58 54 50 47 44 41 36 38 36 32 31 24 19 21 18 16 12 6 8 8 15 14 17 16 13 7 16 15 4 8 11 7 7 6 11 11 8 6 6 9 11 14 5
79 76 72 68 65 59 54 49 47 45 39 40 39 35 31 27 20 23 19 20 10 13 9 11 16 15 19 17 15 15 12 20 14 9 12 12 15 8 9 9 8 7 10 5 9 9 5
79 80 75 72 69 64 59 53 50 48 43 43 40 39 35 30 29 29 27 24 15 10 20 3 13 16 20 17 15 15 15 21 22 16 10 12 3 10 12 11 4 8 12 5 1 2 11
73 77 77 75 72 68 63 58 54 52 46 44 41 42 41 33 30 34 32 31 23 16 17 12 12 20 21 18 12 15 17 20 21 21 14 9 9 9 3 8 5 5 5 6 10 9 6
50 64 69 76 76 71 68 63 59 57 48 46 44 46 40 36 36 39 37 35 25 22 7 16 17 18 20 19 16 13 15 16 20 19 20 11 12 16 13 13 10 9 7 4 3 2 5
48 50 52 65 77 77 73 68 64 62 51 47 42 47 41 39 41 45 45 34 25 22 14 10 18 17 19 17 16 14 13 10 14 12 14 9 21 11 7 8 8 5 9 10 10 8 1
52 49 61 63 64 74 76 74 69 64 55 47 47 50 44 44 48 53 45 35 28 22 18 18 16 19 18 16 16 17 16 16 14 12 11 13 7 8 10 7 8 7 8 11 9 8 5
50 52 53 58 66 60 57 74 73 65 62 54 51 44 33 45 56 44 41 34 30 25 19 19 17 17 15 16 13 16 13 12 13 15 11 8 7 11 14 8 10 16 14 14 10 8 8
53 52 51 56 68 55 53 48 60 64 67 57 52 42 34 47 54 42 47 33 31 28 20 20 18 17 14 16 15 12 14 12 12 14 18 14 10 13 13 15 4 16 12 13 14 11 14
48 48 48 51 50 52 54 51 46 66 69 51 53 51 49 52 59 43 36 30 32 30 27 20 21 21 17 15 17 13 15 12 15 18 17 16 14 15 18 19 8 10 9 9 15 18 20
42 42 42 46 42 52 49 50 51 74 73 57 62 44 43 18 50 43 40 40 34 32 26 22 21 21 18 13 16 14 14 16 12 17 17 16 11 13 14 12 14 16 17 16 17 17 19
35 35 34 42 47 47 49 53 55 80 77 66 61 47 31 37 40 50 49 38 35 29 26 22 24 20 20 16 13 11 13 12 10 11 17 11 12 8 8 9 10 14 21 19 21 19 18
28 32 31 39 41 47 53 49 56 78 72 65 58 48 31 41 38 62 43 34 32 35 23 23 22 20 24 19 15 11 9 14 14 12 10 12 11 11 6 6 2 10 7 11 9 9 11
29 30 37 38 41 39 52 54 54 76 70 65 47 37 38 39 44 46 37 36 32 30 26 23 20 23 23 19 16 10 11 12 10 12 13 10 12 11 6 10 11 13 7 6 4 2 3
31 27 36 36 39 46 45 59 61 68 64 73 40 39 31 38 46 51 41 37 34 36 26 31 27 20 19 17 12 9 8 10 9 4 13 14 14 12 9 4 4 2 8 6 4 4 3
32 29 36 36 44 42 40 52 59 59 72 61 41 42 21 48 35 47 45 41 29 35 22 33 29 22 19 15 15 10 11 9 9 9 8 12 16 15 11 6 6 7 10 12 4 3 7
33 33 35 39 40 39 41 52 51 67 76 56 46 27 34 25 31 45 38 37 29 28 23 29 27 23 20 14 14 10 10 13 9 7 7 6 8 10 12 6 7 10 6 4 9 10 14
33 33 35 33 32 36 43 61 56 82 59 59 39 40 35 31 39 49 44 41 32 28 25 26 26 21 19 15 12 13 12 13 15 8 10 7 8 5 7 1 7 8 10 8 12 17 19

GFSGBSN_700_spd_039.txt.gz
Wind_Speed
28 29 31 33 35 36 36 35 35 32 29 28 27 24 22 21 21 20 21 23 23 22 22 22 18 12 8 4 8 10 9 9 4 2 6 8 6 3 5 2 7 13 16 9 3 2 10
26 25 25 26 30 32 34 35 35 35 32 30 27 26 23 21 20 19 20 22 22 21 19 18 14 9 6 3 6 6 5 7 4 5 6 10 11 2 13 16 15 14 9 9 4 9 6
29 28 25 25 24 25 27 33 34 34 34 32 29 27 24 21 20 18 20 21 21 19 17 15 11 7 5 7 8 5 3 3 3 7 12 10 6 10 9 11 6 8 5 7 6 8 6
33 31 30 28 26 24 23 25 30 33 34 33 31 28 25 22 19 17 18 20 19 17 15 12 9 6 2 7 6 3 6 4 9 1 7 2 11 13 12 8 2 6 7 8 5 12 8
38 35 33 32 30 28 24 24 23 27 32 34 32 29 26 22 19 17 17 18 17 15 13 10 8 5 2 3 4 5 2 4 9 10 3 9 4 11 8 4 4 7 6 8 10 11 7
45 41 38 35 34 32 29 26 24 24 25 32 33 30 26 22 19 17 17 16 16 14 12 8 6 2 3 5 5 4 1 2 10 5 4 4 4 4 4 8 6 6 13 11 18 15 13
49 47 43 39 36 34 33 31 28 25 23 27 31 30 25 22 20 16 16 14 13 14 12 9 9 9 10 6 3 7 6 5 2 8 4 7 6 6 4 7 9 4 8 11 11 16 17
55 52 49 45 41 38 36 34 33 28 26 24 26 29 25 22 20 17 15 12 18 18 14 12 12 18 16 14 11 10 10 8 6 12 6 4 7 8 5 6 4 13 8 14 6 7 15
61 58 55 51 47 43 39 37 34 33 29 25 25 27 25 23 20 17 14 10 15 13 16 11 11 18 12 11 10 12 14 9 10 11 10 8 5 3 11 10 16 20 15 19 13 5 8
66 63 60 57 52 48 44 40 37 36 32 28 27 26 26 25 20 16 11 10 13 10 8 11 11 17 20 7 11 16 18 11 17 14 9 7 9 7 8 11 9 16 12 6 16 14 6
72 69 65 61 59 54 49 45 41 38 36 32 30 26 27 28 21 18 16 15 10 5 3 2 12 4 17 15 9 15 8 22 16 8 8 3 9 8 11 11 9 13 13 11 10 13 14
77 74 71 67 64 60 55 50 46 42 39 36 33 29 30 28 21 18 15 14 15 6 8 10 11 15 15 12 10 6 12 16 6 12 10 8 9 16 12 10 13 4 9 8 9 6 2
83 79 75 72 69 65 61 56 52 47 43 40 37 32 30 30 22 25 21 18 12 8 8 13 18 13 18 18 12 9 17 17 17 10 13 11 5 4 11 13 10 11 14 2 3 4 6
76 82 81 76 72 68 64 60 56 51 47 44 40 34 32 31 30 26 25 25 13 11 17 10 18 17 17 19 17 15 16 15 22 18 10 14 8 17 4 15 5 9 10 2 5 2 4
50 63 80 79 77 71 68 64 59 55 50 45 41 41 39 33 32 30 33 33 20 19 22 12 15 19 17 17 18 16 19 23 23 24 24 11 9 13 7 4 7 3 3 2 5 5 2
61 57 54 76 77 75 71 68 63 57 52 48 46 45 43 34 37 36 41 37 26 23 13 15 16 18 20 20 21 17 20 14 21 23 19 16 5 6 15 12 10 12 8 3 4 4 4
61 57 57 58 67 76 73 71 67 61 57 52 48 44 44 39 40 42 54 39 34 33 18 7 17 16 18 22 22 22 16 19 17 21 28 15 8 3 17 20 14 14 10 9 7 4 4
59 58 56 44 45 57 62 72 70 66 61 56 51 48 39 44 47 52 55 42 39 33 26 17 13 19 19 22 24 22 19 9 18 16 13 11 3 15 20 9 8 12 8 6 12 5 1
54 56 53 44 42 46 43 60 60 68 66 60 56 48 24 44 53 58 52 50 42 36 29 15 22 19 18 17 11 24 21 16 16 17 11 14 9 10 9 10 9 12 15 15 12 11 11
53 54 49 47 44 48 49 47 50 48 65 59 57 40 44 48 55 53 55 52 50 39 29 18 18 24 18 12 20 17 17 17 23 20 19 15 9 10 10 8 8 11 7 10 14 11 10
46 50 52 48 44 44 51 52 54 47 53 63 59 50 52 55 58 51 44 47 49 43 35 23 21 25 20 17 21 16 17 15 18 16 16 18 20 16 15 16 13 10 15 8 14 16 19
48 50 55 48 45 44 52 53 55 52 57 66 56 51 55 33 48 46 43 52 54 43 36 28 23 23 23 19 23 21 15 16 15 15 17 18 17 17 15 18 16 13 13 19 15 14 14
44 49 51 46 47 45 50 56 57 56 65 74 58 52 47 59 24 51 55 52 49 40 35 24 23 20 25 23 20 20 24 20 16 14 16 17 15 14 13 15 18 19 24 22 20 21 18
40 45 48 45 44 45 49 58 63 60 71 74 64 55 38 49 43 43 52 54 45 40 34 23 26 25 25 27 20 19 16 12 20 14 11 18 14 12 8 9 0 14 8 8 6 4 6
38 38 38 39 40 41 46 58 61 57 72 78 57 57 32 40 49 32 54 52 40 39 33 30 33 30 28 25 25 17 13 12 14 19 15 17 17 11 8 15 10 12 10 11 10 6 8
37 34 33 31 32 43 49 56 56 58 77 69 63 60 40 25 43 43 37 52 45 40 36 38 32 34 30 28 23 13 9 9 9 15 20 19 19 17 12 5 7 7 10 10 9 8 10
33 32 30 28 32 48 50 51 57 61 81 60 68 44 50 12 31 39 44 57 46 38 37 37 33 35 33 37 23 12 11 12 12 15 15 19 19 20 18 10 7 8 10 10 9 7 12
27 26 28 31 36 47 43 52 59 57 77 69 61 55 33 15 21 37 35 53 44 39 40 38 37 30 33 32 22 13 10 18 11 16 13 12 16 16 13 9 9 13 13 12 12 15 14
29 30 34 32 36 39 44 51 49 52 83 68 56 47 35 30 26 37 43 44 50 38 36 35 38 26 24 24 16 16 13 22 19 13 11 12 11 10 8 5 7 10 14 14 13 14 17

GFSGBSN_700_spd_042.txt.gz
Wind_Speed
28 29 29 29 32 33 34 35 34 33 32 31 29 27 25 24 22 21 21 21 20 21 21 20 18 17 10 5 8 8 9 6 3 2 5 9 6 3 3 8 11 13 16 7 4 10 6
28 27 27 25 26 26 28 31 33 33 33 31 29 27 26 25 23 21 20 20 19 20 20 18 16 14 8 7 7 7 6 6 2 2 4 9 4 3 8 11 11 13 0 7 9 6 4
31 29 28 26 24 23 22 23 26 30 32 32 30 28 27 25 24 21 20 19 19 19 18 15 14 11 7 7 8 3 2 9 11 5 13 4 6 5 11 10 6 8 6 6 8 10 5
37 34 32 29 27 25 23 21 21 23 26 29 30 29 29 26 24 21 19 18 19 19 17 14 12 9 6 8 4 3 6 10 13 6 10 3 5 10 12 10 3 4 2 13 15 11 2
43 40 36 33 31 29 26 24 22 21 21 22 27 29 28 26 24 20 19 18 19 18 17 13 10 7 2 1 3 5 8 6 8 7 4 6 7 7 8 6 2 7 4 12 15 10 9
48 45 43 39 35 32 30 27 25 23 21 21 21 24 26 26 23 19 18 19 19 18 16 13 10 5 5 9 11 5 5 5 1 6 7 3 6 2 5 6 6 6 7 11 5 14 16
54 51 48 45 40 37 33 31 29 27 24 22 19 19 21 24 22 18 18 20 18 18 15 12 10 11 13 11 12 7 8 5 3 5 3 5 3 3 9 3 3 7 10 12 9 9 16
57 55 53 49 45 42 38 34 32 30 27 24 21 18 17 20 20 18 18 18 17 19 17 14 13 15 15 13 12 14 12 7 5 4 7 7 5 6 6 5 4 3 7 14 12 12 23
63 60 57 54 50 46 42 38 35 33 31 27 24 20 16 18 20 18 18 17 21 16 18 11 11 14 18 15 10 18 15 9 7 10 10 9 11 9 8 5 5 12 11 10 14 11 10
68 66 62 59 56 52 47 43 39 36 33 30 27 23 17 18 19 18 18 18 17 12 10 9 15 16 24 17 17 22 18 15 14 10 13 12 8 9 10 9 6 15 14 17 17 9 11
75 72 69 65 61 57 54 49 44 40 37 34 30 26 20 19 17 18 19 18 14 9 3 4 14 9 22 19 8 24 18 18 18 12 10 9 9 16 13 11 7 11 11 15 15 15 9
80 78 74 71 67 63 59 55 49 44 40 37 33 30 25 20 18 22 18 16 14 7 8 11 13 14 26 22 16 22 19 9 15 14 14 10 7 10 9 12 15 15 9 8 12 6 3
79 81 80 76 73 69 64 60 55 49 45 41 37 34 29 23 22 25 21 18 13 8 7 15 17 14 20 23 20 16 17 19 15 8 14 13 3 3 10 13 15 12 10 3 3 2 5
57 75 77 80 77 74 70 64 60 55 49 45 41 38 34 25 28 28 26 23 14 9 18 6 22 17 20 20 20 16 12 16 16 19 6 14 7 10 6 10 5 5 8 4 4 2 4
50 60 63 72 79 76 74 70 65 60 54 50 45 42 40 27 33 31 33 36 18 14 22 11 22 24 23 18 19 17 18 21 15 23 23 7 9 6 8 3 5 7 10 6 6 2 3
50 44 53 60 61 78 76 73 70 65 59 54 50 46 45 31 38 36 40 42 29 29 12 15 18 25 24 20 25 23 20 19 21 22 22 23 7 13 11 14 12 17 7 4 5 3 3
48 49 58 57 57 55 73 75 72 67 62 57 51 48 48 37 44 44 51 41 34 35 23 8 14 18 24 22 23 24 20 21 17 17 22 28 21 13 16 22 24 15 12 13 11 4 4
48 49 61 61 58 52 51 70 73 71 65 61 55 51 44 43 46 54 59 45 37 39 37 22 15 11 17 24 24 23 21 24 16 20 22 27 19 13 14 6 15 9 15 18 12 6 4
50 50 53 66 61 55 51 53 68 68 68 63 57 46 27 45 54 60 56 46 47 43 43 37 24 11 11 20 25 22 25 23 21 14 24 25 13 9 7 13 18 20 15 17 13 14 15
52 49 52 58 54 58 50 45 52 51 54 62 51 42 38 50 58 57 60 55 50 47 48 40 32 22 17 20 9 19 24 16 16 17 22 19 17 19 20 12 6 10 15 11 14 13 12
52 50 52 56 55 57 50 46 51 54 50 57 55 46 57 55 65 64 50 54 53 53 47 39 33 26 18 18 13 16 21 22 27 25 24 21 21 18 13 14 10 8 9 12 10 8 14
52 51 49 52 54 50 46 54 55 57 55 63 53 47 51 44 58 62 55 57 54 51 47 43 34 25 19 23 19 13 17 25 21 25 24 22 19 20 21 22 22 14 14 17 19 15 13
51 51 44 45 49 43 52 62 59 62 61 69 52 49 41 55 33 60 70 57 53 49 48 44 33 25 23 23 19 16 14 17 18 20 22 21 23 20 19 20 19 19 25 22 22 25 19
48 48 45 42 40 54 41 50 53 62 66 67 55 52 46 44 50 48 58 52 51 52 47 40 35 27 20 20 22 18 17 18 19 20 20 15 19 18 12 12 1 13 14 12 13 15 15
43 44 46 37 52 46 49 49 57 66 61 67 62 57 34 49 50 40 28 50 47 48 46 44 39 31 24 20 24 23 20 20 19 20 18 16 18 12 7 14 11 10 9 14 14 12 12
39 38 39 41 58 46 48 50 53 67 62 66 64 58 35 39 47 51 31 24 48 48 44 44 39 27 26 29 28 20 14 14 11 14 20 21 21 21 12 5 7 13 20 17 16 15 17
35 36 38 43 54 49 46 49 58 60 65 72 71 54 33 37 35 35 49 35 39 47 43 44 40 27 35 33 27 19 19 22 16 19 21 25 27 25 24 15 11 17 12 15 17 15 19
35 35 37 42 43 43 45 47 56 60 66 74 69 60 33 38 28 40 33 47 39 48 50 49 39 36 41 31 31 22 12 21 18 19 23 27 25 22 21 14 13 16 21 23 17 17 17
33 33 34 33 36 36 42 49 54 63 67 69 76 65 35 39 18 37 43 49 45 42 48 41 43 34 31 34 22 25 17 21 20 18 21 17 21 18 17 9 14 13 20 20 18 13 11

GFSGBSN_700_spd_045.txt.gz
Wind_Speed
32 31 30 31 31 31 33 35 35 35 34 34 32 30 29 27 25 24 23 21 21 20 20 20 19 16 13 9 8 9 9 6 1 1 4 5 3 2 2 5 7 7 13 4 2 2 6
34 32 31 30 28 28 27 29 31 34 34 34 33 32 30 28 26 25 23 21 20 20 19 19 18 15 12 10 8 7 7 4 4 4 6 9 4 4 4 6 7 13 1 8 2 3 3
38 36 33 31 29 28 26 24 25 28 29 31 32 32 31 29 27 26 23 21 19 19 19 18 16 14 11 9 6 4 2 3 10 11 11 2 3 1 6 5 6 3 8 3 1 2 4
43 41 39 35 32 30 28 26 23 23 23 24 26 29 29 29 28 26 23 21 20 19 19 17 15 14 8 6 5 5 8 12 12 12 7 2 5 9 8 7 8 13 2 6 7 9 1
48 47 44 41 37 33 31 28 27 23 22 22 19 21 25 27 28 26 23 22 20 20 18 16 14 13 7 6 9 9 11 10 9 7 9 8 5 5 9 5 5 10 4 10 12 7 6
52 51 49 46 43 39 35 31 29 27 24 23 20 17 18 22 26 25 22 22 21 20 19 16 15 12 10 12 15 16 14 12 6 3 2 3 3 2 3 5 4 6 5 12 10 5 13
55 54 53 51 48 45 41 36 32 30 27 24 19 17 16 20 21 23 21 21 21 20 20 15 13 11 10 13 14 13 12 10 7 4 2 1 2 4 5 4 1 4 6 11 9 9 10
62 58 56 55 53 50 46 42 38 33 30 27 22 19 16 16 18 19 19 22 21 22 21 16 17 16 16 17 18 15 17 13 10 6 4 3 3 5 5 0 1 4 6 7 10 11 13
69 65 61 58 56 55 51 46 43 39 33 29 24 21 18 16 16 17 22 23 19 18 21 16 21 17 21 20 17 21 21 16 10 6 4 7 9 12 11 10 8 9 9 7 9 14 12
75 72 68 64 59 58 56 51 47 43 38 33 28 24 20 19 16 17 23 20 16 14 11 14 17 17 27 24 19 22 21 16 15 8 8 9 6 10 12 14 7 9 10 11 17 17 10
76 76 74 70 66 62 59 56 51 47 42 37 32 27 23 21 17 20 20 16 13 10 3 5 15 12 25 25 10 26 23 20 16 11 11 6 4 10 12 9 8 5 7 12 17 11 14
63 74 76 76 72 67 63 59 56 51 46 41 36 31 27 23 19 19 17 15 12 8 8 6 14 17 28 28 13 22 25 19 14 17 14 16 10 7 12 13 12 10 10 13 8 10 2
51 57 72 76 76 73 68 63 60 56 51 45 41 36 32 25 20 23 20 18 12 9 8 11 19 18 25 27 20 26 28 25 19 17 20 17 13 10 14 12 15 13 10 3 2 1 5
51 51 53 64 75 77 72 69 64 60 55 49 45 41 36 30 25 28 25 24 15 8 20 9 20 19 21 28 25 25 25 20 22 15 12 13 8 8 7 12 15 8 4 3 3 2 4
54 51 50 51 58 73 76 72 69 64 59 54 49 46 42 34 30 32 33 35 17 17 16 17 20 23 23 25 26 25 23 23 25 20 18 10 10 12 7 6 12 8 6 7 6 1 1
56 53 50 48 50 59 62 74 70 68 63 59 54 50 47 34 34 37 43 42 28 31 9 25 13 24 27 25 26 24 22 22 21 23 19 20 7 9 15 10 9 9 7 4 4 1 2
57 56 52 48 48 49 59 55 71 69 66 62 58 54 51 40 39 41 56 45 31 32 23 11 20 19 28 26 27 27 22 25 20 20 20 22 19 16 18 16 16 17 18 14 12 4 4
60 58 56 51 48 48 53 53 49 60 64 63 62 58 53 47 45 48 59 43 35 41 33 28 19 17 23 30 28 30 29 25 16 20 21 22 13 19 22 21 20 25 26 17 10 6 6
63 59 57 54 49 46 52 58 54 46 49 62 64 54 42 46 56 60 54 54 48 44 44 39 27 18 16 15 32 26 28 26 23 18 17 23 19 20 19 20 12 16 13 16 17 18 16
66 61 56 53 48 46 49 55 53 43 49 53 59 42 34 42 60 60 59 45 52 48 43 42 41 27 17 13 13 28 26 27 26 26 20 22 24 21 23 24 20 23 22 15 17 19 20
64 63 56 54 50 53 58 53 53 51 52 55 55 43 53 53 64 64 52 54 52 52 50 38 44 45 34 16 14 15 20 25 25 21 20 22 22 21 20 17 17 17 13 15 18 17 18
61 61 58 55 52 57 56 58 51 44 58 60 59 42 52 47 62 61 48 56 48 55 49 50 47 38 37 27 16 9 17 21 31 23 29 27 21 19 17 17 17 19 19 18 18 19 19
57 59 59 54 54 51 58 60 53 46 61 65 62 43 49 53 45 54 72 62 57 50 52 46 32 40 32 27 19 17 14 19 20 20 33 29 26 20 18 19 22 23 30 31 28 26 26
52 53 55 54 51 52 55 57 55 49 65 66 60 56 44 46 48 66 58 62 57 57 50 43 42 31 35 23 19 21 19 19 21 24 27 26 24 19 17 18 5 31 31 30 31 33 33
50 53 51 50 50 52 54 54 50 49 71 49 51 62 38 45 51 47 51 45 53 55 50 46 41 36 28 24 13 17 22 25 25 27 29 25 23 16 11 18 19 11 17 18 22 21 18
50 47 49 47 46 46 48 50 51 55 75 59 47 61 49 33 45 51 34 39 42 49 46 47 39 28 35 24 25 24 16 16 16 19 23 21 19 20 14 7 8 19 19 21 17 15 18
41 45 44 45 40 39 41 47 53 72 74 49 60 61 63 39 32 30 47 38 17 29 43 48 42 39 34 26 32 28 25 24 22 27 23 25 24 26 26 16 15 18 15 13 22 19 22
38 39 43 40 34 40 47 47 61 67 69 47 60 61 62 41 32 37 37 33 31 29 40 39 36 45 39 33 37 26 16 26 26 26 30 30 28 25 26 20 15 16 17 24 20 25 16
33 34 38 41 37 50 48 53 53 57 66 47 67 61 61 47 22 41 40 46 46 39 31 36 36 33 34 33 32 30 18 24 27 25 25 29 27 23 21 23 21 14 18 24 26 17 13

GFSGBSN_700_spd_048.txt.gz
Wind_Speed
35 34 34 34 34 35 37 35 35 34 35 34 31 30 30 29 29 28 28 27 25 23 21 19 18 17 13 12 9 10 9 7 7 3 4 4 5 5 6 1 2 5 9 7 6 9 2
39 37 36 34 33 33 33 34 32 33 34 34 33 31 31 30 30 29 29 28 25 23 21 18 18 16 12 12 9 7 6 6 6 5 8 8 3 4 3 2 6 6 1 7 7 2 1
43 41 39 38 36 33 32 31 30 29 30 30 29 30 30 31 31 30 29 28 27 23 21 19 17 16 12 10 6 5 3 3 7 10 13 7 3 2 5 0 7 1 2 0 2 5 3
46 46 44 41 40 37 35 32 30 29 27 25 24 25 25 29 30 30 29 29 27 23 22 19 18 16 10 7 8 8 5 7 10 13 10 8 5 6 7 4 4 3 4 6 4 6 3
51 49 48 47 44 42 39 35 33 30 27 25 23 21 20 25 27 28 28 27 27 24 22 20 18 17 10 8 12 13 11 10 9 10 10 8 6 7 10 7 1 8 4 4 6 9 4
56 54 52 51 49 46 44 40 36 33 30 27 23 20 20 21 22 22 23 24 26 25 23 21 19 17 13 10 17 16 18 15 11 6 7 8 7 5 6 9 7 5 6 4 12 4 9
63 59 56 54 53 52 49 45 42 37 34 30 26 22 21 24 26 26 27 29 28 26 24 22 18 8 9 13 16 17 18 18 13 10 6 5 3 5 4 5 4 4 5 10 9 6 13
67 65 62 58 55 54 53 50 47 43 38 34 29 25 22 20 19 19 20 23 24 23 26 22 21 21 16 17 19 22 20 18 15 11 8 5 1 4 5 3 4 3 4 8 10 8 11
67 68 68 65 60 57 55 54 51 47 43 38 32 28 25 23 20 17 20 22 19 20 26 23 24 24 21 22 22 24 21 19 15 12 9 7 6 9 9 9 7 9 8 5 8 9 13
62 65 68 70 67 63 59 56 55 51 47 43 37 31 28 25 22 18 17 19 14 15 15 21 15 23 24 26 24 25 25 22 18 13 11 8 6 8 9 10 10 12 9 5 10 12 13
49 54 62 68 71 68 64 60 57 55 51 46 41 35 31 29 24 16 15 14 11 11 4 8 17 17 23 29 17 28 27 24 20 15 12 5 4 4 8 10 11 7 3 5 7 11 9
53 51 49 57 67 69 69 64 60 58 54 49 44 39 36 31 26 18 14 13 11 9 8 7 11 18 24 30 18 25 29 25 21 18 17 15 13 10 7 13 11 9 7 8 11 7 3
52 53 52 51 53 63 69 69 64 61 56 53 47 43 40 34 27 22 18 17 13 10 8 9 14 20 23 31 29 20 32 30 24 19 22 20 17 17 12 10 9 9 6 3 2 1 4
59 55 54 51 50 51 59 68 68 64 60 56 52 47 44 38 30 28 25 23 16 8 20 8 17 20 23 27 30 20 30 32 27 22 13 17 11 11 7 13 7 11 6 5 2 2 3
59 57 54 53 49 48 48 60 65 66 64 59 55 52 49 41 33 32 32 35 19 14 19 17 14 20 21 27 25 26 26 33 29 27 18 10 11 7 8 8 11 12 7 6 4 4 1
55 57 55 53 53 48 47 45 50 58 65 62 60 57 53 42 37 36 41 44 34 24 10 22 17 19 25 25 29 30 28 30 29 24 23 15 8 9 6 12 8 9 6 3 3 2 3
57 55 56 55 55 52 46 45 55 42 53 63 61 61 57 48 42 42 52 47 35 30 21 10 18 13 19 26 27 31 23 21 30 25 24 26 20 15 10 13 11 13 14 11 9 4 4
58 59 61 57 57 54 47 45 41 56 42 44 59 62 59 51 48 53 55 49 29 38 32 24 13 19 16 23 27 30 28 30 22 20 24 24 13 23 24 17 18 17 16 19 16 6 7
60 59 61 62 59 55 49 46 43 50 49 50 54 56 45 53 55 62 52 49 49 44 40 35 27 16 13 14 18 27 26 30 29 17 21 25 21 19 14 19 23 23 21 18 19 17 14
61 56 60 66 62 57 52 47 51 50 49 49 49 42 33 40 61 64 58 52 52 49 45 41 36 32 17 13 13 17 27 26 31 25 21 25 28 25 23 24 18 19 21 19 17 14 16
61 52 59 68 66 59 56 50 52 57 47 53 52 44 51 56 65 69 52 54 51 51 51 44 42 43 29 18 8 14 20 28 28 28 28 28 27 27 26 23 20 18 21 25 27 23 21
57 50 55 64 66 62 57 52 51 59 55 55 53 45 48 50 69 65 52 55 47 51 40 50 45 38 41 34 14 13 11 20 26 25 25 27 21 22 22 22 20 18 19 16 14 17 21
53 51 50 60 61 60 53 54 51 65 60 66 58 48 51 48 53 64 74 65 54 49 52 40 36 42 38 40 29 23 21 19 15 23 26 28 28 23 23 20 19 22 24 24 25 28 28
50 49 49 56 57 56 56 51 57 66 66 63 61 58 46 38 44 72 64 64 56 55 52 47 41 29 35 38 21 26 25 23 21 22 27 33 31 25 18 17 4 26 27 26 31 33 32
46 48 47 55 55 55 54 53 53 59 61 61 62 55 50 45 42 50 56 39 48 47 47 46 39 36 15 20 27 27 22 25 26 22 26 32 28 24 15 18 23 20 26 23 16 20 22
42 43 43 51 53 54 49 55 55 55 49 53 65 53 54 19 49 42 44 37 42 50 50 51 40 19 40 29 23 17 10 16 20 24 27 29 29 31 16 7 8 26 19 22 22 31 25
38 38 44 51 52 48 44 53 52 55 51 49 61 52 59 30 28 37 43 47 37 38 43 46 44 38 30 26 23 32 28 14 24 29 23 29 27 27 26 17 17 20 15 14 17 26 17
36 36 45 47 46 45 43 51 56 55 50 54 47 54 53 48 23 23 38 44 37 35 40 36 27 38 39 40 33 19 22 22 22 27 33 34 31 26 26 18 15 23 22 27 26 19 17
34 40 40 40 43 43 41 46 52 54 50 44 52 55 53 48 31 28 37 30 37 31 29 22 27 30 41 31 29 23 20 19 26 29 31 34 35 32 28 28 27 18 15 15 19 22 18

GFSGBSN_700_spd_051.txt.gz
Wind_Speed
39 37 36 35 35 35 34 34 33 34 34 34 34 33 32 32 31 29 27 27 26 24 22 20 20 18 16 12 11 9 7 6 4 4 5 7 7 6 6 3 4 3 8 8 3 12 8
41 42 40 39 37 35 34 34 33 32 33 33 33 34 34 32 35 31 30 27 27 25 23 20 20 18 17 13 10 7 7 4 3 7 9 10 7 5 6 3 2 6 4 4 5 8 2
45 43 43 41 40 39 36 34 33 31 30 30 29 30 32 33 35 33 31 29 28 27 24 22 21 18 17 12 9 8 8 4 6 11 13 11 8 6 4 3 3 2 3 2 2 6 3
48 47 46 45 43 42 41 38 35 32 30 28 27 27 27 28 31 32 32 30 28 27 25 22 21 20 16 13 10 10 8 7 10 13 13 11 9 5 5 6 4 5 4 4 2 5 3
54 51 50 49 48 45 44 42 39 35 32 30 28 26 25 24 25 28 31 29 28 27 25 23 21 20 18 15 13 15 12 12 13 14 12 10 8 8 9 9 7 9 2 1 5 6 7
57 56 55 53 50 49 47 45 43 40 36 33 29 27 25 24 23 22 25 26 26 25 24 23 21 20 17 11 18 19 18 16 14 12 11 10 8 9 9 9 9 10 9 6 7 3 6
62 60 59 57 55 53 50 49 47 44 40 37 33 29 27 25 24 21 21 23 21 24 27 22 17 10 13 15 18 20 21 18 17 14 11 9 7 9 5 5 6 6 7 9 10 8 6
58 62 62 61 60 57 54 51 50 48 45 40 37 32 30 28 26 23 23 23 29 30 32 26 27 26 23 16 20 24 27 24 21 16 12 9 4 6 6 5 4 4 3 6 9 10 11
48 52 58 61 62 61 58 56 52 50 48 45 41 37 32 30 27 23 20 22 21 21 25 26 25 26 22 25 23 27 29 26 23 18 14 12 6 5 8 11 8 7 6 5 7 7 9
46 47 46 51 57 61 60 59 56 53 50 48 45 40 35 32 29 24 21 20 16 17 16 27 24 23 27 28 28 29 29 26 23 19 13 10 9 9 8 12 12 12 9 8 7 7 5
51 50 49 48 47 52 60 60 60 57 53 50 48 44 40 36 30 25 20 18 12 10 4 6 19 24 21 33 25 33 31 27 25 20 18 9 3 2 3 8 9 7 4 4 5 6 7
55 54 52 52 50 46 48 57 59 60 57 53 50 47 45 40 31 25 21 16 12 9 8 6 9 17 23 33 28 31 34 30 25 21 19 16 10 9 5 5 8 9 7 5 6 6 3
46 50 55 53 52 49 46 45 50 61 61 57 52 49 48 43 34 28 22 17 14 11 6 7 11 17 23 35 32 27 39 36 31 26 24 20 18 15 12 11 10 12 8 2 1 2 3
49 47 49 54 52 51 49 45 43 48 54 59 56 52 51 46 38 31 27 23 17 11 22 4 13 14 23 32 30 27 38 37 34 25 18 20 11 15 11 14 12 13 12 5 3 2 0
52 53 49 51 56 55 49 48 42 40 46 44 57 57 55 49 41 36 34 38 19 20 9 26 7 15 22 28 28 25 34 37 35 33 18 10 10 8 8 6 12 12 10 8 5 2 1
52 51 52 49 52 55 52 48 43 39 37 42 46 58 59 50 44 41 42 45 35 22 15 18 17 14 21 27 26 33 25 32 36 30 25 15 6 9 11 12 11 12 11 5 5 4 3
60 57 55 54 52 50 53 49 45 38 40 39 37 43 64 53 49 47 53 46 42 26 32 13 16 14 15 24 32 30 23 15 33 31 25 25 18 9 11 11 15 12 12 8 6 4 2
66 58 58 58 55 53 55 52 47 40 45 44 41 43 54 53 51 55 63 56 35 42 31 30 16 19 12 17 25 32 35 29 19 31 28 23 17 21 22 14 13 16 15 14 10 5 8
53 55 57 60 57 54 58 58 52 44 48 48 45 48 37 45 54 64 63 58 50 34 42 37 31 15 13 8 13 25 33 28 23 21 30 26 16 16 10 15 20 17 18 19 19 19 17
57 55 52 57 57 56 57 62 57 49 50 53 49 47 31 40 66 67 62 56 50 49 39 43 30 29 14 11 10 10 24 27 27 23 19 16 24 21 21 21 18 17 21 19 21 14 17
58 56 59 55 57 56 59 63 58 52 55 55 57 44 46 51 62 69 62 59 58 46 51 43 43 39 31 19 9 10 14 25 22 29 34 30 24 23 26 27 24 25 26 21 20 23 25
58 56 56 56 60 58 58 62 59 53 56 67 57 44 59 35 64 62 47 52 58 57 49 53 49 39 36 36 15 10 13 8 16 24 28 33 27 25 27 26 25 25 23 18 17 19 24
54 57 57 58 60 55 59 61 61 56 58 66 66 56 55 57 35 54 67 56 46 47 54 46 44 41 40 34 31 30 23 17 11 13 18 30 28 27 23 24 23 23 25 23 21 22 23
42 52 56 57 59 54 57 59 63 57 63 66 74 55 55 48 44 59 45 44 46 52 51 48 34 32 32 33 31 28 31 27 22 21 20 19 24 27 20 19 7 23 23 22 25 26 28
35 48 52 51 57 49 59 60 61 56 66 63 60 54 57 46 41 52 48 33 42 38 46 39 36 32 23 22 23 30 30 27 27 24 24 24 24 20 17 21 22 21 23 21 20 35 28
33 41 43 48 47 54 57 58 58 56 66 64 60 59 50 42 44 42 39 43 35 42 43 42 29 32 26 18 13 10 17 21 11 15 24 25 26 28 13 11 9 24 23 23 20 37 29
33 36 37 42 47 55 52 57 52 53 57 64 59 61 48 33 38 30 37 38 35 36 41 43 40 27 26 35 26 17 14 25 13 16 21 26 28 31 31 21 23 22 20 19 17 32 20
26 31 32 43 48 49 51 52 47 46 52 67 58 56 51 53 28 32 40 30 34 38 38 33 31 39 32 29 22 21 16 23 28 24 22 30 27 25 30 22 16 28 23 26 30 23 21
26 27 36 43 45 45 49 47 45 48 53 63 60 51 48 48 47 19 36 36 35 33 34 34 35 33 40 33 33 21 19 22 26 32 32 29 35 34 30 31 30 24 23 24 26 23 18

GFSGBSN_700_spd_054.txt.gz
Wind_Speed
38 38 38 36 36 35 34 33 32 31 32 32 31 32 32 32 31 30 31 30 29 27 27 23 20 19 16 14 12 13 11 9 6 5 6 8 9 8 5 6 6 7 9 11 12 15 10
40 40 39 39 38 38 37 35 34 33 32 31 31 30 32 32 32 32 31 32 29 29 28 24 22 20 18 15 13 12 11 9 8 8 9 10 10 9 7 6 3 9 7 3 11 13 6
43 43 42 41 40 39 39 38 36 34 33 33 30 30 30 30 31 32 32 31 30 29 28 28 24 21 20 15 13 11 12 10 9 11 13 12 9 8 7 5 7 7 3 2 3 5 4
48 47 46 45 44 42 41 40 39 37 35 34 32 30 30 29 28 29 30 30 29 28 29 28 25 23 22 16 13 13 14 12 11 14 15 13 10 8 7 9 6 5 8 9 3 5 5
51 50 50 49 48 46 45 42 40 40 38 35 33 31 30 29 28 28 26 26 27 28 26 25 25 22 23 20 16 16 16 14 15 18 16 13 10 9 9 9 10 9 11 5 5 5 5
54 54 53 52 51 51 49 47 44 42 40 38 36 33 31 30 28 27 25 24 23 24 24 24 21 20 20 13 13 19 19 18 19 18 15 12 10 8 8 9 13 10 11 8 7 6 7
52 53 54 54 55 53 52 50 49 46 43 40 39 36 33 30 29 27 24 23 21 22 23 23 16 15 19 12 16 21 22 21 19 17 13 13 9 11 8 9 12 8 9 8 5 7 6
42 45 51 52 53 54 54 53 52 50 47 43 41 39 36 32 30 28 25 25 24 28 32 29 29 29 23 16 18 25 26 26 24 17 15 12 12 9 8 7 7 8 10 10 9 10 10
43 42 41 41 45 50 53 53 54 53 50 47 43 40 39 35 32 28 27 27 23 26 31 31 31 34 28 29 25 29 32 27 24 19 17 14 7 9 9 9 10 9 11 8 8 8 11
49 48 46 43 40 39 41 48 51 53 53 50 47 43 41 38 36 29 28 26 21 21 18 27 24 28 28 27 32 27 33 30 25 22 17 16 15 15 12 13 13 12 9 9 8 9 12
46 50 50 49 47 43 39 39 40 47 53 54 51 46 43 40 38 31 28 23 19 14 6 9 17 21 27 32 24 32 34 36 25 23 23 16 13 12 9 10 12 10 7 5 8 12 9
42 43 46 50 51 50 46 43 40 38 42 53 54 51 46 43 39 33 29 21 16 7 10 6 9 15 25 28 27 24 36 36 25 22 24 16 14 10 8 5 8 10 6 5 7 9 12
43 42 44 44 46 51 52 48 44 41 37 42 52 52 49 44 40 36 32 23 13 18 7 9 10 14 19 26 28 26 42 42 31 27 26 22 19 14 12 8 9 11 9 9 7 8 8
47 45 43 42 44 44 49 52 48 42 38 34 39 48 46 48 42 38 33 28 21 17 27 8 10 10 14 20 22 23 32 36 32 26 21 24 18 20 15 14 11 15 15 9 5 4 2
49 49 50 46 44 45 44 48 50 43 40 34 33 44 50 40 44 41 39 36 36 28 19 20 7 11 17 22 18 23 30 38 34 31 21 24 19 11 16 14 12 13 16 12 5 6 5
50 49 50 50 48 45 45 44 48 44 38 35 32 35 51 41 37 43 47 52 37 26 26 24 22 10 14 24 22 24 27 30 33 31 25 10 13 16 14 14 15 11 14 10 10 5 6
49 48 48 48 48 46 45 44 44 47 38 33 33 38 50 56 33 41 47 61 43 27 28 25 18 16 11 19 28 25 20 13 34 33 30 18 14 10 15 16 13 15 14 11 7 6 4
57 57 54 53 53 50 48 47 44 48 41 38 38 46 48 43 41 47 53 56 31 36 31 31 25 22 15 16 21 27 31 27 13 34 39 28 15 16 15 13 15 14 13 14 13 8 8
58 60 65 65 66 62 56 54 50 48 50 45 47 50 42 35 56 54 56 46 41 32 36 34 30 18 25 14 14 22 24 29 17 22 30 31 19 17 14 16 20 16 17 16 15 16 15
53 54 56 55 53 53 56 60 55 52 54 51 54 47 32 36 52 68 53 39 43 38 37 29 31 28 18 20 17 12 25 25 31 18 30 27 26 25 22 19 17 17 19 20 20 15 17
52 53 55 56 57 55 58 62 59 58 59 57 63 39 54 57 54 68 65 40 41 39 37 34 29 34 27 19 14 15 18 23 26 31 23 32 27 27 26 21 20 20 19 19 22 20 20
48 49 49 52 56 56 53 65 61 58 61 65 69 49 55 36 55 64 69 52 40 48 39 41 34 33 28 25 13 14 15 20 12 27 30 28 20 18 19 19 22 25 23 23 24 22 22
46 47 48 50 58 57 54 62 62 59 62 68 66 61 44 49 40 49 61 62 46 38 41 38 36 27 39 36 25 15 15 12 8 6 10 24 26 19 22 18 17 18 29 22 23 24 22
43 44 48 51 61 58 55 62 61 59 62 67 62 60 46 36 40 48 51 53 42 40 43 25 33 35 39 34 35 31 32 27 23 18 15 13 23 19 17 13 7 21 17 19 25 23 20
36 40 40 47 57 58 56 61 60 59 60 65 59 67 48 44 37 37 39 50 37 36 37 34 23 28 34 30 31 26 20 30 31 25 19 19 19 11 11 17 17 15 21 21 22 23 19
22 31 39 45 56 53 55 61 60 54 62 64 54 66 50 41 42 37 33 33 48 38 34 32 30 22 27 28 17 14 13 15 14 11 22 24 24 19 12 10 8 20 18 19 19 30 19
18 32 34 43 51 51 55 60 50 52 64 58 50 55 57 39 35 31 31 36 33 39 37 33 29 29 30 24 23 17 15 13 18 21 9 22 26 26 24 14 14 16 16 16 16 33 16
22 32 39 46 49 51 55 53 53 58 62 52 52 49 58 48 29 31 28 31 33 35 40 33 28 34 34 24 20 14 11 17 14 20 27 17 16 21 19 14 17 20 23 26 28 22 21
25 30 39 43 48 51 48 49 54 60 57 49 53 54 52 35 28 33 30 26 38 35 37 32 43 32 30 21 17 15 14 13 19 15 28 23 27 19 22 21 27 22 18 20 22 22 24

GFSGBSN_700_spd_057.txt.gz
Wind_Speed
38 38 37 37 36 35 34 33 32 31 30 30 30 30 30 29 31 31 29 29 29 29 28 26 24 24 20 18 17 16 15 14 12 10 8 8 10 9 10 8 9 10 9 10 11 12 11
39 39 39 39 39 38 37 36 35 34 31 31 30 30 30 29 29 30 31 30 31 31 30 27 25 25 23 19 21 15 14 15 13 11 10 11 8 11 11 11 10 8 11 10 10 11 12
41 41 42 42 41 40 39 38 36 36 34 33 32 31 29 30 29 29 29 29 30 30 31 29 27 27 26 16 20 18 15 14 13 13 12 12 12 9 7 8 11 11 14 13 8 9 9
45 43 43 43 43 43 42 40 39 38 36 35 34 33 31 29 30 28 26 27 28 29 29 29 28 28 29 18 19 18 17 15 14 15 16 14 14 12 12 10 11 13 15 15 10 10 9
47 47 47 47 46 45 44 44 42 40 38 38 36 34 32 31 28 29 25 25 26 27 27 27 27 26 27 20 20 18 18 15 15 16 17 15 13 10 11 12 14 15 15 14 10 7 7
46 47 48 48 49 49 48 47 44 42 42 39 38 36 34 32 30 27 26 25 25 26 25 25 25 23 20 14 10 18 20 20 16 17 18 16 12 12 13 14 18 10 14 13 6 11 5
41 42 44 47 48 49 49 50 48 47 44 43 41 39 36 34 30 29 25 26 24 25 27 24 13 19 20 13 14 17 21 22 17 17 17 14 14 17 14 13 15 13 13 12 6 6 7
39 39 40 40 41 43 47 49 51 50 49 46 44 41 39 36 33 31 27 26 25 25 30 27 22 24 21 21 16 18 24 26 23 21 17 16 20 14 13 12 10 11 13 14 7 7 8
44 44 43 43 41 39 38 40 46 48 50 49 47 45 42 39 36 32 30 27 26 25 32 36 33 34 31 30 25 20 27 27 23 21 20 21 10 13 11 11 10 11 15 13 11 8 11
46 46 46 47 47 45 41 38 37 38 43 48 50 47 46 41 36 34 31 26 23 21 22 25 31 32 33 34 40 29 28 29 22 23 22 21 17 11 13 13 12 14 14 15 10 12 16
39 41 41 42 44 47 47 43 39 35 33 36 46 47 48 44 42 35 26 24 19 12 8 5 17 20 21 34 15 32 32 31 29 23 25 23 19 18 18 16 13 14 8 10 13 17 17
36 34 36 40 43 43 46 46 44 40 35 32 32 44 47 46 44 35 29 24 17 11 17 9 12 12 20 26 22 12 36 33 26 23 23 23 16 16 16 12 12 12 10 11 12 14 16
42 42 40 37 38 40 42 44 46 44 40 35 32 32 43 46 43 33 29 22 17 27 15 21 12 14 18 19 29 23 36 37 34 32 31 24 21 18 15 12 10 14 14 13 8 12 11
42 40 39 38 37 39 39 41 41 45 43 38 35 33 35 43 41 40 30 30 24 35 36 7 15 15 18 20 28 29 32 39 36 31 25 27 27 25 18 20 14 15 19 11 6 6 5
44 42 43 42 40 39 39 40 40 40 42 39 35 36 35 34 37 40 36 32 52 41 20 36 10 16 20 21 22 30 34 39 39 36 31 27 28 17 26 19 17 16 21 20 16 9 9
50 49 49 49 47 44 42 42 42 40 37 35 33 36 38 35 28 42 44 35 47 40 34 20 36 18 22 22 24 33 34 35 37 37 28 17 20 19 18 18 18 20 15 17 15 4 10
54 54 53 50 50 48 45 44 42 39 34 32 31 36 40 36 31 38 53 53 43 36 26 35 30 33 20 20 28 28 28 19 36 34 32 26 19 18 16 21 21 17 15 18 16 21 4
58 54 50 43 44 47 44 42 42 39 35 39 39 43 34 41 39 43 59 65 59 41 34 30 29 27 36 22 23 28 29 32 28 34 35 32 20 18 22 19 21 16 20 22 20 16 16
47 47 47 46 51 49 48 47 46 45 43 45 49 45 39 40 50 51 54 60 65 38 37 33 32 24 20 21 20 27 24 22 14 34 35 33 30 22 21 18 17 21 20 19 21 17 14
49 51 52 52 52 54 53 53 52 51 50 50 54 48 46 42 51 50 52 59 55 49 38 35 34 27 27 25 20 14 27 24 30 17 33 34 29 32 23 27 21 24 22 22 21 18 18
48 49 51 52 52 54 59 58 53 56 54 57 64 44 59 58 57 60 49 47 48 52 45 40 35 35 30 23 22 18 19 20 23 31 24 29 37 29 29 24 20 21 27 26 27 25 25
46 46 51 53 52 53 53 64 60 56 58 61 67 49 50 42 57 45 50 54 51 48 48 40 37 35 33 31 23 20 17 18 14 24 32 27 28 29 32 27 25 24 24 25 26 24 26
50 51 49 49 52 54 58 60 56 61 63 67 72 63 39 55 36 46 53 53 57 48 48 50 35 34 31 29 11 14 21 26 20 10 20 23 26 27 27 23 25 26 26 26 26 25 24
42 43 47 52 53 55 55 59 62 59 69 70 66 65 38 40 43 45 45 45 50 47 49 44 40 33 28 30 21 22 21 21 26 10 10 14 21 27 20 21 14 22 20 23 27 26 24
43 43 42 45 49 55 56 54 57 61 67 69 69 65 50 35 39 36 34 40 43 47 39 43 35 36 29 23 24 16 17 22 24 27 11 12 15 19 21 23 19 22 21 19 21 22 22
32 37 40 43 45 51 50 53 55 58 66 61 70 60 52 40 36 33 33 34 44 44 43 34 40 29 28 19 18 21 21 22 16 13 28 18 18 23 14 20 19 28 23 16 17 25 19
26 27 30 39 42 46 52 52 56 57 62 55 64 58 52 40 31 22 35 32 39 46 38 38 43 27 27 28 22 26 24 22 21 23 20 21 23 27 25 15 17 18 18 19 18 31 14
15 19 24 36 38 42 48 52 51 53 60 56 60 53 58 40 26 24 22 24 34 45 42 33 43 33 31 25 24 21 18 25 20 19 31 24 15 19 23 23 20 18 20 23 25 15 16
15 17 26 28 42 45 50 48 51 51 55 57 57 49 52 36 29 27 29 33 37 36 41 38 43 37 34 26 23 22 20 17 19 20 22 29 23 18 21 17 23 19 25 21 21 19 19

GFSGBSN_700_spd_060.txt.gz
Wind_Speed
34 35 35 35 36 36 35 34 33 32 32 31 31 29 28 27 28 27 27 27 27 28 29 28 28 27 23 24 15 24 14 15 14 12 10 10 9 9 12 14 13 15 16 14 16 18 17
36 36 36 36 36 36 36 36 36 35 35 34 33 32 30 28 28 26 25 28 27 28 29 29 29 28 28 27 15 23 15 14 15 14 12 13 11 9 17 17 16 16 16 16 18 12 13
39 40 38 38 37 37 37 36 36 34 35 35 35 34 32 30 29 26 26 26 27 27 27 28 28 31 31 24 20 22 18 14 15 15 14 12 13 14 11 14 12 17 19 17 21 17 14
40 42 42 41 41 39 39 38 37 36 35 35 35 34 34 32 29 28 26 26 26 26 25 27 28 30 32 23 21 23 19 14 15 16 15 10 14 17 14 14 16 20 19 21 22 21 16
39 40 41 42 43 44 42 42 41 39 37 36 36 35 34 33 31 30 27 26 26 26 25 26 25 29 29 25 21 21 22 16 15 17 17 17 16 16 11 15 19 20 21 17 12 5 12
36 38 39 41 42 43 44 44 44 44 42 40 38 37 36 34 33 31 28 27 26 26 27 25 26 25 17 19 14 16 21 18 15 16 17 19 15 16 15 14 23 22 12 15 11 10 9
34 35 35 36 37 38 40 42 44 45 45 45 44 40 38 37 33 32 29 26 24 24 28 25 18 21 10 12 15 16 15 20 18 18 19 17 17 21 17 20 24 18 17 19 11 12 9
37 37 37 37 37 36 36 36 38 41 44 45 46 45 42 39 36 33 30 26 19 28 35 32 30 30 24 20 19 16 18 24 24 25 19 18 27 20 18 17 14 14 16 17 12 6 9
40 40 40 41 41 41 40 38 36 35 36 39 43 47 46 42 39 32 33 25 25 25 36 41 36 36 27 25 23 17 23 24 26 24 24 26 21 21 18 17 13 15 16 19 14 11 16
41 42 43 43 43 44 43 43 41 37 34 33 34 41 45 45 38 35 30 23 23 19 25 35 30 35 35 31 34 27 26 27 25 27 27 26 23 14 16 16 14 19 13 16 15 13 15
41 41 40 41 41 41 40 40 42 41 38 34 31 32 36 42 39 32 21 25 15 11 7 7 14 22 18 38 20 27 34 32 32 27 25 28 26 24 20 19 14 17 10 9 11 14 19
38 37 37 36 35 37 38 39 39 39 39 37 35 29 30 35 37 25 24 18 20 9 13 7 17 20 22 25 32 9 30 35 30 29 26 26 23 22 24 18 17 15 15 13 14 14 15
38 38 37 36 37 37 36 35 36 37 35 36 37 32 30 29 29 26 27 24 15 20 17 17 17 15 18 19 28 25 28 39 41 38 35 29 28 24 19 20 14 13 14 13 2 9 10
39 37 37 37 36 36 38 38 36 34 34 32 36 35 33 29 23 33 30 30 21 38 38 6 14 17 21 19 22 29 31 41 40 32 32 30 27 28 23 21 19 16 19 15 6 4 9
38 39 40 40 38 37 35 35 35 35 33 31 31 37 37 32 24 35 35 38 45 44 27 36 11 18 20 20 20 29 35 38 40 42 35 31 32 23 27 21 23 20 22 19 16 5 8
41 43 43 43 43 42 38 38 36 36 33 27 30 35 39 31 25 31 36 42 49 51 33 23 35 20 17 23 26 28 33 33 37 38 35 28 23 27 34 27 23 24 20 16 16 4 4
43 47 48 46 44 44 45 43 41 38 32 27 29 32 37 29 32 34 38 63 63 56 44 36 28 27 35 25 28 29 33 26 34 36 39 35 29 19 26 30 26 23 25 17 19 21 5
49 50 48 47 47 48 48 45 40 40 35 34 38 42 32 33 42 45 55 63 57 43 38 47 32 31 30 38 19 25 29 32 25 37 42 42 18 26 26 23 22 28 22 26 21 12 18
51 53 53 51 49 46 40 42 44 42 41 42 46 46 31 34 51 55 53 55 52 46 44 36 37 29 28 32 26 29 28 27 28 32 40 38 37 22 22 25 24 26 25 24 24 21 22
54 49 44 43 38 42 40 44 44 45 45 48 51 48 46 41 46 51 54 57 42 46 41 40 32 30 25 30 29 21 25 29 25 28 35 37 34 29 19 28 25 24 24 26 28 21 17
49 47 43 41 42 44 42 43 42 49 51 52 61 45 56 55 54 58 44 31 42 39 49 37 39 35 31 25 25 23 24 18 26 30 35 31 34 37 32 28 27 26 27 27 30 27 23
46 45 46 46 45 45 44 45 56 51 53 60 67 55 56 41 53 47 50 45 42 38 41 52 43 38 31 36 24 28 25 24 24 25 31 31 29 32 37 30 35 25 29 31 27 29 26
44 45 45 47 47 47 48 47 51 59 60 67 70 67 37 61 33 47 54 56 48 37 36 44 49 33 30 34 25 20 26 29 22 23 33 24 25 28 34 32 30 36 32 28 25 30 27
41 43 45 47 49 50 49 47 53 59 63 69 72 67 52 38 51 39 48 47 42 34 38 38 44 44 40 24 31 28 17 27 7 25 25 22 22 31 21 26 23 30 30 30 27 25 24
40 39 40 42 44 46 50 51 53 58 69 72 69 70 68 37 34 48 35 39 37 37 36 38 41 42 35 32 26 19 13 11 11 20 22 22 13 19 18 27 26 23 22 19 21 27 26
36 38 39 41 44 47 50 54 55 60 66 68 71 56 67 63 36 30 35 34 38 36 36 42 35 36 36 33 27 13 8 16 5 4 20 30 9 15 11 9 14 25 25 24 25 28 24
34 37 40 40 39 44 50 51 57 58 64 66 65 49 54 56 48 32 34 36 32 31 37 36 38 38 37 37 39 25 21 21 16 16 14 23 30 18 16 13 17 21 27 24 27 27 17
35 38 43 44 40 40 45 43 52 53 54 58 59 44 55 53 38 30 36 32 34 35 38 38 34 39 28 30 33 20 17 24 24 26 21 23 23 24 13 9 18 11 24 31 30 27 26
16 17 13 30 38 37 43 41 48 50 48 58 54 58 53 46 42 37 33 34 28 26 33 37 45 40 33 24 20 22 12 24 28 23 21 26 28 23 19 23 17 15 26 18 22 18 19

GFSGBSN_700_spd_063.txt.gz
Wind_Speed
32 29 30 32 32 28 30 30 32 33 32 32 31 30 29 27 25 25 25 26 25 26 27 28 29 28 25 27 17 23 20 17 13 14 13 13 13 10 7 7 17 25 15 20 22 24 20
30 30 32 31 31 32 30 31 35 34 32 33 33 32 32 30 27 27 26 26 26 25 26 27 29 30 29 29 17 21 20 18 15 15 14 15 14 9 8 16 22 14 20 19 23 22 24
38 33 35 33 32 33 33 31 33 34 35 37 35 32 32 31 31 29 28 27 27 26 25 27 28 30 31 22 18 23 22 15 16 15 15 15 12 14 12 19 14 19 19 21 25 22 25
34 36 37 37 39 36 32 36 35 35 35 35 34 34 33 31 30 30 29 28 28 27 25 27 28 31 31 23 23 24 23 21 17 18 17 14 9 14 19 20 15 19 18 24 25 26 19
34 35 35 36 36 37 39 40 39 40 39 38 36 36 34 32 31 30 29 26 27 28 27 28 29 30 29 23 18 20 23 22 16 19 17 14 14 20 20 17 18 17 26 22 24 15 12
31 33 33 33 34 35 35 37 38 39 40 41 42 40 37 35 34 31 29 25 25 28 28 31 31 31 19 17 17 11 19 21 19 17 17 18 19 23 20 17 22 17 22 17 15 9 14
34 33 32 32 32 32 32 32 33 34 37 39 41 42 42 39 37 33 28 25 25 29 32 32 29 27 17 20 18 13 13 19 20 18 19 18 23 29 22 20 19 19 25 18 17 17 14
36 35 35 34 34 34 34 33 31 31 30 32 34 38 41 42 40 34 30 25 24 30 39 34 33 37 28 19 26 21 14 20 28 28 23 20 29 25 18 15 22 28 17 17 17 8 6
37 38 37 36 36 36 36 37 36 34 32 30 30 30 34 38 40 33 33 24 22 30 39 43 35 40 28 30 35 26 21 20 27 29 28 28 24 18 17 15 20 24 18 16 18 15 16
37 38 38 38 39 38 38 38 37 37 36 34 31 29 28 30 30 32 29 25 25 29 25 42 31 38 33 35 41 28 27 26 28 31 28 30 25 22 25 27 19 18 17 18 18 15 11
37 39 39 40 40 39 38 38 36 34 33 34 33 31 29 27 24 21 28 23 22 19 7 10 11 9 8 33 28 25 29 32 34 30 29 34 26 28 25 22 18 20 15 13 14 15 16
39 39 39 40 40 38 36 34 32 32 31 29 29 31 31 28 18 11 14 19 16 11 12 6 15 16 17 18 26 18 33 36 35 30 30 28 25 28 27 23 21 20 19 17 11 16 15
40 40 40 38 36 35 35 35 34 31 28 29 27 28 32 30 9 26 25 26 18 17 15 18 16 18 16 20 21 28 20 44 40 34 38 33 35 27 25 23 21 17 22 7 4 4 7
41 41 38 36 35 35 33 33 33 34 32 29 25 26 31 29 16 26 34 31 15 47 43 11 16 13 19 20 22 23 29 31 47 36 23 31 30 35 24 28 21 24 18 12 5 4 5
41 39 36 35 33 32 31 33 32 32 31 28 23 25 31 28 22 28 35 33 42 41 25 40 15 18 22 14 17 18 37 36 38 48 34 28 37 22 32 21 27 19 23 22 21 5 1
38 35 35 36 35 35 34 34 34 31 28 24 24 24 30 23 27 31 40 50 57 49 29 18 28 20 16 17 19 26 20 27 34 39 46 32 25 34 28 28 24 30 25 17 20 5 4
38 36 35 35 35 36 35 35 34 33 29 24 26 28 31 23 29 31 51 55 52 54 34 35 30 29 23 21 16 16 26 27 21 35 39 42 29 19 28 35 33 30 27 25 17 20 5
41 41 38 39 39 39 39 37 37 35 31 30 33 38 30 27 38 45 55 58 51 39 39 37 41 28 27 27 27 25 25 25 13 27 42 44 34 35 33 22 27 40 35 28 23 12 16
42 43 41 42 43 43 41 40 39 36 36 36 40 42 28 32 48 56 55 53 50 40 32 31 49 39 30 32 29 21 19 27 21 26 41 42 45 24 17 32 22 43 32 25 28 29 26
43 45 46 46 44 42 42 36 38 39 39 44 46 43 47 40 46 52 52 54 50 41 49 33 40 43 31 29 33 29 30 25 24 17 34 43 40 45 27 17 25 25 32 29 29 27 22
46 48 48 48 47 45 42 38 39 43 45 49 54 51 48 55 64 53 49 38 43 47 42 38 40 46 38 30 26 33 30 34 22 17 23 34 48 42 38 30 23 33 26 32 35 34 29
47 48 50 50 49 45 42 38 37 41 44 52 61 61 53 55 52 51 48 54 54 32 37 34 35 41 36 35 31 30 22 26 22 23 24 24 28 41 47 33 34 24 30 33 29 31 31
47 45 44 44 45 45 43 42 49 48 52 58 60 63 45 53 36 45 60 56 51 37 23 24 32 37 44 40 23 26 30 30 24 27 21 14 34 28 35 38 31 35 36 34 33 24 30
39 39 39 40 40 40 41 44 49 52 55 53 63 65 56 45 51 60 54 50 50 40 33 17 25 31 48 25 21 23 26 25 32 30 29 32 23 32 25 27 14 24 33 24 26 30 28
36 38 38 39 38 38 40 42 45 48 53 61 57 67 68 55 49 47 53 41 33 43 41 30 29 27 38 34 35 28 22 29 36 36 28 20 32 18 23 29 20 42 25 23 25 29 26
35 37 38 37 38 40 41 41 43 48 53 63 65 50 61 64 49 53 44 48 36 31 38 38 33 26 19 32 30 32 13 13 7 15 26 21 30 33 9 6 15 19 30 27 21 29 21
32 34 37 38 39 41 43 45 46 46 49 57 70 62 51 56 59 37 36 33 34 34 32 33 35 30 30 32 40 33 30 20 7 4 11 9 4 11 8 5 15 4 22 27 21 21 23
26 30 32 37 40 41 41 42 45 48 50 56 63 70 47 40 50 53 35 35 29 30 34 34 33 33 38 34 35 32 29 29 26 13 17 17 11 10 14 8 9 12 17 24 40 23 25
26 26 28 33 34 43 45 43 45 47 49 51 56 62 52 19 43 49 58 35 32 35 33 32 30 32 35 34 37 27 32 22 32 32 28 21 20 15 11 19 17 19 11 16 22 26 19

GFSGBSN_700_spd_066.txt.gz
Wind_Speed
28 35 40 36 32 31 31 30 29 29 29 30 29 28 27 27 28 28 26 25 25 25 26 27 27 27 26 28 18 21 21 18 18 16 16 14 16 14 15 13 13 18 16 18 17 16 16
26 25 24 26 32 32 31 33 36 29 27 29 29 29 27 27 29 28 28 26 25 26 26 28 29 27 28 30 18 22 22 21 19 19 17 18 14 13 19 18 17 20 20 17 15 15 19
32 28 25 27 33 29 28 26 27 33 35 28 29 26 28 28 28 29 28 27 25 26 28 30 31 29 29 24 20 23 21 18 17 19 18 17 14 17 19 19 19 21 21 20 19 21 19
30 32 36 33 27 30 36 37 33 31 28 30 31 28 28 27 28 31 31 27 24 27 28 31 32 32 31 25 21 21 24 22 20 20 18 16 16 20 22 20 21 19 18 19 10 17 23
29 30 31 33 33 33 33 34 35 38 39 37 33 29 32 32 32 32 30 29 24 28 27 32 33 33 31 27 20 19 25 22 19 20 20 18 21 22 19 20 23 20 23 19 18 20 19
31 30 30 31 31 30 31 28 30 32 35 39 39 40 39 38 37 33 30 28 26 29 30 32 36 31 25 24 23 16 19 24 23 19 21 22 26 25 25 22 26 20 13 13 18 20 11
32 32 32 31 31 31 30 29 28 28 29 32 34 36 37 37 38 35 31 27 29 32 38 35 32 24 20 21 22 16 19 19 24 27 29 23 28 36 30 23 22 25 22 22 19 20 20
34 34 33 33 33 32 32 31 30 30 29 28 29 30 31 32 34 32 32 28 30 36 42 37 36 38 29 28 31 22 20 22 28 32 27 22 37 30 24 20 22 23 24 23 20 20 8
35 36 36 36 34 32 32 32 32 32 31 31 30 29 28 28 25 27 27 25 32 36 41 41 39 43 31 33 37 30 26 22 25 33 33 35 26 19 22 21 23 22 23 20 22 17 22
36 36 35 36 35 33 32 32 32 32 31 31 32 31 31 29 21 19 18 22 29 31 28 43 41 40 37 40 47 32 33 27 31 32 32 33 28 25 14 22 21 25 13 17 19 17 9
37 37 36 36 35 34 33 33 32 31 29 28 29 29 31 29 17 11 13 20 24 18 7 9 14 8 10 26 33 28 36 35 37 33 36 34 31 28 29 26 19 25 18 19 16 18 20
39 38 37 37 35 35 35 34 31 29 28 26 24 25 27 26 16 13 14 19 17 10 12 8 12 13 15 11 20 24 32 40 36 34 32 30 29 23 25 23 20 16 19 19 18 17 12
40 39 39 38 37 36 35 34 31 29 28 26 23 22 26 18 14 18 17 23 16 15 12 11 12 17 14 15 18 21 26 48 36 29 37 32 34 30 25 25 21 23 25 8 5 4 8
38 38 38 38 37 36 34 33 31 29 27 24 22 23 22 15 23 20 27 28 20 16 28 6 15 14 21 17 16 24 17 43 46 32 12 30 21 37 29 34 28 21 27 15 5 4 7
36 37 37 37 36 34 33 32 31 28 24 21 20 22 22 15 27 27 35 36 26 26 3 34 8 6 9 15 15 15 30 30 45 47 28 15 26 29 37 27 22 25 26 27 23 5 2
37 37 37 36 35 33 32 31 30 28 25 22 24 26 28 19 32 33 43 53 40 26 16 4 8 10 10 6 5 12 15 10 41 37 45 30 10 16 27 25 29 24 26 19 9 3 4
40 39 38 38 35 33 33 33 32 30 27 25 27 29 27 22 34 39 53 58 51 37 31 23 19 15 9 5 8 7 8 15 11 34 36 45 36 26 14 39 28 33 30 21 17 15 5
42 41 40 39 38 35 34 34 34 31 27 29 32 37 33 30 36 46 55 54 49 15 21 35 30 34 17 16 14 13 11 7 7 8 22 38 30 39 43 17 31 32 34 35 26 10 15
45 46 45 40 40 40 38 38 36 32 29 34 37 40 34 34 44 51 53 50 44 25 34 20 30 42 40 29 14 8 8 13 15 14 10 19 33 23 28 43 35 31 25 37 39 30 33
51 51 43 41 41 43 41 38 35 33 32 37 41 42 41 47 49 48 49 49 36 33 41 29 35 31 34 37 29 23 20 16 20 16 21 15 23 37 32 28 27 31 33 32 45 33 27
49 43 40 41 42 42 41 39 37 35 32 41 48 51 49 46 60 50 41 38 44 39 33 21 39 41 31 35 28 39 33 19 20 26 20 20 26 34 40 36 30 27 29 33 41 40 28
41 40 40 41 42 42 42 43 41 37 38 45 53 59 53 55 33 51 51 54 48 29 29 29 37 31 33 39 33 22 21 20 24 25 19 16 18 21 37 30 37 39 35 33 32 32 33
38 39 40 42 43 44 43 42 40 42 44 50 55 59 49 48 48 38 61 54 38 40 37 19 16 18 22 25 28 32 20 22 25 22 20 25 12 9 30 25 36 33 51 38 36 33 25
35 36 40 43 43 42 42 43 46 43 47 55 56 62 62 55 50 67 46 43 45 43 34 29 26 18 16 10 12 23 22 19 26 26 16 22 30 18 17 21 13 46 42 45 32 36 33
32 32 33 34 36 37 39 40 41 41 50 59 60 59 65 60 57 47 54 49 41 39 39 36 24 18 10 14 21 19 28 30 27 26 23 22 21 15 11 19 21 23 18 26 42 34 25
30 30 31 32 34 36 36 37 40 42 55 60 61 51 34 56 69 57 45 46 47 44 36 34 28 24 21 18 15 27 16 18 8 12 11 18 20 20 26 13 13 26 25 20 17 27 28
30 31 33 34 35 36 36 36 38 42 46 60 57 61 52 42 50 54 58 53 38 38 37 29 20 28 29 29 25 25 30 23 20 12 11 8 10 21 23 21 22 12 14 26 25 27 25
26 29 28 29 33 35 35 38 38 39 42 50 56 56 54 40 27 52 52 54 48 32 31 29 23 24 33 33 33 27 20 28 26 21 13 9 7 6 3 9 8 12 11 12 19 28 30
27 28 29 29 30 32 37 42 43 45 48 44 53 52 50 56 25 26 45 46 45 37 30 26 25 25 33 26 36 19 27 18 32 31 27 24 13 8 5 17 10 11 21 17 11 7 29

GFSGBSN_700_spd_069.txt.gz
Wind_Speed
27 25 25 27 33 35 38 41 39 34 33 35 34 33 31 30 31 30 29 28 25 24 25 28 29 27 26 25 19 22 23 25 19 19 17 18 17 16 15 13 18 19 18 19 16 14 16
34 34 34 33 26 27 25 25 33 36 36 35 34 33 30 29 29 29 30 28 26 25 26 28 30 29 28 27 18 23 24 23 23 21 20 20 16 16 18 16 20 21 22 21 21 16 19
31 33 33 33 32 28 32 32 25 24 26 26 39 37 32 31 31 31 29 26 26 26 30 30 31 32 31 21 21 22 21 20 22 20 19 19 19 19 21 18 21 23 26 23 18 18 18
30 30 31 32 33 36 32 35 37 37 28 28 26 28 38 35 28 32 33 30 25 27 31 32 32 35 37 25 22 20 23 23 22 20 17 18 21 22 24 20 20 21 20 21 1 9 21
30 29 30 31 32 32 34 38 37 33 34 38 40 38 34 32 31 30 29 27 27 31 32 34 33 34 34 30 25 27 28 26 24 24 21 19 22 23 23 23 22 23 23 19 16 10 14
32 31 32 32 33 33 32 32 31 31 30 33 34 38 42 36 31 25 32 28 29 33 36 38 38 31 26 22 13 16 22 28 29 27 25 25 25 29 29 28 26 19 20 18 11 11 12
32 33 33 33 33 33 33 31 30 29 29 28 29 32 32 31 30 34 36 27 31 36 38 38 35 31 23 25 25 19 29 24 24 32 33 27 30 39 35 31 27 22 20 21 12 8 15
34 34 35 34 34 34 33 33 31 30 30 30 29 29 28 27 24 24 28 29 37 41 44 40 41 41 31 30 26 17 22 25 26 32 33 28 38 34 30 28 25 24 24 24 17 12 17
36 35 35 35 35 34 32 32 32 31 31 31 30 30 30 27 21 20 19 24 31 36 41 47 43 45 34 38 40 33 24 25 28 31 35 39 28 28 33 29 28 28 25 19 17 15 19
36 37 37 37 36 34 32 30 29 30 31 30 29 30 29 28 22 19 17 18 22 26 24 43 43 41 42 46 51 33 35 31 32 31 33 34 39 13 10 27 27 30 23 19 18 17 21
39 38 38 39 37 36 34 30 28 28 28 28 27 27 28 23 21 17 18 15 14 11 6 8 16 14 14 27 27 32 35 41 38 31 30 33 35 39 36 28 19 29 16 18 20 26 23
40 40 40 40 39 37 35 32 29 28 26 24 24 23 25 20 17 17 16 13 10 7 9 5 7 11 18 12 12 14 26 44 43 35 34 28 30 27 27 25 26 17 17 19 22 19 12
41 41 41 40 39 38 36 34 31 29 26 23 22 22 21 17 16 22 18 17 11 12 3 4 6 13 11 11 10 18 18 43 39 33 39 32 35 31 28 20 20 21 21 4 5 5 9
40 39 39 38 37 36 37 35 32 30 26 23 22 22 20 15 20 22 23 25 17 7 22 6 3 10 15 11 10 18 15 30 44 32 13 29 19 39 31 36 25 24 27 13 6 3 6
38 35 35 34 34 33 34 35 33 31 28 23 20 24 21 18 22 27 30 37 16 18 6 16 6 3 7 12 11 16 21 17 36 41 23 14 21 29 32 32 31 31 30 24 31 11 3
39 37 35 34 34 33 34 33 33 30 26 23 26 28 23 19 24 32 37 44 29 15 12 6 9 5 3 4 7 8 8 2 20 34 38 23 7 9 17 17 33 30 21 16 14 5 4
41 40 38 35 34 32 34 33 30 27 26 27 29 30 31 27 26 38 49 47 40 29 14 12 12 10 7 4 2 2 4 2 7 2 30 43 32 21 23 19 25 31 37 30 22 22 6
40 40 39 37 35 33 32 32 32 30 28 29 30 37 37 32 34 44 52 49 39 23 31 26 26 24 20 16 12 8 4 6 7 9 6 27 16 34 49 35 24 30 32 34 21 6 15
39 39 39 39 37 37 34 33 37 36 35 33 35 38 31 34 45 48 48 46 46 44 23 28 33 36 27 22 14 6 12 8 7 3 4 2 9 25 28 26 37 36 24 32 31 32 33
40 39 40 40 41 40 39 37 41 39 38 37 38 36 40 37 45 47 47 48 30 44 37 36 28 25 24 25 22 21 18 12 7 14 14 12 16 14 14 18 15 23 34 30 31 36 26
40 42 42 45 46 46 44 40 44 42 42 40 44 39 46 46 53 48 46 43 44 38 30 38 36 33 31 25 23 24 29 35 34 20 15 11 18 23 28 23 28 30 30 29 39 39 33
45 47 49 47 43 41 40 42 44 44 41 43 47 54 40 51 39 49 52 52 40 32 34 32 28 22 20 35 37 32 17 12 13 16 17 18 22 22 24 20 20 34 36 37 35 35 30
45 43 41 38 37 36 38 41 44 43 42 45 51 54 50 42 49 46 55 51 33 32 27 26 23 13 17 19 23 18 18 22 25 15 15 16 17 18 8 6 16 22 48 39 42 39 29
34 34 34 34 34 36 38 41 43 44 46 49 55 56 55 50 51 54 43 39 42 37 32 26 16 17 8 7 13 14 14 20 19 18 14 12 13 14 16 20 5 19 19 32 39 39 43
30 30 32 34 35 37 40 42 43 44 46 52 55 57 58 54 43 44 45 39 29 27 33 32 26 12 18 17 12 13 16 17 26 26 23 19 21 10 7 8 25 46 19 14 23 42 40
31 32 34 35 36 36 38 41 41 43 42 50 59 60 56 51 62 44 41 39 40 34 27 28 21 18 20 25 16 13 8 6 7 8 21 18 17 17 10 4 6 39 38 14 27 38 27
30 31 31 32 34 35 37 38 41 42 50 49 55 56 57 51 46 48 52 46 40 35 33 26 22 23 25 32 27 21 20 12 10 9 10 12 17 22 22 10 17 25 21 20 17 22 17
29 30 30 30 32 34 35 37 38 38 43 51 52 49 54 50 30 40 44 42 42 42 37 28 20 23 20 32 29 21 14 12 24 18 17 13 8 11 12 10 9 14 14 13 15 20 22
24 25 28 31 30 33 35 36 35 38 38 41 45 50 56 49 34 28 15 30 32 30 33 33 24 20 22 20 35 16 21 14 14 20 19 17 14 5 11 8 9 12 13 18 13 10 18

GFSGBSN_700_spd_075.txt.gz
Wind_Speed
30 30 30 30 30 30 30 30 30 28 27 26 26 27 30 35 38 36 36 37 35 35 36 36 37 34 30 28 21 19 15 12 10 13 13 13 14 16 17 19 23 26 21 22 21 24 24
29 29 28 29 29 29 30 31 31 31 32 30 29 28 28 25 25 33 43 38 37 36 36 37 37 35 35 34 23 22 22 23 20 19 18 17 17 16 18 21 25 23 20 21 23 21 26
27 28 28 28 28 27 28 28 29 28 30 32 32 30 28 29 29 25 23 34 36 36 36 37 37 36 39 34 26 22 21 23 22 26 28 25 22 23 22 22 24 24 25 24 23 21 25
29 29 28 28 27 27 27 27 27 28 29 30 32 34 35 33 34 35 32 23 32 42 37 38 37 37 44 32 30 29 28 25 24 24 22 25 28 28 25 23 22 16 21 23 16 12 9
31 30 29 28 29 28 28 28 28 28 28 30 30 31 33 32 30 31 31 35 34 28 26 40 37 41 45 34 29 30 30 29 27 26 27 24 26 29 27 26 25 24 24 20 17 17 18
32 31 30 30 29 30 29 29 28 28 28 29 30 30 32 32 31 31 30 31 30 33 32 28 41 38 34 15 13 17 23 30 34 28 27 26 29 32 30 32 25 26 25 24 23 18 19
32 30 30 31 30 30 30 29 29 29 29 29 30 30 31 30 32 30 30 30 27 30 29 31 29 29 16 18 18 22 27 18 24 27 32 32 36 38 36 34 29 24 20 20 16 10 21
32 31 30 30 30 30 30 29 29 28 28 29 30 30 30 28 28 27 28 31 28 30 31 29 37 38 35 29 32 23 23 22 27 24 28 34 41 32 34 26 27 27 24 28 26 23 22
33 32 31 30 30 30 29 29 28 28 28 28 29 29 29 27 25 25 25 26 26 29 31 33 30 35 32 39 40 38 26 27 26 27 27 36 27 34 35 32 29 31 34 31 27 25 24
34 33 33 32 30 30 29 29 29 29 28 28 28 28 27 25 23 21 23 21 20 22 20 22 14 10 19 33 45 33 38 32 27 26 24 24 32 21 22 34 32 30 31 27 25 23 14
35 34 33 33 31 31 30 30 29 29 28 28 28 26 26 26 20 16 20 18 13 13 6 10 6 6 6 7 12 21 31 35 40 33 22 20 18 32 30 19 19 25 26 21 19 21 22
36 35 34 33 32 32 30 31 31 29 28 28 27 26 26 23 17 18 16 15 10 2 8 2 4 6 7 5 10 11 18 38 40 37 35 24 17 15 22 28 22 11 13 6 12 12 8
37 37 35 34 33 32 31 31 30 30 28 28 26 25 26 22 15 18 14 14 6 7 5 2 1 8 9 2 5 10 7 22 24 24 34 29 29 28 18 17 26 22 11 4 3 5 8
38 37 36 34 33 32 32 31 30 28 27 27 25 26 25 22 17 18 14 15 11 4 13 11 12 7 3 2 1 8 3 9 28 20 16 24 13 33 28 26 22 27 28 9 7 5 3
37 36 35 34 34 32 32 31 28 26 23 23 24 24 26 21 19 17 18 20 9 8 9 8 10 6 1 3 2 5 5 2 6 25 15 16 16 21 23 32 30 18 23 27 12 5 3
36 36 35 35 34 33 32 30 28 24 20 19 20 21 23 18 19 20 24 29 25 9 6 9 4 3 4 3 4 6 5 5 6 10 22 11 4 8 9 17 28 26 17 13 15 6 9
35 36 36 34 34 33 32 31 28 24 20 18 19 21 21 20 21 28 37 32 24 21 8 6 7 6 3 4 6 4 5 8 5 2 17 21 11 7 10 14 21 27 24 16 13 17 6
35 35 35 35 35 35 33 31 29 26 22 21 21 26 27 22 29 38 41 38 30 19 25 18 16 12 9 7 2 3 6 7 11 5 12 9 9 19 14 10 5 19 22 30 20 8 8
35 34 34 35 36 34 32 31 31 29 26 21 27 29 29 29 35 40 37 34 35 30 28 26 24 18 17 12 6 3 3 3 3 7 5 3 4 4 3 13 16 18 14 17 21 23 28
34 34 36 37 36 34 32 30 31 31 28 25 27 26 31 37 41 36 36 34 38 34 30 33 27 26 24 24 20 13 17 12 8 8 3 5 5 6 2 3 6 8 9 11 13 17 19
30 30 31 32 33 33 31 30 30 33 30 29 35 29 36 35 44 42 34 38 38 34 27 23 29 30 23 15 17 19 19 22 21 17 16 12 13 10 6 5 10 13 15 18 19 18 22
30 30 31 32 32 33 34 34 34 35 33 35 41 44 39 38 30 39 36 38 40 33 26 24 25 23 30 33 32 31 26 15 12 10 7 11 8 9 14 13 17 20 19 19 27 28 31
29 29 30 32 33 35 36 37 37 38 37 39 41 43 39 34 31 36 44 38 37 35 33 29 23 22 22 21 19 14 16 20 21 20 15 11 6 9 8 9 12 16 18 4 6 8 16
31 30 31 32 32 35 36 39 41 42 43 42 39 40 42 46 33 36 35 36 35 35 27 22 21 23 22 18 21 17 13 17 22 25 19 17 9 7 9 5 7 13 14 14 15 16 23
29 30 32 33 34 34 36 39 47 49 46 48 42 41 43 45 40 25 29 33 28 25 27 24 19 17 14 11 9 7 7 9 15 18 25 22 20 10 6 12 17 14 11 16 19 23 21
28 29 32 31 33 33 35 36 39 48 52 50 46 43 45 44 47 40 37 33 33 31 24 21 27 21 12 11 7 5 4 3 1 3 15 20 24 19 8 4 5 7 10 5 13 24 18
31 28 29 33 31 31 34 35 37 41 46 51 50 46 48 51 45 35 44 44 32 28 25 26 24 22 22 21 15 12 10 6 5 4 7 21 22 26 15 9 14 18 19 17 6 11 13
24 24 24 27 29 30 31 33 34 38 45 46 50 48 51 49 40 33 41 41 39 37 27 23 21 23 22 21 17 9 11 11 14 11 4 13 14 17 17 9 12 6 7 1 10 12 15
26 26 26 26 25 26 28 31 33 34 38 41 46 49 47 46 32 38 32 30 28 29 27 30 24 17 15 16 18 11 15 10 16 8 15 14 13 10 14 12 5 7 8 18 22 23 26

GFSGBSN_700_spd_078.txt.gz
Wind_Speed
29 29 29 29 29 29 28 28 27 28 28 27 27 28 26 25 23 23 25 28 36 38 37 37 38 36 32 32 27 21 16 15 13 17 21 21 21 19 21 18 19 24 18 16 19 21 23
30 30 29 29 29 29 28 28 28 27 27 27 29 29 28 26 23 22 22 23 24 29 40 38 38 36 36 38 27 24 24 24 22 17 18 20 20 18 18 21 20 14 18 19 19 21 21
31 30 29 29 29 29 28 27 27 27 26 25 26 26 26 27 30 28 26 29 30 30 24 33 41 39 43 40 29 24 24 26 29 26 24 22 21 20 16 19 25 23 22 19 21 21 20
31 31 31 30 30 29 27 26 26 25 26 25 25 25 26 26 28 27 28 26 27 29 31 34 32 40 49 38 31 28 28 24 27 27 31 28 27 25 26 21 23 16 17 18 15 13 19
33 31 32 31 30 29 28 27 27 26 25 25 25 26 26 26 28 27 28 27 28 28 26 27 33 29 37 40 35 30 30 31 32 29 28 31 33 34 27 25 22 20 21 15 14 12 12
34 33 32 32 31 30 29 27 27 25 24 24 24 26 25 26 27 28 29 29 28 31 28 26 27 29 24 21 11 26 33 32 32 35 31 32 32 30 26 27 34 25 20 17 16 10 14
34 34 34 33 31 30 28 27 25 25 24 24 24 24 24 24 24 26 29 27 28 33 30 27 23 25 25 19 22 24 17 21 34 37 38 35 30 34 36 33 27 22 18 19 13 11 13
35 33 32 32 31 29 28 26 25 24 24 23 23 23 23 22 21 24 27 26 28 30 34 27 30 34 26 29 25 27 22 26 24 29 32 25 36 32 26 25 26 26 23 24 18 13 17
35 33 32 31 30 29 27 27 25 24 24 23 23 22 22 21 19 22 23 24 27 27 29 29 24 19 24 31 34 32 31 23 27 24 26 29 18 33 28 24 23 27 27 24 20 12 16
35 34 32 31 29 28 27 26 26 25 23 22 22 22 23 20 18 20 21 20 21 22 17 12 9 7 10 10 32 35 35 21 20 20 18 22 23 22 24 29 25 29 24 23 22 17 14
36 34 33 32 30 29 27 26 24 23 23 21 22 22 23 19 16 19 19 17 15 15 6 10 6 6 11 6 6 14 38 39 37 14 23 16 17 29 28 25 22 27 20 18 16 19 19
36 35 34 31 31 30 28 27 23 22 23 23 22 21 23 20 15 18 16 13 9 2 6 3 4 6 13 5 8 9 11 34 30 31 25 25 12 15 24 19 20 8 11 9 8 9 13
37 35 34 33 31 30 29 28 25 24 24 24 22 22 22 20 16 16 14 8 2 7 5 4 4 11 10 4 4 9 6 31 26 23 30 23 30 16 14 21 19 19 16 8 9 8 9
37 36 35 33 31 30 30 29 26 25 24 23 22 22 22 20 16 16 13 7 10 2 8 11 15 9 5 3 2 9 6 13 31 26 19 32 17 34 23 19 13 26 23 9 7 8 6
36 37 34 35 31 30 28 27 26 25 23 22 23 22 22 18 16 17 13 12 6 6 7 9 7 4 3 1 2 5 3 3 9 23 16 22 31 13 32 28 22 18 26 24 23 14 8
34 37 33 34 31 30 29 27 26 25 22 22 22 23 22 15 17 18 18 20 13 10 7 8 5 4 5 5 2 3 5 2 5 14 22 7 9 19 24 21 24 21 16 13 17 8 14
35 33 35 33 32 30 30 28 26 24 22 23 23 21 19 15 19 21 28 23 18 17 11 9 8 6 5 6 7 3 3 5 5 3 28 10 8 3 17 22 27 28 24 18 18 24 12
34 30 32 33 30 30 30 28 20 24 24 26 24 22 19 18 25 31 32 28 25 19 24 17 14 8 8 9 6 4 3 4 8 5 9 13 7 11 13 7 15 21 25 25 19 15 16
29 28 29 29 31 28 28 28 23 23 28 24 25 23 21 19 29 32 26 23 30 24 21 17 21 22 13 9 6 3 6 4 3 8 5 3 9 11 12 12 8 12 16 18 22 25 27
25 25 25 27 30 29 29 28 27 24 29 27 27 24 27 28 32 24 30 26 21 24 25 23 22 27 22 20 16 12 11 8 8 11 6 3 5 7 6 5 8 7 7 8 9 13 17
22 22 21 21 23 26 27 28 27 26 29 30 30 33 26 17 34 35 31 21 24 20 27 24 24 24 21 19 15 16 13 14 16 17 13 9 7 7 6 4 4 7 10 11 12 12 13
18 17 19 21 23 23 24 26 30 29 31 36 39 38 31 32 25 27 32 31 26 24 20 20 22 13 18 24 22 18 18 18 13 7 10 12 8 8 12 12 11 15 15 15 17 19 21
23 24 24 27 23 24 24 26 29 33 37 38 40 38 32 34 29 29 30 28 26 24 24 21 17 17 16 17 17 20 19 18 17 16 15 10 8 8 14 9 11 16 22 20 17 11 9
26 25 26 25 26 25 26 28 30 36 42 39 38 37 40 36 24 25 24 24 26 27 20 21 17 20 19 19 21 21 21 21 18 20 20 13 12 10 6 5 9 10 8 10 15 11 10
25 25 26 26 27 28 29 30 33 35 41 42 39 39 39 40 35 33 22 20 21 23 25 20 19 18 18 18 14 7 9 11 16 17 20 22 14 8 8 16 18 17 10 10 12 10 14
25 25 27 26 28 28 32 34 35 38 39 42 40 38 38 37 35 28 25 29 26 24 22 22 16 17 19 13 12 9 8 6 5 5 15 19 20 17 9 8 6 1 10 14 13 9 3
27 27 26 27 26 29 31 31 37 37 41 44 45 41 41 39 38 23 29 28 26 20 22 21 21 21 20 16 12 10 9 7 6 7 11 20 20 24 22 11 8 7 7 13 10 2 7
24 22 24 24 26 25 26 32 34 38 38 48 46 45 43 43 34 32 30 23 27 30 28 22 17 26 24 20 14 10 10 12 10 7 10 15 15 15 19 13 12 9 4 8 8 9 12
24 25 26 27 26 27 26 27 33 38 38 42 49 44 40 42 30 33 36 32 33 30 26 31 28 18 19 15 15 9 10 10 12 8 14 9 12 11 12 12 7 9 3 12 18 21 22

GFSGBSN_700_spd_081.txt.gz
Wind_Speed
29 30 29 29 28 28 28 27 26 26 25 25 26 26 26 26 26 24 21 20 20 21 22 24 29 36 34 34 33 26 20 17 17 20 23 27 25 23 27 22 22 24 25 21 19 21 21
29 30 29 29 29 29 28 27 27 26 26 26 26 25 25 26 26 26 25 24 24 24 26 27 25 24 33 43 29 29 28 28 23 17 17 22 21 21 20 25 24 21 24 25 23 23 20
31 30 31 29 30 29 29 28 27 27 27 26 26 25 25 25 26 25 25 26 28 28 24 24 26 29 34 33 33 27 28 30 30 29 20 18 20 17 21 23 20 23 27 24 23 23 24
31 32 32 32 31 30 29 29 28 28 27 27 26 26 25 26 25 25 24 25 26 27 27 26 26 26 35 27 20 33 32 29 29 28 31 25 20 23 23 18 16 16 22 27 23 23 23
32 32 32 33 32 31 30 29 29 29 28 28 27 27 26 24 23 23 24 24 26 27 26 27 27 26 31 19 19 18 33 34 33 29 28 31 28 26 20 23 23 22 26 22 19 17 16
33 32 32 33 33 33 31 30 29 29 27 26 26 25 25 24 21 22 22 24 25 27 26 26 27 24 14 8 15 12 24 32 41 36 31 32 27 29 30 29 32 28 25 25 23 19 16
35 34 33 33 33 33 32 30 29 28 27 25 24 23 23 21 19 21 20 20 23 26 24 20 22 27 24 25 19 16 18 29 39 42 36 32 29 36 33 35 33 25 26 22 17 11 16
34 35 34 34 32 33 31 29 28 27 26 25 22 22 21 18 17 19 21 19 18 22 30 22 23 28 26 29 27 21 18 25 29 28 31 29 42 33 29 29 28 30 29 27 23 17 15
35 35 34 34 34 33 31 30 28 27 25 24 23 22 21 17 16 18 19 18 19 21 27 16 13 11 12 18 23 27 24 21 19 20 27 36 34 32 30 30 30 30 31 28 25 18 15
36 36 36 32 32 31 31 30 28 27 26 24 23 21 20 15 16 16 17 15 16 16 12 7 7 4 7 9 9 14 25 24 24 21 23 28 30 25 29 36 30 29 25 26 24 22 23
36 37 36 35 31 31 31 31 27 26 24 24 22 21 19 14 14 14 14 13 9 10 6 3 5 5 7 4 7 12 27 27 24 21 18 24 19 28 29 30 28 32 21 23 22 22 22
35 35 35 34 33 30 31 30 27 25 25 23 22 21 18 14 14 13 10 7 4 5 6 1 2 5 6 9 7 6 6 22 24 25 23 21 20 16 25 24 22 20 22 16 19 20 20
34 33 35 34 32 31 30 29 28 26 24 23 22 22 19 16 11 11 9 3 6 10 1 2 4 7 11 9 7 10 9 22 28 23 27 33 28 25 14 18 20 23 18 12 13 15 13
33 32 33 33 32 28 31 28 26 26 22 23 24 23 19 16 12 12 10 6 12 4 6 8 6 10 6 4 4 9 7 13 25 20 15 18 20 28 19 19 21 22 28 15 14 11 13
32 31 29 32 30 30 27 26 24 23 23 23 23 21 19 15 11 13 13 16 7 8 10 9 8 7 3 2 3 6 7 6 12 25 22 7 17 20 22 28 17 20 30 26 14 16 7
30 29 30 28 31 22 30 26 24 25 22 22 23 22 22 15 16 18 19 21 14 11 7 5 7 3 4 4 2 4 9 3 4 7 22 16 20 17 21 22 30 20 15 16 15 6 12
27 28 30 27 27 25 22 23 24 22 20 22 22 19 15 15 21 24 28 22 16 14 9 6 7 8 5 4 3 4 2 5 6 4 14 24 18 9 18 27 30 28 30 20 19 23 4
31 29 28 27 23 29 22 24 22 22 17 22 21 19 15 17 27 30 29 20 17 15 17 13 10 10 10 7 5 3 1 4 8 7 3 20 9 18 12 23 22 26 26 27 17 14 21
26 23 26 25 26 25 25 24 27 25 22 19 23 23 19 21 28 29 23 22 21 20 16 16 17 12 9 9 5 5 6 3 7 10 4 4 12 18 8 14 12 24 25 28 27 22 15
23 22 21 21 21 24 26 26 25 29 26 25 22 19 23 28 31 26 23 22 20 21 21 19 18 18 19 18 16 11 9 8 12 10 5 5 9 15 10 2 8 19 17 23 21 20 20
20 19 18 17 19 18 21 24 26 31 28 28 32 31 17 18 32 36 23 16 24 22 19 18 22 22 21 21 20 21 20 15 9 12 8 5 9 9 11 7 4 5 8 11 15 17 16
21 20 17 18 16 16 18 20 25 28 31 33 36 36 19 23 18 22 29 29 23 22 24 19 22 18 19 23 20 14 11 14 15 11 6 10 11 8 12 13 11 13 13 15 17 17 18
21 21 20 21 24 22 18 20 22 28 37 39 37 31 29 20 26 19 21 29 24 25 23 21 16 19 17 14 16 16 17 13 15 13 9 9 10 13 16 10 10 14 18 20 18 17 17
22 22 23 24 24 23 24 25 24 29 41 41 37 34 29 33 21 27 22 22 22 29 21 20 21 18 15 18 14 16 17 17 18 17 15 12 10 11 13 8 11 13 9 5 11 15 11
22 23 25 25 25 26 26 30 28 30 33 40 37 36 34 25 24 23 24 20 15 23 18 24 15 17 19 18 10 9 12 13 19 22 21 20 18 13 14 16 19 20 10 9 11 15 8
22 23 23 24 24 26 28 30 32 31 35 37 39 35 35 29 29 26 25 22 19 12 16 21 18 16 16 15 12 9 9 11 9 7 19 20 20 19 9 14 11 19 6 8 11 13 3
23 23 25 26 28 27 28 30 33 35 36 40 37 39 38 38 27 21 29 23 21 23 19 19 22 15 14 16 13 12 14 8 6 11 17 22 21 25 22 15 9 7 4 3 12 6 1
26 26 24 23 24 27 26 27 30 35 39 42 40 37 42 40 31 24 20 26 22 22 23 16 16 18 17 19 10 12 7 8 11 7 13 20 17 18 18 10 18 10 8 10 5 1 3
24 24 24 25 26 26 27 27 27 31 35 42 45 40 36 41 28 33 30 30 22 24 20 23 19 9 11 13 16 11 9 10 12 12 13 14 16 16 17 16 5 7 13 7 7 8 11

GFSGBSN_700_spd_087.txt.gz
Wind_Speed
28 28 28 29 29 29 30 29 29 29 28 28 27 27 26 25 25 25 24 23 23 23 23 21 18 17 16 15 3 17 24 24 20 22 22 24 26 26 30 28 22 28 28 30 31 32 31
29 30 30 30 30 30 30 30 31 30 29 28 28 27 26 25 25 25 24 23 22 21 20 23 24 22 17 10 5 13 19 32 28 23 21 19 20 24 26 24 28 27 28 32 33 32 31
32 32 32 32 32 32 32 30 30 31 30 30 29 28 27 26 25 24 24 23 22 21 21 21 24 24 23 11 16 14 18 18 27 33 28 18 8 21 25 27 27 28 34 36 38 35 32
35 36 35 34 33 34 34 33 32 30 31 31 31 30 29 27 26 25 24 23 22 22 21 23 23 27 23 20 20 16 14 15 15 23 33 29 23 27 29 27 26 28 32 39 36 36 32
36 37 38 37 36 36 35 35 34 33 32 32 30 31 30 28 27 25 24 23 22 21 22 22 22 26 23 18 14 13 9 8 14 19 25 30 32 34 31 28 28 28 28 30 34 31 33
37 37 37 38 38 37 37 35 34 35 33 32 31 29 29 28 25 25 23 21 23 21 22 21 23 21 18 12 14 16 13 14 8 11 23 29 33 36 32 24 25 26 28 28 31 28 26
38 39 39 40 37 38 37 36 35 34 35 31 31 30 28 26 22 23 21 18 20 20 21 20 18 16 16 17 18 16 8 14 12 9 18 20 29 36 34 30 27 22 24 30 30 27 28
35 35 36 36 36 37 36 36 34 34 34 33 29 29 26 23 20 21 19 17 18 22 23 18 17 20 19 21 28 22 16 14 9 9 8 17 27 29 25 28 26 25 31 39 37 32 25
33 33 34 35 32 33 35 34 33 31 32 33 30 28 23 20 19 20 16 14 16 16 21 16 18 19 17 18 14 6 25 19 14 7 8 17 13 14 29 27 30 36 36 35 36 39 34
32 33 34 33 33 32 33 32 33 31 31 30 29 28 23 19 19 18 17 13 13 11 11 9 11 9 7 6 3 2 2 18 18 17 13 17 25 29 35 35 38 37 29 26 31 21 21
31 33 34 34 34 33 30 32 30 30 28 27 27 26 22 19 19 17 15 13 8 4 5 7 8 5 5 8 5 7 5 11 17 17 16 13 12 20 22 35 37 39 30 25 23 22 25
32 33 35 36 35 32 30 29 27 27 25 26 25 23 21 21 18 16 12 10 8 2 8 13 5 6 7 2 0 4 8 12 17 15 18 21 21 24 20 7 27 31 30 23 22 19 13
33 35 38 39 36 33 29 25 23 25 25 23 23 22 19 22 11 12 11 11 4 6 7 10 9 6 5 7 7 14 10 7 10 12 18 20 28 31 23 22 15 18 14 7 8 7 8
34 36 36 36 33 31 27 24 23 21 22 20 20 22 18 18 17 16 13 12 8 6 3 7 9 5 7 5 7 14 9 10 10 11 8 4 9 6 15 25 11 14 25 5 4 3 3
35 34 32 31 27 25 22 20 21 20 18 22 22 21 18 15 19 20 17 16 9 2 8 2 3 4 4 9 5 8 13 12 14 16 12 5 7 2 6 13 16 13 17 25 10 9 3
32 29 27 24 23 21 21 22 20 18 17 22 19 18 16 16 24 25 21 23 17 4 5 4 2 3 5 7 2 4 8 6 1 10 9 9 14 7 10 10 17 24 4 13 7 3 4
30 26 22 21 20 19 21 19 21 19 14 20 14 17 5 18 26 28 29 29 21 8 5 4 3 8 2 5 4 4 4 6 9 10 11 12 20 11 10 10 13 15 18 9 9 6 2
27 24 19 20 20 20 18 16 16 17 15 18 16 15 13 24 31 31 29 31 22 14 6 6 10 8 7 6 6 5 4 3 8 8 5 9 8 22 27 13 14 18 21 21 6 7 7
25 20 19 19 19 19 17 12 16 16 17 16 16 13 15 20 31 27 29 23 27 22 13 6 6 7 7 8 7 7 6 7 4 5 5 7 6 6 7 4 10 15 20 22 24 8 15
22 17 15 16 18 17 14 11 17 17 22 19 20 13 16 19 25 21 27 25 22 19 18 14 11 12 11 13 8 8 7 4 7 18 18 17 7 6 6 11 8 7 13 23 25 13 13
21 18 15 15 15 16 15 11 13 18 22 22 27 17 9 8 21 16 16 8 17 15 13 11 17 15 15 14 16 17 18 17 18 19 17 11 18 8 11 10 11 17 10 7 24 30 15
20 18 16 18 18 19 15 12 12 15 22 26 28 24 16 14 10 7 16 22 22 10 15 14 16 13 16 20 20 22 19 18 17 10 4 9 11 8 13 7 8 14 9 5 9 16 22
20 19 19 18 17 15 13 11 13 15 23 28 32 23 22 21 16 13 12 13 17 15 19 13 16 23 19 20 23 25 24 19 21 15 11 7 7 7 6 7 15 9 12 11 10 6 6
20 20 19 18 16 16 17 15 17 17 18 25 25 27 25 27 21 20 16 11 14 13 18 19 22 26 22 16 18 26 28 21 26 28 22 18 8 7 15 19 4 2 2 3 1 4 12
21 20 19 19 17 18 18 19 18 17 22 17 24 30 32 25 20 22 14 12 12 17 19 18 19 28 24 25 12 16 19 21 26 29 31 31 26 13 10 8 15 17 2 1 3 7 8
22 20 18 17 16 18 21 21 21 20 21 26 18 27 29 29 27 18 15 14 16 17 17 16 19 23 21 21 13 10 8 8 7 10 18 35 29 23 8 7 5 10 3 12 11 5 1
18 18 18 19 19 19 20 21 23 24 24 26 27 24 32 32 25 20 21 15 13 13 15 15 13 10 12 12 13 13 13 13 11 14 7 26 26 29 26 10 7 7 11 8 14 8 9
18 18 19 21 22 21 21 21 23 25 27 28 25 26 29 31 26 25 23 21 13 9 13 13 11 13 17 14 9 8 8 11 13 23 7 20 20 22 24 9 11 6 4 7 13 19 19
18 18 18 18 19 21 23 25 26 26 26 29 28 27 28 30 22 24 28 26 20 12 9 10 11 12 2 5 8 6 9 12 12 7 13 12 23 15 16 15 6 7 10 14 14 21 15

GFSGBSN_700_spd_093.txt.gz
Wind_Speed
19 20 21 22 24 26 28 29 30 32 31 31 31 32 33 32 30 28 28 29 30 31 30 30 30 30 28 31 20 23 23 19 21 27 31 34 36 35 38 36 34 43 42 38 34 31 32
18 21 23 25 27 29 30 31 32 33 34 34 34 34 34 34 33 31 28 29 30 29 29 29 31 30 31 32 23 25 24 20 21 22 25 30 29 28 31 34 37 40 39 37 36 33 32
19 22 24 26 28 30 33 35 37 36 36 37 36 36 36 35 34 34 31 30 30 29 30 30 30 31 34 20 22 23 21 18 19 20 27 26 26 29 26 29 32 34 40 35 34 28 31
21 24 26 29 31 32 33 36 38 40 41 40 39 40 38 36 34 34 34 32 29 30 31 30 30 32 38 20 28 26 30 22 25 22 20 29 28 30 29 27 20 27 35 35 32 32 29
24 27 29 32 30 27 28 30 31 33 36 39 41 41 40 38 32 33 34 33 29 31 30 30 31 32 33 27 26 26 28 27 26 25 22 25 28 30 29 25 26 28 31 30 30 31 25
26 28 31 33 28 26 26 26 27 29 31 32 35 38 39 37 34 32 32 31 27 30 31 31 32 28 24 17 23 25 27 28 24 23 21 24 27 33 33 30 28 27 28 30 31 27 31
28 30 33 31 26 24 25 27 29 31 31 30 32 35 36 35 31 30 29 26 26 27 32 33 27 21 24 14 27 21 22 23 23 22 25 26 32 37 37 34 30 30 31 29 29 26 32
29 31 33 30 25 24 25 26 29 30 34 35 33 31 34 33 27 26 25 20 17 21 38 30 33 37 29 17 26 24 24 24 23 23 21 22 28 27 29 29 29 30 31 35 36 34 31
29 32 34 32 28 26 27 28 31 34 36 36 35 32 31 31 23 22 18 15 14 18 31 35 31 37 28 33 31 25 26 23 23 21 21 24 12 12 21 23 24 28 29 33 36 34 34
31 33 35 32 28 28 29 31 32 36 35 33 33 31 29 28 20 17 15 17 14 16 20 29 22 26 29 28 36 25 26 25 25 21 17 15 17 18 12 17 20 26 27 26 26 24 20
32 34 35 33 29 29 32 33 36 35 35 32 29 27 24 24 19 13 18 13 12 8 6 8 10 16 19 24 24 24 28 31 29 25 21 10 7 9 12 19 23 27 25 25 26 25 21
32 34 36 33 29 30 32 34 35 33 31 26 24 22 21 18 15 13 21 12 9 4 9 5 6 12 14 21 19 19 17 13 23 21 17 18 14 12 12 12 16 19 20 17 19 17 12
33 34 35 31 27 28 31 32 31 29 24 19 20 21 20 17 10 17 18 12 6 9 4 2 6 13 14 20 17 18 16 15 17 17 20 18 18 17 15 15 18 18 10 3 5 6 6
33 34 33 28 26 28 29 27 26 24 19 16 20 19 16 12 10 17 12 17 11 8 15 18 4 15 18 16 16 16 12 12 14 14 10 14 3 12 5 7 8 7 14 6 4 3 3
33 33 31 26 27 27 25 22 22 21 18 19 18 16 12 7 16 19 18 20 10 8 12 10 8 13 14 12 9 21 18 16 10 12 6 8 5 9 6 6 4 5 12 17 11 14 4
32 32 29 25 26 24 19 18 19 19 15 19 15 14 11 13 20 20 25 15 18 9 7 6 6 5 4 9 16 20 16 12 12 13 13 4 3 6 7 9 10 11 8 6 8 3 3
30 31 27 25 24 20 15 16 18 18 14 17 14 10 10 9 15 18 27 19 19 15 10 8 10 8 12 14 10 12 10 10 8 11 16 12 5 2 6 11 10 5 10 9 6 7 2
29 29 25 23 20 16 10 13 15 16 14 14 13 10 9 6 11 17 24 14 14 17 20 14 6 6 11 6 13 5 8 10 14 12 7 7 6 6 14 15 12 12 10 10 5 3 8
28 27 24 22 17 13 8 11 13 13 13 14 13 11 11 12 12 17 19 20 24 14 15 14 10 11 7 10 7 10 8 10 15 12 4 3 2 5 3 9 5 6 10 8 21 20 18
26 26 22 20 15 12 9 10 14 12 13 13 13 7 4 12 16 10 13 15 12 19 21 11 5 3 2 7 10 7 8 5 2 4 4 4 1 3 4 9 10 11 14 12 14 8 8
24 24 21 17 15 12 12 11 12 11 12 13 15 12 10 1 5 8 11 12 4 7 9 6 1 4 3 1 4 5 7 7 5 5 2 3 3 6 8 12 11 18 17 17 19 18 16
23 23 20 16 14 13 11 9 9 10 11 12 15 14 13 14 9 6 7 12 13 5 2 4 4 5 4 4 2 5 6 3 2 1 7 4 5 8 9 7 11 17 20 18 21 19 17
22 22 19 15 14 13 11 10 10 10 9 10 9 13 14 13 10 8 6 5 4 6 8 4 0 1 1 4 7 7 7 7 5 7 9 8 9 11 8 11 19 12 10 13 17 15 16
22 21 19 16 15 14 14 13 13 13 12 9 6 11 15 18 15 9 8 10 9 8 6 4 1 4 5 7 8 11 15 16 17 18 16 16 15 10 9 12 3 6 11 15 8 17 19
22 21 18 16 16 15 15 18 15 15 16 13 11 10 16 20 19 15 12 10 7 7 3 3 3 4 6 10 12 9 12 13 14 14 20 21 16 7 5 7 16 18 3 11 15 17 15
22 21 18 16 16 16 16 18 18 17 17 16 11 12 14 17 15 17 15 10 11 7 4 4 4 5 7 9 6 3 3 4 4 3 6 2 15 17 12 3 3 4 5 8 11 15 6
22 20 18 17 16 16 17 16 17 18 18 19 13 12 14 13 13 15 12 15 13 9 6 6 6 6 7 9 5 5 6 5 4 3 6 9 9 18 23 12 12 22 22 14 10 5 10
22 20 19 17 16 15 15 15 15 18 19 21 14 14 16 14 11 12 15 16 13 10 6 6 3 4 5 1 3 4 4 3 6 8 9 10 6 6 8 8 11 19 20 15 11 13 14
22 20 19 18 18 17 18 17 16 16 20 22 21 15 16 18 12 7 12 19 17 15 9 6 7 3 2 5 7 5 4 4 6 7 13 7 9 13 11 7 15 16 8 12 9 12 16

GFSGBSN_700_spd_096.txt.gz
Wind_Speed
12 13 16 18 20 22 24 26 27 29 31 32 34 35 37 38 37 36 36 35 35 36 36 36 37 37 34 37 30 29 23 16 19 18 22 30 36 38 41 40 38 43 42 38 36 33 36
13 15 17 20 23 25 28 31 32 33 34 36 38 39 40 40 40 37 36 37 35 34 36 37 38 38 38 42 26 30 31 26 24 21 21 28 31 33 38 40 40 40 35 36 38 37 38
14 16 19 22 24 28 31 30 30 32 33 35 38 39 41 42 41 39 41 39 36 33 35 37 37 39 42 35 27 27 21 28 26 26 24 21 22 30 33 35 37 37 38 36 39 33 35
15 18 21 23 26 29 30 29 30 32 33 33 33 33 36 40 39 39 40 41 37 36 35 35 36 39 47 30 32 29 28 23 23 23 24 21 26 27 30 28 23 25 30 33 33 33 35
17 20 23 25 28 31 31 30 30 32 32 32 33 32 33 34 37 36 37 38 37 37 35 34 36 37 43 30 31 28 30 27 30 27 25 23 27 29 28 25 24 26 28 21 22 24 24
18 21 24 26 29 31 32 30 29 31 31 32 34 38 38 36 34 36 35 33 33 36 36 34 37 33 30 24 16 17 24 29 33 30 27 29 29 32 31 27 26 23 26 26 27 28 29
19 22 25 28 31 33 34 31 30 31 32 33 35 39 39 37 33 32 33 29 27 31 36 36 32 28 30 20 15 22 19 24 28 30 30 30 32 38 37 36 35 32 27 27 25 18 23
19 23 25 28 31 34 36 34 32 32 33 35 38 40 38 37 31 29 28 23 21 24 42 35 38 40 34 18 29 21 23 22 24 24 24 27 36 31 29 29 30 29 28 29 29 30 31
20 23 25 29 32 34 36 35 33 33 35 38 40 41 38 35 27 27 24 17 16 23 36 42 34 39 32 31 37 24 25 24 24 23 24 26 16 18 26 26 28 28 26 25 26 26 30
20 23 26 29 32 35 36 34 33 33 36 39 39 39 35 31 24 22 21 16 17 17 21 37 28 26 23 32 40 32 30 26 24 23 21 18 22 17 12 13 21 23 20 19 19 17 11
21 24 27 30 33 35 35 32 31 34 37 38 36 33 29 24 21 18 18 15 11 10 6 8 7 10 15 18 21 26 35 31 27 20 19 12 12 22 21 17 12 11 14 16 17 18 20
23 25 27 30 32 34 33 31 32 35 34 33 31 29 23 18 18 18 17 13 12 8 8 11 8 11 11 15 11 16 30 34 30 22 21 20 9 9 10 8 9 9 10 13 15 10 7
23 25 27 29 32 33 32 31 33 32 30 30 27 24 19 16 13 16 17 10 10 6 5 8 8 12 8 16 9 18 28 30 24 19 24 21 20 17 14 11 10 9 8 5 4 3 5
23 25 27 29 31 32 31 31 29 28 27 26 23 21 16 11 12 16 13 9 9 7 13 26 23 16 15 12 11 17 23 22 20 16 17 15 6 19 10 10 4 1 4 5 4 3 3
23 26 27 28 29 30 30 28 24 23 24 25 23 19 12 13 16 16 10 12 7 9 12 19 14 4 10 11 11 19 17 15 18 16 3 11 5 13 7 3 2 2 3 8 7 22 7
23 26 27 27 27 28 27 22 19 19 22 24 22 16 13 12 12 11 13 20 11 8 19 18 9 9 6 5 14 18 15 11 9 14 6 8 8 8 4 4 4 3 4 2 8 3 4
24 25 25 26 26 25 23 18 12 16 18 20 21 15 12 10 12 10 13 22 23 14 21 16 19 15 6 8 12 16 9 10 12 13 14 7 4 5 4 4 1 5 5 3 6 7 3
24 24 24 24 24 23 19 13 13 16 17 18 18 14 9 8 12 10 13 16 22 5 10 20 26 14 10 10 11 10 14 8 8 11 13 9 4 3 2 7 4 6 7 10 5 5 8
24 23 23 23 22 20 16 11 11 14 17 17 16 13 10 8 12 15 17 15 14 24 19 22 17 13 8 10 8 11 16 17 14 13 11 10 5 6 6 7 5 3 7 11 9 11 10
24 22 21 21 20 17 13 11 11 15 17 16 14 8 8 6 7 12 15 11 5 6 14 20 20 8 6 14 16 12 14 10 11 12 12 9 7 6 3 3 5 8 11 13 13 7 10
23 22 20 21 18 15 13 11 11 13 16 12 11 8 7 4 7 11 9 11 9 15 8 8 5 8 7 10 14 14 15 17 12 11 9 8 6 4 3 7 8 9 12 16 19 24 20
22 21 20 19 17 13 12 11 9 10 9 9 9 8 8 9 10 12 14 4 9 13 7 3 7 9 10 8 10 8 8 7 5 5 7 5 3 5 11 9 7 15 18 9 13 14 24
22 21 19 19 16 13 12 12 10 10 7 7 7 7 8 9 9 10 9 11 7 11 12 8 6 5 2 4 4 4 3 1 1 2 3 3 4 7 5 7 13 16 4 12 15 12 18
23 21 19 18 15 14 14 14 14 10 11 9 6 8 9 11 11 10 10 11 10 11 11 9 4 2 3 4 5 5 6 7 9 10 11 10 8 5 5 8 2 2 10 12 12 12 14
23 21 19 18 16 14 15 16 17 13 12 12 9 10 12 14 12 12 13 11 10 6 5 5 5 5 8 7 6 4 9 4 5 7 6 10 8 3 2 3 14 7 6 3 20 14 16
24 22 19 18 16 15 16 16 17 17 13 15 12 11 11 12 6 9 10 11 11 7 5 4 6 7 6 7 6 2 2 3 1 2 6 6 6 8 5 2 3 5 10 6 19 13 6
25 22 20 18 16 15 17 17 17 17 16 18 14 11 13 11 5 6 8 7 9 8 7 6 6 6 9 9 5 2 1 2 1 1 3 6 4 11 16 8 9 17 18 19 8 8 11
25 23 21 18 16 16 16 16 17 16 15 18 15 14 14 14 9 10 8 8 9 8 7 5 4 3 5 5 5 2 1 1 2 2 3 3 4 4 5 6 8 8 11 8 10 14 15
26 23 21 18 17 17 17 17 17 14 15 19 19 14 13 15 10 6 4 6 10 11 7 5 2 2 5 5 7 3 2 2 2 2 4 3 2 9 10 7 15 17 14 8 6 12 12

GFSGBSN_700_spd_099.txt.gz
Wind_Speed
10 9 11 13 15 18 20 22 25 26 27 28 29 31 33 35 36 37 38 40 41 41 39 39 38 38 38 39 36 29 30 21 15 15 16 25 34 39 43 42 40 42 42 38 35 31 35
9 10 12 13 15 18 21 24 26 27 28 30 32 34 35 37 38 37 37 39 41 42 43 41 39 39 40 44 30 28 31 30 30 26 21 19 29 34 35 36 38 33 27 35 36 35 35
9 10 12 14 16 19 21 24 26 27 29 31 32 34 36 37 37 36 36 37 36 39 44 41 39 40 45 40 30 30 29 20 30 32 28 19 20 26 32 33 34 35 37 36 38 35 36
10 11 13 15 18 21 23 26 27 28 29 30 32 34 36 37 38 39 38 35 36 38 38 40 40 40 51 40 31 30 32 29 26 29 30 25 22 24 27 23 21 23 27 27 22 28 30
11 12 14 17 19 22 24 27 29 31 32 33 35 36 37 39 38 39 40 39 34 36 36 37 38 39 47 37 31 31 32 28 29 26 24 31 30 29 28 26 24 23 20 19 15 12 16
11 12 14 17 20 23 26 28 30 33 34 35 35 37 39 41 42 42 41 41 36 34 35 34 39 36 35 23 17 16 18 21 30 31 25 30 30 30 33 26 22 20 25 21 19 15 19
11 12 13 16 19 23 25 28 30 33 34 35 35 38 41 43 43 42 41 39 34 32 32 32 31 36 25 19 18 15 23 17 26 30 36 37 36 43 37 31 27 16 17 17 16 12 19
11 12 14 17 20 23 26 29 31 33 34 35 36 39 42 44 42 37 35 32 31 33 43 33 32 39 40 26 34 22 19 22 23 25 28 30 41 37 29 27 27 26 26 27 28 26 27
12 12 15 18 21 24 27 29 31 33 34 34 37 41 42 40 37 31 29 24 24 26 35 43 32 30 26 30 33 26 25 25 24 22 25 30 20 24 29 27 25 26 26 24 23 24 26
12 14 16 19 22 24 27 29 32 33 32 36 39 39 38 37 32 25 21 20 20 18 21 34 17 11 9 23 33 27 31 26 25 24 19 18 25 17 14 27 23 24 21 18 18 12 9
13 15 17 20 23 25 28 30 31 31 34 36 36 35 33 33 30 23 19 17 15 6 5 10 14 11 17 12 10 21 35 29 26 22 24 13 11 21 16 13 14 15 13 12 12 13 13
14 16 18 21 23 25 27 29 30 32 34 33 32 31 29 27 22 23 17 14 8 3 7 9 17 18 22 16 7 8 35 39 24 20 16 17 7 11 21 18 14 10 10 6 9 7 6
15 16 18 21 23 24 26 29 29 31 31 29 29 27 26 26 21 18 16 10 2 6 5 9 21 31 28 8 5 10 35 40 34 20 18 16 14 12 12 13 12 13 8 3 2 4 4
17 17 19 21 22 23 26 28 29 29 27 25 24 24 23 23 20 16 14 6 7 7 12 24 28 21 19 4 7 10 28 29 27 20 19 17 9 22 17 16 8 13 10 4 4 3 1
18 18 20 21 21 22 25 26 27 26 23 22 22 24 21 17 16 16 13 7 5 5 11 26 28 16 8 6 5 11 22 28 23 20 9 15 4 17 10 13 12 9 6 6 1 4 1
18 18 19 20 21 22 24 25 25 23 21 20 22 21 17 15 11 12 10 10 11 11 16 21 21 14 30 6 8 12 13 16 21 19 9 15 12 12 14 12 10 4 7 4 4 2 3
18 19 19 19 20 21 22 23 22 20 19 18 21 19 15 13 12 13 14 15 19 15 20 17 22 27 25 16 3 13 10 13 13 22 9 18 12 12 12 6 8 9 4 3 3 3 1
19 19 19 18 18 19 20 20 20 17 17 18 18 15 15 11 12 16 19 21 17 11 14 24 25 11 16 25 6 8 15 9 12 19 16 10 14 11 9 8 7 6 5 2 3 4 3
19 20 18 17 17 17 19 18 17 14 15 17 15 11 11 9 10 15 19 19 11 9 9 14 22 29 19 16 3 22 21 20 17 19 15 15 10 9 11 9 8 5 2 2 3 3 5
22 20 17 16 17 16 17 15 15 12 13 13 11 6 7 8 9 15 16 18 16 12 6 11 20 18 19 22 10 16 20 19 20 17 15 10 12 7 7 9 7 4 1 3 4 4 7
22 19 18 18 15 15 15 12 13 11 8 9 8 5 5 5 6 12 15 13 15 17 10 8 11 20 16 13 21 25 22 22 21 15 15 13 15 12 10 5 1 2 4 5 11 14 12
21 19 18 17 15 14 14 11 12 9 2 5 8 6 2 4 7 10 13 11 17 15 13 14 11 12 14 16 18 16 15 14 11 9 9 9 7 5 5 4 1 9 10 13 7 10 16
22 19 18 17 14 14 13 11 12 11 7 3 5 6 4 3 7 10 11 14 15 17 16 13 11 10 11 10 7 6 6 6 6 5 6 6 4 3 3 3 7 8 6 6 6 7 12
21 20 18 17 15 14 13 13 13 12 9 7 4 6 6 4 6 9 11 11 12 14 15 12 11 8 7 5 3 4 4 4 2 1 1 4 3 4 2 4 2 3 9 7 7 9 13
22 20 19 18 16 15 13 14 15 14 11 9 5 6 8 7 8 7 10 10 10 8 8 10 10 10 9 9 4 3 5 10 9 12 9 5 5 4 2 2 8 9 5 3 13 14 13
23 21 19 19 17 15 14 15 15 15 12 11 8 6 8 7 3 7 5 7 7 9 6 6 6 8 11 8 5 4 4 3 2 3 11 9 5 3 3 2 2 3 5 11 17 10 6
25 23 21 20 19 16 15 15 16 16 14 14 11 8 9 10 1 9 6 5 4 5 7 7 6 6 8 7 6 6 4 3 2 3 5 6 4 0 3 2 6 10 11 10 2 7 12
27 24 23 22 19 17 16 17 17 16 13 16 13 11 10 9 6 9 7 5 5 5 3 5 6 7 3 7 5 4 4 4 3 3 4 4 4 3 2 2 3 3 15 12 9 9 12
27 26 24 22 20 18 18 18 18 19 15 16 15 10 11 11 6 6 4 9 9 9 6 2 2 6 6 5 6 4 3 3 4 3 3 1 3 4 2 4 16 22 20 10 8 7 10

GFSGBSN_700_spd_102.txt.gz
Wind_Speed
13 12 10 9 10 11 12 14 16 18 19 21 23 24 26 28 30 31 32 32 32 34 35 37 40 43 42 41 38 31 33 31 31 19 21 25 31 36 35 29 31 36 31 28 33 36 34
13 10 10 9 10 11 13 15 17 18 20 22 24 26 27 29 32 34 36 36 36 36 36 36 37 39 45 52 35 29 29 28 30 28 28 17 24 30 24 30 30 21 29 32 27 31 36
13 11 10 10 9 12 14 16 18 20 21 22 24 27 30 32 35 37 39 39 36 37 36 35 37 38 42 47 37 34 29 28 24 28 32 27 20 20 24 22 29 27 28 23 24 24 33
14 12 11 10 11 13 15 16 18 20 22 23 25 28 30 33 36 38 41 42 39 38 37 34 35 38 42 44 38 34 33 35 30 31 29 31 25 26 22 19 16 23 26 30 27 26 28
15 13 11 11 11 12 14 16 19 20 21 23 25 28 31 33 36 40 42 42 40 39 39 36 34 35 40 35 27 28 35 37 33 32 29 28 37 30 21 21 21 20 25 21 20 19 17
15 13 12 10 10 11 13 16 18 20 22 25 28 30 33 35 38 40 42 42 40 40 39 36 35 28 23 25 19 13 14 16 27 33 34 29 37 28 27 28 34 23 20 24 22 17 19
15 13 11 10 10 11 14 17 19 21 23 26 29 32 35 36 38 40 43 43 42 42 35 31 29 34 30 24 22 26 31 25 19 30 36 33 32 41 34 30 25 21 21 21 16 16 18
15 12 11 10 10 12 15 18 21 23 25 27 30 33 35 36 36 37 38 38 37 36 41 37 28 27 28 25 35 24 17 20 21 26 27 28 38 31 26 26 26 24 20 20 18 20 21
14 13 12 10 11 13 16 19 21 24 26 29 32 34 35 34 33 33 33 32 30 28 32 38 17 13 14 14 30 28 30 23 20 21 31 32 24 29 27 26 26 26 25 19 18 15 21
15 13 12 11 11 13 17 20 22 25 27 30 32 33 33 33 32 32 28 26 24 23 19 20 11 11 14 14 14 24 30 26 20 25 22 21 21 17 25 29 25 25 19 19 16 12 10
15 14 12 10 11 14 17 20 23 25 27 30 31 31 31 32 32 29 26 20 18 14 7 5 6 13 26 15 14 5 21 32 24 21 23 18 21 20 17 22 24 22 17 12 13 13 14
17 14 11 11 12 14 18 20 23 25 27 28 28 30 31 30 28 28 24 18 12 6 10 7 10 14 24 24 18 16 13 27 20 20 19 12 15 16 18 17 15 13 10 7 6 7 8
17 13 12 12 13 15 17 20 22 24 26 25 26 29 29 29 28 24 19 13 6 11 8 7 16 23 31 26 11 13 16 31 27 25 21 15 13 13 17 20 14 13 14 6 5 5 6
17 14 13 12 13 15 17 20 21 23 23 22 25 26 27 27 24 20 16 7 7 8 13 20 23 26 15 15 10 11 14 32 26 18 23 19 10 17 18 16 13 19 18 6 7 5 5
18 16 14 12 13 15 17 19 20 22 21 20 21 24 25 21 17 16 16 4 9 14 16 21 26 16 22 32 10 9 16 32 30 19 10 17 8 19 18 17 12 16 13 9 3 1 3
19 17 14 13 13 15 17 18 19 20 18 18 20 21 19 15 12 15 15 10 10 16 19 19 17 14 33 34 16 9 16 22 22 21 11 10 9 15 16 14 18 9 13 5 6 5 5
20 17 14 13 13 14 16 17 17 18 16 17 18 18 15 12 9 14 11 13 18 13 13 12 20 27 27 26 27 8 12 18 14 22 17 17 11 15 19 12 17 12 8 4 4 1 2
21 17 15 14 14 13 15 15 15 14 13 15 15 13 12 11 11 13 13 16 17 15 10 11 22 24 28 27 17 5 13 10 25 20 14 14 12 20 14 12 14 10 9 6 5 6 3
21 18 17 15 14 13 14 13 13 11 10 12 11 9 9 9 8 12 13 14 15 20 12 16 21 31 27 20 9 16 15 14 20 19 17 14 14 14 10 9 10 8 8 6 4 4 4
21 20 17 15 13 13 13 12 11 8 8 8 9 6 6 6 9 15 15 15 20 19 8 14 21 28 28 18 16 16 19 14 18 20 17 10 11 8 8 13 14 11 9 6 4 3 2
23 21 18 16 14 14 11 10 10 6 5 5 7 4 3 3 6 11 16 13 19 21 17 21 16 24 27 28 30 29 25 20 18 21 17 15 12 14 13 12 11 11 8 5 2 5 6
23 22 18 15 15 13 11 10 8 5 5 2 5 4 2 1 3 8 12 16 19 18 21 20 16 18 20 20 21 16 18 16 13 17 16 18 4 9 11 7 6 4 2 4 3 3 7
24 22 19 17 15 13 12 11 10 6 7 6 2 3 2 1 2 6 9 13 16 19 16 17 16 15 15 15 10 7 9 9 11 10 10 6 4 5 4 2 0 4 7 4 2 3 5
24 22 19 17 16 15 13 12 11 9 9 9 6 1 2 2 3 6 8 8 9 11 12 13 13 11 11 11 8 9 7 5 6 3 4 5 5 4 3 2 3 5 2 4 3 6 8
24 22 20 19 17 16 15 13 11 11 10 9 8 4 2 3 4 5 8 7 6 8 8 8 8 12 13 10 6 6 8 9 12 13 6 5 4 5 2 5 7 7 5 6 7 5 8
24 23 21 20 19 18 16 14 13 12 12 12 9 6 2 2 2 4 4 6 4 6 6 6 8 8 12 11 7 5 4 3 4 3 10 6 4 3 2 2 3 3 5 10 8 3 2
25 23 22 21 20 19 17 15 14 14 13 12 10 7 4 3 3 4 3 5 5 5 6 6 5 5 6 7 7 5 4 3 2 3 5 4 5 5 3 3 3 0 8 9 2 5 12
26 25 24 22 21 20 19 16 16 16 14 13 10 8 6 5 5 6 2 1 4 6 5 4 4 6 3 6 4 4 3 4 2 3 2 2 2 3 3 1 1 4 15 7 3 7 10
26 26 24 23 22 22 20 18 18 19 16 12 10 9 8 7 4 5 5 6 5 6 7 2 1 5 5 5 3 4 2 2 3 2 4 2 5 2 2 1 8 17 11 5 6 6 6

GFSGBSN_700_spd_108.txt.gz
Wind_Speed
35 32 29 26 22 20 16 14 13 12 13 15 16 17 18 19 19 19 20 22 24 27 28 30 32 33 33 34 34 26 33 31 30 31 32 31 29 25 37 33 32 41 47 38 38 36 33
35 32 29 26 23 20 18 16 13 13 14 15 16 17 18 17 18 19 21 23 26 28 29 31 33 34 36 40 31 29 28 34 30 28 30 32 32 24 28 31 37 41 39 41 37 38 37
37 32 28 26 23 20 17 14 13 14 14 14 14 14 16 18 20 21 23 25 27 30 31 33 34 35 40 36 31 31 28 31 33 29 28 25 25 26 26 31 32 34 40 40 42 42 39
46 34 27 26 23 20 16 14 13 13 12 12 12 14 16 19 22 24 26 28 29 31 33 33 34 34 40 33 33 27 25 31 33 35 35 34 29 28 29 30 29 35 34 44 48 36 38
52 38 26 26 23 20 16 15 13 11 10 11 12 15 18 21 24 26 28 30 31 34 35 34 31 32 31 28 29 30 21 21 23 28 33 30 35 32 23 29 31 32 41 43 41 36 36
50 38 28 27 23 20 17 15 12 10 10 10 13 17 20 22 25 28 30 32 33 34 37 31 25 26 26 21 16 26 20 23 20 19 21 24 27 30 31 32 38 41 39 37 38 30 37
48 34 29 27 23 20 18 14 11 10 10 12 14 17 20 22 25 29 32 33 36 34 36 38 29 41 42 31 29 33 27 25 23 21 24 23 28 38 43 43 39 36 36 33 31 32 34
41 31 29 28 24 21 17 13 9 10 10 12 14 17 20 23 27 30 32 34 34 36 48 45 43 44 38 30 38 34 23 25 24 31 24 22 37 43 36 32 36 37 36 38 31 33 25
33 33 31 28 24 21 15 11 9 9 10 12 14 17 21 24 27 30 33 32 36 37 38 39 20 17 15 16 22 22 16 22 26 30 30 32 35 31 34 35 36 39 39 32 29 21 21
35 33 31 28 23 17 14 11 10 9 10 12 15 18 20 25 28 28 24 30 31 31 21 14 7 3 10 12 20 16 12 23 25 34 32 35 30 28 32 37 35 36 32 30 25 22 19
35 34 31 25 22 18 14 12 10 8 10 12 16 19 22 24 26 26 26 25 21 16 6 11 12 14 23 22 31 15 23 21 25 29 27 41 32 30 36 35 33 34 26 22 21 20 23
36 34 26 27 21 17 14 12 9 9 10 13 16 19 22 25 28 24 21 16 13 7 4 20 24 32 34 30 27 31 25 24 21 23 30 34 22 28 32 22 29 23 12 14 14 18 19
37 29 31 24 20 17 14 11 9 9 10 13 16 18 20 21 17 15 13 14 8 5 27 25 36 31 32 34 36 23 25 31 25 22 36 31 28 24 23 27 25 21 19 4 9 8 12
32 34 26 23 21 17 14 11 9 8 10 12 15 17 17 17 15 14 11 13 8 18 21 28 29 33 23 23 22 29 26 23 26 27 26 27 12 25 21 24 25 28 28 11 8 9 12
37 31 27 25 21 17 13 11 9 7 9 12 14 14 15 15 12 11 12 6 10 17 21 27 32 21 26 28 33 33 21 18 20 27 30 15 17 26 18 21 23 28 35 32 6 7 3
34 30 29 24 21 17 13 11 8 6 8 10 12 14 11 11 9 7 8 7 12 14 17 21 18 21 36 46 36 20 13 7 13 20 23 15 5 20 15 24 21 25 30 17 9 5 3
34 32 28 25 21 17 14 11 7 7 7 8 9 8 10 9 8 12 6 9 12 15 18 17 26 31 35 29 30 21 11 6 10 17 14 15 12 13 13 15 20 29 25 14 15 13 2
36 31 28 25 22 18 14 11 8 7 6 7 6 1 7 5 8 8 9 9 14 15 14 13 20 27 36 34 16 23 21 11 5 15 17 8 8 12 22 7 13 10 16 25 5 7 4
34 30 28 25 21 18 15 12 9 6 6 5 1 4 4 1 3 3 9 8 11 10 15 19 22 29 34 31 15 30 12 12 3 2 4 2 2 3 6 13 15 19 15 14 10 5 3
31 30 28 25 22 19 15 13 10 8 6 5 3 3 5 3 5 4 7 7 11 9 10 19 20 28 31 33 26 26 19 14 13 1 3 2 2 3 4 3 16 14 13 10 5 4 6
29 29 28 25 22 19 16 14 11 9 7 6 3 1 2 2 4 4 5 7 10 15 10 19 17 21 24 29 28 33 27 7 7 7 3 6 6 3 10 13 15 10 10 8 5 3 5
29 29 29 26 23 20 18 14 13 11 8 7 4 5 5 3 4 5 6 6 9 14 12 18 18 16 19 21 21 25 21 16 13 8 10 9 3 13 22 17 21 15 8 11 9 13 14
31 31 29 26 24 21 18 16 13 10 10 11 6 4 4 4 2 4 6 8 12 13 8 15 18 16 15 17 17 15 11 14 12 10 1 11 9 11 15 16 16 17 17 19 20 17 10
30 30 29 27 24 22 20 17 14 13 13 13 10 11 5 3 4 6 7 8 9 10 11 14 15 14 12 8 11 9 10 16 13 13 11 7 8 7 3 5 4 12 16 16 16 17 16
28 29 28 26 25 23 20 18 16 13 13 12 12 12 11 9 3 8 7 8 7 8 9 11 15 13 11 6 11 5 6 5 8 13 8 6 3 3 3 3 15 8 10 11 12 14 11
27 29 28 27 25 23 20 18 16 14 13 13 13 10 8 5 4 7 5 6 6 8 6 10 13 12 9 7 9 10 6 11 7 3 10 9 6 1 1 5 1 7 7 4 3 9 10
26 28 27 26 24 22 20 18 16 15 13 13 11 11 10 9 3 6 3 6 5 7 9 12 13 11 6 10 9 8 5 10 8 10 12 10 8 10 5 4 6 8 6 2 3 4 8
25 25 25 25 24 23 21 19 17 15 12 12 12 13 12 10 9 7 5 4 1 4 8 12 6 10 7 10 6 6 6 7 7 10 10 8 10 9 10 7 4 10 5 4 7 5 5
25 27 27 26 24 23 21 20 17 15 14 14 10 16 13 8 4 3 4 5 6 7 9 2 5 8 8 5 6 4 6 8 11 3 11 8 9 4 6 4 7 9 10 10 5 4 4

GFSGBSN_700_spd_111.txt.gz
Wind_Speed
39 36 37 36 33 26 24 22 19 17 16 15 14 15 16 15 14 14 15 18 20 21 23 26 27 29 30 33 28 31 30 28 29 28 28 28 30 29 36 34 34 42 50 42 43 36 42
42 37 38 40 36 28 25 23 21 18 16 15 15 15 14 12 13 13 16 19 23 24 26 27 29 32 36 35 30 28 29 33 32 32 30 31 30 30 39 33 28 34 45 44 41 41 40
45 44 42 40 42 30 24 23 20 18 15 15 13 13 12 12 13 15 18 21 24 25 27 29 32 36 41 32 33 36 34 31 31 35 34 32 24 21 32 32 33 30 35 40 45 46 45
47 43 44 42 42 35 24 23 21 17 15 13 12 12 11 13 16 18 20 22 25 27 29 31 35 39 43 39 35 29 28 29 26 29 33 32 31 34 35 37 37 32 30 41 52 49 46
51 48 50 47 45 39 25 23 21 17 15 12 11 11 13 15 17 20 22 24 26 28 31 34 37 38 41 29 32 31 31 22 21 24 25 29 31 36 37 40 39 38 39 38 46 35 39
57 49 52 51 47 39 27 25 22 18 14 12 11 12 14 16 18 21 24 26 27 31 34 33 32 36 33 34 27 9 11 11 22 23 20 20 24 28 38 40 29 31 30 36 39 32 31
58 56 56 54 50 31 27 25 21 17 14 11 11 12 13 16 19 24 26 27 28 34 33 32 33 36 30 26 35 37 28 31 28 28 29 22 28 41 39 39 43 34 26 32 31 30 37
62 54 56 54 48 31 30 25 21 19 14 11 10 11 12 16 20 24 28 30 32 34 42 23 13 11 15 19 27 12 18 20 29 30 32 30 40 34 34 33 33 37 35 38 36 35 29
66 58 58 54 40 37 28 25 24 17 11 10 9 10 13 15 20 24 26 29 30 32 29 13 16 15 12 21 28 26 17 27 27 34 31 33 39 30 31 34 31 36 37 35 34 34 29
60 56 56 49 33 31 29 26 21 13 15 11 7 8 12 15 18 22 25 24 26 24 7 14 14 18 24 28 23 17 35 25 34 23 31 33 32 33 35 35 29 35 33 35 35 31 19
62 54 42 35 35 33 30 25 16 19 12 9 6 8 12 15 18 20 19 21 17 11 4 11 19 31 34 32 28 30 25 30 33 23 22 35 28 34 35 28 33 33 29 30 30 7 11
41 41 36 36 36 33 27 19 22 16 12 7 5 7 12 15 16 18 18 16 10 7 4 15 24 29 35 27 26 26 24 23 27 33 32 36 27 30 30 30 26 31 29 10 15 6 7
44 39 38 37 34 28 24 24 21 16 10 6 4 7 11 13 14 14 14 9 7 7 17 14 34 33 24 28 31 28 26 21 22 17 24 21 26 25 30 32 24 24 21 4 1 4 6
41 41 39 37 30 28 26 26 19 14 10 5 3 6 8 10 9 10 8 9 7 9 13 23 32 28 21 37 34 33 29 23 8 18 22 11 9 21 18 27 19 14 25 10 5 4 2
41 39 39 33 32 28 28 21 18 14 9 5 3 5 4 6 9 7 3 12 5 14 21 28 31 22 32 39 25 28 29 15 13 6 15 4 14 16 21 16 14 26 23 24 0 1 3
40 39 34 32 29 31 25 21 17 13 8 5 3 4 4 8 7 6 6 6 8 11 19 19 17 17 27 38 29 26 23 12 22 9 8 9 9 20 21 10 10 30 25 16 8 2 4
40 36 36 32 34 28 24 19 16 11 8 5 3 3 4 6 7 4 9 4 8 13 15 11 17 19 26 29 21 22 18 10 10 1 6 9 13 9 22 14 15 15 20 14 10 11 2
35 39 34 36 31 26 22 19 16 12 8 5 4 1 1 3 5 8 9 6 13 11 12 14 16 23 24 28 19 24 32 18 23 4 5 8 14 3 6 16 16 16 15 24 6 3 5
38 35 35 35 28 25 22 19 15 12 9 7 6 3 1 4 5 6 2 4 6 17 9 16 15 22 23 25 15 23 28 17 27 7 9 5 6 4 3 0 8 13 24 26 15 1 6
36 35 37 30 28 25 22 19 15 12 10 8 6 5 4 4 6 7 2 4 9 12 8 17 13 19 24 19 21 22 32 18 20 11 5 5 8 11 5 9 3 8 13 16 18 4 8
32 38 32 29 27 25 22 19 15 12 10 8 7 7 5 5 3 3 4 5 7 14 15 17 20 16 19 21 19 28 28 14 9 15 10 7 14 19 7 7 12 10 16 11 14 9 12
33 34 33 30 27 25 22 18 16 13 12 11 10 8 7 5 4 2 3 1 6 11 15 15 21 19 11 15 18 23 21 19 22 16 7 10 12 24 34 25 23 29 21 20 27 23 22
31 29 30 30 28 26 23 19 16 14 13 14 12 10 8 10 4 4 4 5 5 9 7 12 19 18 11 6 13 14 12 15 14 20 5 9 10 9 7 9 17 25 23 24 26 25 21
32 32 34 32 29 26 22 20 17 16 14 12 8 9 11 11 8 1 9 12 3 6 12 12 18 18 15 8 7 10 9 8 9 13 18 9 12 4 4 6 5 13 21 22 24 22 20
33 32 31 31 28 25 22 20 18 16 14 13 10 11 9 16 6 4 5 3 1 6 3 9 16 19 14 9 10 7 10 8 6 7 13 14 9 4 3 4 11 11 14 16 13 20 17
26 29 30 29 27 25 23 21 18 16 14 13 11 11 10 12 10 7 6 5 5 10 8 9 9 14 10 6 8 5 6 11 7 9 10 7 12 6 9 4 5 10 9 6 10 17 13
26 29 28 28 27 25 23 20 18 16 15 13 12 14 13 13 10 6 8 8 9 8 9 12 12 9 9 5 8 6 6 8 7 13 19 16 13 18 19 7 6 11 6 6 4 4 9
20 24 26 27 26 24 22 21 19 17 14 13 12 12 12 11 8 2 2 4 3 6 9 10 6 6 7 9 7 5 7 11 15 15 11 15 10 11 8 6 4 16 5 5 9 5 5
19 21 22 24 24 23 22 21 19 17 15 14 13 13 11 9 5 4 1 3 3 6 7 3 3 6 7 7 7 5 6 10 11 5 12 9 10 6 7 7 9 11 13 12 7 4 4

GFSGBSN_700_spd_114.txt.gz
Wind_Speed
37 41 37 33 33 30 34 34 29 23 22 19 18 18 17 17 18 18 16 16 17 18 20 21 21 22 22 20 25 29 27 27 26 29 28 28 30 29 34 35 33 43 49 46 49 50 51
40 44 41 36 35 32 34 34 35 26 23 22 22 22 22 19 16 15 14 16 17 19 21 23 24 25 25 27 26 27 30 31 30 31 31 31 32 28 40 42 40 41 40 46 46 50 50
45 45 42 37 39 36 39 33 32 28 25 23 20 19 17 16 14 13 14 17 18 20 21 23 26 30 27 28 30 28 30 26 25 27 29 30 29 32 37 40 40 42 39 45 45 50 49
51 52 47 40 42 39 36 38 35 34 25 23 20 18 16 15 14 15 15 17 20 21 21 24 28 32 32 30 21 22 31 27 25 27 31 31 28 33 35 37 39 29 30 39 51 43 42
51 56 51 48 50 39 44 40 40 33 28 25 21 17 15 14 14 15 15 17 21 22 21 25 30 32 28 20 27 26 30 36 37 32 27 21 25 33 36 36 38 41 37 39 47 33 31
56 58 56 49 44 43 42 44 41 38 26 23 21 17 16 15 15 16 15 18 21 22 23 24 28 26 21 28 33 27 29 30 31 29 28 23 23 25 29 28 30 37 29 35 38 43 29
58 60 57 48 52 49 45 46 43 33 24 25 21 18 15 16 16 16 16 18 22 24 21 24 27 29 23 25 24 24 27 26 32 31 32 26 29 31 28 33 36 38 36 38 36 36 28
59 63 62 54 50 53 52 44 34 27 28 25 21 20 17 15 16 17 17 19 19 21 18 17 13 17 24 28 34 33 30 25 21 31 25 26 32 41 41 32 32 37 38 41 47 43 29
62 69 64 58 55 52 48 41 33 32 28 25 22 18 13 15 17 17 18 20 21 20 9 5 14 21 23 31 38 29 17 21 27 32 33 30 41 30 28 36 34 35 38 38 37 39 36
66 65 72 65 50 54 44 39 38 30 26 27 18 16 18 14 15 16 17 18 18 13 5 5 12 13 25 31 23 23 25 32 30 34 26 24 19 21 31 33 29 29 36 36 35 27 22
70 61 64 54 52 47 44 41 29 29 29 21 19 18 13 13 14 13 14 14 8 3 2 6 10 19 25 17 26 30 18 21 33 35 29 46 37 30 28 32 24 32 22 35 32 29 21
60 72 54 58 50 48 39 36 34 31 26 20 19 15 13 13 11 10 11 7 4 3 1 7 16 21 23 19 26 27 19 19 25 31 33 39 27 28 24 26 21 23 27 20 19 19 11
57 60 55 56 43 41 40 38 35 29 23 20 19 14 14 10 7 7 4 4 3 6 8 8 21 19 26 31 25 20 22 14 13 12 17 23 18 16 20 22 21 19 19 3 4 4 5
62 60 45 44 45 41 37 36 31 25 23 21 15 15 12 7 5 3 4 7 5 2 8 18 22 18 24 31 23 28 18 19 14 12 14 7 9 1 8 17 17 18 22 9 6 4 4
50 39 45 44 41 40 38 32 25 29 24 18 16 13 9 5 4 4 8 5 4 5 12 19 18 18 26 27 22 20 20 20 19 19 6 4 4 3 7 13 14 14 23 27 12 10 3
28 41 46 41 42 38 33 28 31 27 21 19 15 11 7 7 5 8 7 9 6 6 11 9 14 14 22 28 21 20 20 13 13 15 7 8 12 6 12 14 18 22 19 16 11 3 2
44 43 40 42 36 32 31 34 26 24 21 18 15 12 8 8 9 9 11 10 8 5 8 11 13 17 21 26 20 21 22 15 17 8 5 13 12 21 27 11 10 9 23 13 12 3 1
39 41 44 37 37 33 35 26 24 23 20 18 14 11 9 11 12 11 13 8 7 5 6 6 10 15 20 23 16 19 24 17 19 13 10 10 18 27 11 11 11 9 16 18 6 1 7
40 41 35 39 34 34 26 26 24 22 18 16 14 12 10 13 11 11 13 9 7 1 5 8 10 16 21 18 10 16 17 13 17 15 14 10 10 9 5 8 19 12 9 12 10 6 2
42 31 38 33 34 32 27 25 23 20 20 18 14 10 11 13 13 12 13 11 4 3 2 6 8 17 19 16 13 16 21 12 15 12 11 3 10 8 7 9 14 6 20 20 10 10 19
33 37 37 34 36 27 26 25 21 21 20 18 14 9 11 13 14 11 13 8 3 2 5 8 8 16 20 15 17 20 20 17 18 13 11 9 19 22 3 14 29 27 11 17 19 20 9
34 41 26 37 31 26 25 23 22 21 19 18 15 13 12 11 13 10 9 5 3 1 5 10 12 11 14 14 16 18 18 16 18 19 13 11 11 24 32 31 30 39 40 40 31 23 20
40 30 32 38 25 25 25 23 21 21 20 20 16 14 15 16 14 7 5 3 5 2 3 9 12 12 10 13 9 9 8 11 12 14 14 9 12 9 5 12 7 31 30 33 30 23 19
36 37 39 35 26 26 25 26 22 21 20 16 13 14 15 16 11 6 6 6 5 4 3 8 11 10 15 12 8 6 11 5 9 12 12 7 8 6 5 8 6 13 13 25 29 25 18
38 37 32 32 30 25 27 26 23 21 18 16 13 13 15 19 15 12 12 9 14 11 8 12 10 11 15 12 5 3 8 6 7 11 17 14 7 3 3 13 14 18 12 14 18 23 19
36 34 33 34 35 29 29 25 23 20 19 17 16 15 14 17 17 14 9 7 10 10 12 13 12 12 12 9 5 5 6 8 6 4 12 11 4 4 3 5 3 15 2 8 10 18 14
29 32 30 34 34 31 26 25 22 20 19 16 16 15 16 16 14 9 4 4 6 6 8 8 8 5 5 4 4 6 6 8 7 11 17 12 13 18 16 6 5 14 6 9 4 3 8
29 32 34 29 26 30 29 25 23 21 17 16 16 14 14 15 6 6 3 2 2 3 5 4 4 2 3 4 5 4 7 9 5 14 7 16 9 9 6 6 4 14 5 2 9 5 5
30 24 32 34 31 28 26 25 23 20 18 17 15 14 15 14 10 7 4 3 3 4 5 3 3 4 6 5 5 5 9 7 10 4 13 8 10 7 5 7 8 11 14 11 7 4 5

GFSGBSN_700_spd_117.txt.gz
Wind_Speed
43 40 36 35 29 33 31 30 29 26 26 26 24 24 21 20 20 21 21 22 20 19 20 21 19 17 15 15 22 22 22 20 23 24 25 25 26 26 31 32 33 42 45 46 49 50 49
44 40 40 42 35 35 34 32 31 28 25 27 25 26 26 26 26 26 23 21 19 18 19 21 20 19 18 21 24 25 26 28 29 30 28 28 28 27 36 39 38 41 45 49 50 50 47
48 45 45 43 41 38 37 35 35 29 30 30 25 28 28 26 25 23 21 20 19 19 21 22 23 20 20 24 25 29 29 26 24 26 29 27 29 30 33 36 36 41 46 51 56 51 48
55 52 51 47 44 43 41 37 34 32 31 31 32 30 28 26 25 22 20 19 20 20 22 24 25 23 27 27 25 21 20 26 31 31 32 32 33 35 33 35 39 36 36 41 50 37 35
53 54 56 52 46 45 43 44 38 37 34 37 33 31 28 27 25 20 19 20 19 21 22 25 26 27 24 16 17 24 30 31 27 27 28 29 28 26 28 32 37 35 35 36 54 42 39
52 54 57 57 51 50 48 47 43 43 33 38 36 32 27 29 24 19 20 20 20 22 22 25 26 17 17 18 21 22 27 29 32 29 27 24 27 28 23 21 29 31 31 36 38 49 33
57 53 58 58 55 52 49 41 42 41 40 39 39 34 27 28 23 20 19 20 21 22 20 22 23 24 18 20 18 16 21 23 21 22 25 24 23 31 37 33 30 31 33 38 40 37 42
58 54 53 58 56 59 53 52 54 43 45 35 42 25 29 26 23 20 19 20 20 19 19 22 18 15 19 24 24 17 21 26 25 26 24 25 30 26 26 35 37 38 33 36 38 34 31
60 58 56 57 57 59 50 57 54 44 44 41 29 30 29 28 22 18 20 22 22 19 18 18 12 13 18 26 28 16 30 28 28 30 28 27 31 23 25 27 30 31 30 40 37 39 39
61 61 61 55 57 62 53 56 45 44 48 31 31 30 29 25 20 19 20 21 18 17 10 7 5 9 17 24 13 28 26 25 26 24 24 24 25 21 22 26 19 34 27 26 34 33 27
57 59 63 63 61 59 54 49 43 47 43 33 32 32 29 23 20 19 19 17 15 11 1 4 5 12 18 21 25 19 17 22 24 27 21 34 29 29 33 38 28 38 22 22 22 25 27
53 58 57 63 65 55 47 44 44 40 36 35 34 32 25 20 20 17 14 14 9 4 2 3 7 15 18 17 13 15 12 14 18 21 19 26 24 30 24 22 21 19 17 23 28 25 8
51 69 68 57 65 53 47 46 46 41 38 37 33 28 23 20 17 15 12 10 6 4 3 3 10 15 14 22 9 15 9 14 15 15 19 27 10 10 13 23 16 13 16 5 2 2 5
54 64 62 65 67 45 54 47 42 41 37 34 30 26 22 19 15 14 11 12 4 5 1 7 12 10 12 22 12 15 8 13 16 17 19 10 10 11 3 7 11 18 21 8 3 3 4
71 71 60 64 62 47 47 41 42 42 38 34 30 24 18 15 15 13 13 10 6 5 1 7 9 10 15 20 13 19 17 14 17 9 8 9 8 21 12 4 9 11 24 24 21 18 5
71 69 62 53 52 38 43 44 43 38 36 33 26 19 17 16 14 14 16 9 9 5 4 4 8 11 15 20 16 18 17 7 14 7 8 8 13 13 10 14 16 20 13 7 13 3 5
18 22 24 25 36 45 48 41 37 37 32 29 23 19 18 15 15 16 12 12 11 6 3 4 6 9 14 19 16 15 14 6 15 10 5 11 11 19 24 21 12 15 19 16 11 6 2
23 26 30 40 50 46 41 37 36 34 32 26 23 19 18 17 18 15 15 17 11 5 3 2 4 9 16 14 11 13 14 7 14 18 16 12 12 17 21 6 5 8 13 19 8 3 0
29 38 47 48 42 38 37 39 39 31 28 26 23 19 20 20 15 19 18 13 12 7 4 3 4 11 15 11 8 12 15 6 12 17 17 12 8 12 7 7 9 10 5 10 12 3 5
39 42 47 40 36 35 37 39 30 28 26 24 23 17 21 21 17 17 19 16 11 5 4 1 2 6 10 11 14 10 18 9 11 12 12 6 17 19 10 12 15 14 16 6 10 3 9
39 45 36 30 34 34 39 30 27 25 24 24 21 15 17 23 20 18 18 13 10 7 4 2 2 5 10 12 15 10 16 16 8 16 9 10 20 30 29 21 20 7 16 19 25 18 9
40 37 28 35 33 34 30 24 22 24 24 21 19 15 17 15 17 19 18 11 11 8 5 5 4 3 7 10 17 20 17 14 17 15 12 11 11 9 17 30 41 43 39 37 33 24 23
35 28 34 29 35 35 26 23 23 23 20 18 17 14 17 20 20 16 15 12 9 8 7 8 8 7 7 11 13 8 6 9 12 17 13 12 12 9 10 13 11 30 29 27 25 19 16
31 29 37 26 34 26 23 23 22 20 17 17 16 15 17 20 17 13 12 10 8 11 12 12 10 8 9 9 9 3 4 3 7 15 12 11 6 5 3 4 6 6 21 25 24 21 16
31 33 30 33 28 21 22 23 20 18 16 16 16 17 17 21 16 14 13 11 11 13 13 11 10 9 9 9 5 4 4 2 3 11 11 8 3 4 4 14 13 9 10 16 18 19 15
33 35 33 33 25 21 20 21 19 18 17 18 17 18 18 20 18 12 9 8 8 12 12 14 12 9 9 7 4 3 4 7 4 1 7 9 4 4 5 4 3 8 3 10 14 12 10
29 42 40 39 27 27 23 24 27 19 19 18 18 19 19 19 15 13 8 7 6 7 8 7 5 6 5 2 2 2 2 4 6 10 15 8 12 14 11 5 4 4 6 10 1 3 7
27 32 39 41 32 29 24 28 23 21 19 18 18 19 19 18 11 11 6 5 4 3 2 3 3 2 3 1 3 3 3 5 5 13 8 13 6 6 4 4 3 4 11 3 10 8 6
20 33 30 30 33 30 28 27 23 20 19 19 17 17 17 18 10 9 9 6 3 2 2 1 4 3 3 2 4 4 5 3 7 3 11 4 9 3 4 6 8 12 13 11 9 7 6

GFSGBSN_700_spd_120.txt.gz
Wind_Speed
42 46 44 41 37 35 33 28 25 29 23 23 22 20 21 21 22 23 23 25 28 28 22 20 19 18 18 19 21 22 24 25 24 24 25 26 26 27 30 31 33 38 43 42 45 46 47
52 48 48 44 41 38 36 32 29 26 29 27 25 24 22 22 25 27 27 28 27 26 23 20 19 19 21 24 23 22 23 26 28 27 26 25 26 27 34 36 36 40 44 46 47 48 46
51 50 53 51 47 44 39 38 36 33 32 30 29 28 26 20 26 28 26 26 26 25 24 23 21 20 22 25 24 26 29 28 23 21 22 26 29 30 32 36 33 37 46 49 51 45 45
53 54 52 52 50 49 42 43 37 36 34 33 29 28 24 25 28 27 25 26 26 24 24 23 23 23 25 25 25 23 21 20 26 30 28 24 26 27 29 33 39 41 44 49 45 37 40
56 54 54 55 53 51 47 46 42 40 37 36 35 32 33 29 28 26 25 27 25 24 24 24 24 23 26 17 12 17 24 26 23 22 18 16 19 22 25 29 36 31 40 44 58 38 40
58 58 56 56 54 55 56 46 49 47 40 43 38 38 34 33 29 26 27 27 24 24 24 25 27 20 14 14 17 17 24 23 18 19 18 14 17 22 27 26 30 26 27 35 44 46 40
59 59 58 59 57 55 56 54 53 45 49 41 40 42 36 35 31 26 25 26 24 23 25 25 24 24 20 16 15 20 20 15 21 18 21 18 19 28 23 23 28 33 37 40 44 47 49
57 58 60 62 60 57 54 57 50 58 50 48 40 39 37 39 35 24 25 28 23 22 24 25 25 22 19 16 15 18 12 24 21 21 23 25 31 13 14 18 22 28 34 38 40 39 40
59 60 61 63 64 61 55 54 59 57 51 48 46 39 37 36 26 25 26 26 23 20 20 21 20 19 15 16 18 10 24 24 21 23 19 20 26 18 18 15 13 19 27 34 39 42 33
61 62 63 61 63 59 61 54 57 53 49 52 43 43 36 31 28 27 26 24 21 19 13 12 11 9 13 16 10 23 19 18 20 19 23 14 23 23 25 26 19 26 24 25 29 26 21
59 62 59 59 61 61 64 57 48 49 50 50 42 35 42 32 27 27 24 22 19 13 3 5 7 8 12 15 13 13 15 15 17 16 17 18 25 23 28 29 24 33 24 21 17 22 31
56 54 50 55 61 57 59 58 54 53 43 46 37 36 38 30 30 27 24 18 13 7 5 6 6 8 11 10 13 9 8 11 13 14 15 20 14 13 20 19 17 15 16 13 16 24 11
50 48 47 51 58 57 58 58 48 49 44 36 42 38 32 30 31 25 21 14 8 7 6 5 7 9 8 13 8 11 6 7 12 13 19 15 5 11 15 22 9 10 4 5 4 1 6
38 44 47 51 54 54 62 58 52 49 39 35 36 39 31 29 26 22 18 14 8 8 8 6 5 4 4 11 5 11 7 5 10 11 18 10 8 12 18 16 9 10 10 4 4 3 9
25 37 43 45 47 52 54 58 51 52 41 40 38 36 32 29 25 20 17 12 7 10 9 5 3 2 4 7 6 9 6 8 11 9 9 8 9 18 10 8 9 5 15 18 19 21 10
47 62 56 68 68 50 63 67 54 47 45 43 40 32 30 26 22 19 18 12 11 12 8 4 3 2 5 7 6 8 8 4 8 9 10 10 14 12 10 29 22 20 15 3 9 4 3
52 62 70 73 71 72 54 59 48 44 49 40 35 34 29 25 22 20 17 14 15 15 10 4 3 3 5 6 7 8 7 1 11 14 12 12 11 18 26 19 11 10 19 15 10 9 1
8 8 20 30 36 39 34 36 43 50 41 38 37 28 28 25 21 19 18 17 17 15 10 6 4 5 5 7 5 8 9 7 10 16 17 7 11 13 29 12 6 8 12 15 9 5 2
17 20 18 20 20 24 38 48 48 40 39 38 33 28 25 20 21 23 20 19 18 14 10 8 4 5 7 7 4 7 11 7 11 13 14 17 9 14 10 3 6 10 6 9 15 7 5
10 12 17 27 36 47 49 39 36 38 38 35 30 21 26 24 19 19 23 22 17 12 9 8 5 3 4 4 6 6 16 8 8 13 12 4 17 17 10 10 13 18 11 11 7 0 9
15 20 30 41 46 39 36 37 38 36 34 33 31 22 23 27 21 20 22 19 17 13 10 7 7 1 2 3 6 9 13 7 5 13 9 6 3 10 21 17 24 20 11 12 3 6 7
21 29 43 38 34 34 36 36 36 32 33 29 28 22 21 16 21 21 21 16 17 13 10 10 5 3 3 5 9 13 9 8 10 15 8 9 8 6 10 16 32 35 31 31 23 20 19
22 38 35 31 32 33 37 31 28 30 26 26 21 16 18 20 24 22 20 16 15 14 12 11 7 4 3 6 9 7 5 4 7 16 16 10 10 4 5 10 8 18 27 22 21 15 14
25 28 27 30 30 32 27 25 25 25 24 22 15 11 13 18 19 19 18 16 14 12 12 10 8 5 5 5 7 4 4 4 4 11 14 13 8 3 6 6 6 5 5 17 17 16 15
24 26 25 26 27 32 24 24 24 22 19 19 12 10 12 18 20 18 17 15 12 10 12 12 9 6 3 2 2 4 4 2 4 6 11 15 11 1 2 8 8 6 6 10 12 14 13
18 28 31 24 33 30 24 24 21 20 21 14 11 12 13 16 19 14 13 9 8 9 12 10 9 6 4 2 2 2 2 1 2 3 6 9 6 5 4 2 2 0 8 9 9 8 8
19 32 36 23 32 25 25 23 22 21 18 14 13 15 15 15 15 12 9 5 7 8 8 7 6 5 4 4 5 4 3 2 2 8 9 7 8 12 8 4 3 2 10 3 2 3 6
23 30 38 30 32 22 25 24 23 20 16 13 14 15 15 15 14 11 10 6 6 5 5 5 6 6 7 6 5 4 3 3 3 8 7 8 4 4 3 3 1 4 11 2 8 7 7
21 23 35 32 32 21 23 23 22 21 14 13 15 14 15 15 10 13 8 6 5 3 2 4 6 6 5 5 5 4 4 4 4 1 6 3 7 1 2 5 10 9 9 11 9 7 6

GFSGBSN_700_spd_123.txt.gz
Wind_Speed
45 43 48 48 40 38 36 34 33 30 26 24 24 21 21 19 17 18 21 22 22 23 23 19 16 17 18 19 20 22 22 22 23 23 22 23 25 26 26 28 29 33 35 36 38 40 41
45 43 44 46 44 41 42 39 36 32 30 26 25 25 24 23 20 17 20 23 23 23 22 19 18 19 20 21 21 20 22 23 24 25 24 22 22 22 26 26 28 35 38 41 41 42 44
48 47 46 45 45 45 49 42 40 35 34 35 33 29 26 28 24 20 21 24 22 21 21 21 21 21 22 23 21 23 25 26 25 21 18 23 26 27 30 31 30 32 40 41 42 35 30
49 48 49 49 48 48 46 48 44 39 38 34 36 32 30 26 27 24 25 25 23 23 21 21 22 22 24 24 24 25 23 20 20 23 25 25 24 22 21 23 26 30 34 31 15 18 27
49 50 50 50 50 50 48 49 46 44 44 38 41 33 32 31 28 27 27 27 24 24 22 22 22 20 23 19 15 18 18 20 21 19 19 18 20 18 19 20 24 24 27 33 32 24 23
45 46 48 49 51 52 51 49 50 49 50 45 43 39 37 35 33 30 30 29 27 24 21 22 23 17 14 13 18 24 22 21 16 16 16 17 16 18 19 17 14 19 27 29 31 29 31
44 45 45 44 46 51 53 52 51 54 55 50 44 40 44 35 38 30 29 30 26 24 21 21 19 19 18 17 19 21 19 14 13 16 15 16 17 22 16 15 20 22 27 32 31 26 29
44 45 46 47 46 47 52 54 53 55 57 51 46 49 45 36 44 33 34 31 27 24 23 22 23 22 19 17 14 16 12 16 13 12 15 16 14 12 17 16 20 20 24 27 32 30 27
45 47 48 51 53 51 51 52 56 53 59 58 50 46 38 46 41 39 35 28 26 21 21 23 22 22 19 15 12 10 14 10 10 12 14 13 10 11 11 13 16 21 22 29 28 36 36
46 47 50 54 57 58 55 53 52 65 57 51 55 49 45 46 44 37 32 25 23 16 12 15 16 13 13 9 10 9 10 10 11 11 12 6 12 13 12 16 16 25 23 22 27 20 15
47 48 53 57 60 59 61 57 57 57 55 54 45 56 41 41 38 36 26 23 19 11 4 8 11 10 8 5 7 9 8 8 9 10 9 8 12 10 11 13 15 23 16 17 18 18 22
50 50 55 58 59 58 61 60 58 56 54 56 52 49 41 43 36 32 25 23 17 11 7 9 10 8 6 5 5 6 5 5 8 9 10 11 5 4 6 12 12 10 12 14 12 14 7
53 49 56 58 57 55 56 59 57 54 51 52 51 39 43 41 31 30 25 22 16 11 9 10 11 8 6 4 3 4 2 3 6 7 12 7 3 5 5 10 7 6 6 4 2 3 5
52 49 50 52 51 49 52 52 52 50 50 44 51 43 31 30 31 29 27 26 12 14 18 11 10 7 4 1 2 2 1 1 7 7 10 9 6 6 10 8 6 8 6 3 4 4 12
48 32 37 35 40 43 45 45 44 41 44 50 49 40 35 29 30 30 29 25 18 13 17 13 9 7 5 2 2 2 4 5 6 6 6 5 6 11 21 10 9 5 9 8 7 12 8
50 18 19 18 28 33 36 38 35 41 48 52 53 38 34 32 33 32 29 19 16 15 13 14 11 7 6 4 3 3 2 3 3 6 10 8 14 11 9 12 17 13 6 1 2 4 4
13 17 24 20 19 34 35 44 47 44 56 51 50 44 40 36 33 32 29 19 18 17 16 14 10 8 6 5 6 5 2 3 2 7 11 11 9 14 23 12 15 7 11 9 7 7 3
9 25 41 55 57 54 51 47 37 43 57 46 44 39 37 35 33 32 24 22 18 20 19 11 9 7 8 7 7 6 5 2 4 10 11 6 9 16 25 6 5 6 9 12 7 3 4
14 12 10 10 31 42 51 60 60 59 50 46 44 40 37 35 28 32 23 21 22 24 19 14 9 8 11 8 6 8 7 3 6 8 10 10 4 9 9 2 7 6 10 10 15 14 2
10 12 18 17 16 13 16 21 29 35 46 47 40 36 37 36 24 30 26 23 24 19 17 16 12 11 11 9 7 6 6 2 2 7 11 2 4 9 6 4 11 12 13 12 11 6 6
4 3 7 13 19 25 31 42 48 52 45 39 35 38 37 33 25 24 22 25 26 23 16 17 13 10 9 6 8 7 5 5 3 7 8 5 3 9 8 16 19 19 4 9 9 8 4
6 4 11 20 27 32 46 49 44 42 43 31 29 34 29 31 23 24 24 25 24 22 19 16 12 10 7 5 4 3 2 2 3 6 6 5 4 4 3 6 11 27 19 24 23 21 19
3 13 24 33 40 39 35 35 38 39 37 32 24 27 25 24 26 25 26 27 23 19 16 14 11 9 7 4 1 0 2 1 3 5 8 7 10 6 3 4 2 9 20 20 19 16 15
12 27 34 30 27 30 31 32 32 33 32 25 18 23 27 25 27 25 24 20 21 19 14 15 12 9 7 4 3 3 4 3 3 5 9 10 11 4 3 5 3 2 3 13 16 15 13
17 29 34 27 26 29 33 33 28 29 27 21 17 19 19 23 26 24 23 21 18 16 14 13 11 10 9 7 5 5 6 4 5 6 9 12 11 3 3 4 5 4 4 7 10 11 10
15 28 27 25 31 37 26 27 26 26 23 21 21 14 11 20 23 21 23 19 16 14 13 12 11 9 11 8 8 6 4 5 3 3 9 11 12 6 7 4 4 5 6 7 6 6 6
17 29 32 25 25 23 24 25 24 25 25 23 19 14 12 16 24 19 18 16 13 12 11 11 8 10 12 9 8 6 5 5 3 1 4 2 3 7 5 3 2 6 13 6 1 3 4
15 30 26 27 32 20 21 22 24 26 26 19 16 15 15 15 22 20 14 9 9 10 10 9 10 11 12 10 8 6 6 6 5 2 1 3 1 2 2 2 3 4 12 6 7 8 8
17 26 28 32 36 23 22 26 27 27 22 16 15 15 16 14 20 15 11 8 9 8 8 10 9 12 11 10 8 7 7 6 6 3 1 1 4 3 3 3 5 10 6 11 9 8 7

GFSGBSN_700_spd_129.txt.gz
Wind_Speed
38 38 39 41 41 40 40 39 38 36 34 31 29 29 27 25 24 22 20 17 16 16 17 20 19 17 16 14 18 15 18 17 17 15 17 18 17 16 11 12 14 19 17 18 21 27 26
40 40 39 39 39 39 40 40 41 41 41 39 37 33 31 28 26 24 22 19 18 16 17 19 19 19 17 18 18 17 16 17 18 17 17 16 17 19 20 20 16 16 25 27 28 24 22
43 43 42 41 42 41 40 40 39 39 39 40 37 35 35 33 31 28 24 23 23 21 20 19 18 20 21 24 21 20 18 18 19 17 16 14 16 16 18 15 17 21 21 20 19 14 16
44 44 43 43 44 42 42 42 41 41 40 40 40 40 37 37 33 32 31 28 26 23 25 22 19 19 24 23 22 20 17 18 14 13 16 17 16 16 17 17 19 15 16 12 8 9 18
43 43 43 43 43 43 44 43 43 43 43 43 43 42 42 39 35 32 31 30 28 27 24 24 23 21 17 21 20 14 10 13 19 18 16 15 15 13 12 9 13 14 11 11 19 17 19
42 43 42 42 42 43 44 44 45 44 45 45 45 45 44 41 40 37 35 34 33 29 25 25 26 23 26 23 20 15 16 18 17 18 18 13 9 8 10 9 13 15 20 20 21 17 20
41 41 41 41 41 41 41 42 43 43 43 45 46 46 43 45 41 41 36 34 30 30 33 28 26 18 24 19 19 21 17 17 15 14 8 11 8 12 10 10 12 14 15 16 17 17 21
42 42 42 41 41 40 40 40 40 40 41 41 43 43 40 42 43 44 40 36 32 26 27 27 28 27 29 27 24 22 19 13 12 8 11 9 11 11 13 13 10 11 15 16 16 13 20
40 40 41 40 39 38 38 39 39 40 40 40 41 41 37 38 36 44 44 36 37 41 34 25 33 32 31 28 20 15 16 15 12 11 12 12 6 17 11 7 8 10 15 18 18 18 19
38 38 39 39 39 39 39 39 40 41 41 41 41 40 37 39 40 43 46 37 40 43 18 19 31 34 35 26 24 20 21 16 14 11 12 12 14 12 8 7 7 10 9 13 14 14 14
38 39 41 41 40 40 40 41 41 42 44 42 44 44 41 37 40 45 41 45 37 36 6 11 18 23 20 23 18 20 23 17 12 11 12 5 9 9 10 8 5 6 12 13 15 16 18
39 41 43 44 43 42 42 43 44 44 44 45 49 49 42 37 40 50 42 38 35 20 6 17 19 24 22 21 19 11 17 18 14 13 16 15 10 11 10 8 6 9 12 14 12 10 10
40 43 44 46 46 43 42 46 49 47 48 50 54 55 46 41 40 43 38 33 24 8 5 15 17 18 20 19 17 16 15 16 12 9 16 12 14 10 11 6 8 4 8 7 7 9 11
41 44 46 48 46 41 43 48 51 52 53 54 57 59 50 41 40 39 45 31 16 25 18 5 12 17 23 19 17 17 16 17 18 15 7 12 9 17 11 9 7 8 7 9 6 7 13
41 44 46 46 42 41 48 52 54 56 60 58 58 60 49 45 45 44 51 26 27 31 23 15 17 20 19 19 13 16 19 18 17 15 10 8 8 10 10 9 7 3 7 7 12 20 14
40 41 42 43 39 44 49 53 56 55 54 59 65 58 50 48 44 49 39 36 27 27 21 25 21 22 20 21 18 18 19 17 15 13 14 7 6 9 11 8 11 14 6 6 9 5 7
37 38 41 42 38 42 45 43 39 38 38 49 53 51 54 48 46 45 41 36 30 29 27 28 22 16 15 19 22 23 14 11 16 12 8 7 5 6 9 10 7 8 12 14 15 16 5
34 35 38 39 35 25 33 29 33 38 32 46 50 56 58 52 51 42 46 20 22 23 30 26 21 20 26 24 23 20 18 14 17 14 8 10 8 7 8 5 7 9 12 15 16 10 12
30 29 31 32 29 16 10 14 28 30 26 53 55 52 48 51 43 45 27 21 20 28 26 22 24 25 27 24 17 23 16 15 16 12 11 10 6 6 11 5 4 2 8 12 15 19 22
23 21 24 21 20 16 15 12 23 31 41 52 56 34 41 48 35 39 29 27 25 21 21 20 25 30 27 26 17 22 17 17 16 12 13 11 8 5 5 1 5 7 10 13 16 14 8
17 20 17 15 14 13 23 28 31 48 57 55 49 44 54 55 42 35 29 27 26 27 17 24 28 25 29 24 18 19 16 13 13 10 10 10 7 7 7 3 2 5 7 7 9 13 5
16 16 16 17 19 17 21 40 42 46 51 52 53 47 49 35 37 39 34 30 31 21 27 24 19 23 24 23 16 23 20 14 9 8 11 8 6 5 11 6 4 7 2 4 7 3 6
16 13 13 17 23 24 25 32 47 53 54 48 44 43 45 34 38 44 37 32 30 28 28 26 22 27 16 16 15 15 14 14 11 9 7 6 6 7 6 11 8 7 1 4 7 9 7
11 9 9 12 20 23 24 26 28 30 28 40 36 32 34 39 42 35 29 26 27 25 26 21 23 20 23 17 13 13 12 15 10 9 9 6 4 5 6 9 5 5 6 7 6 8 9
8 5 7 9 13 21 25 23 25 26 27 23 27 27 30 36 37 23 26 27 23 18 21 24 24 25 22 19 11 10 8 6 7 8 7 6 6 6 6 11 5 7 13 11 7 6 8
8 8 16 17 27 41 33 28 29 28 30 33 32 23 23 33 28 26 28 28 25 23 23 27 25 23 22 17 12 11 9 10 8 7 9 9 6 7 7 7 5 9 14 13 10 7 8
10 11 21 24 36 43 35 34 33 32 27 22 19 20 21 18 18 24 26 26 21 21 18 26 25 22 22 14 14 11 9 8 8 9 9 9 10 11 12 9 3 8 13 13 7 7 9
12 14 20 28 46 36 36 29 28 28 22 20 19 19 28 25 32 30 27 30 23 17 17 24 24 23 23 14 15 10 7 11 7 6 7 8 7 7 6 6 4 11 15 13 7 6 9
16 15 18 32 38 42 37 28 17 19 17 21 20 17 17 18 33 28 23 22 25 22 18 17 17 21 14 12 11 10 7 8 10 5 7 5 7 2 8 7 6 11 19 18 8 10 11

GFSGBSN_700_spd_132.txt.gz
Wind_Speed
39 39 38 39 39 38 37 39 39 38 37 35 32 31 28 26 25 25 23 21 20 20 20 19 18 18 18 15 18 10 15 16 16 14 13 12 10 8 8 9 12 18 19 19 19 22 23
38 38 38 37 36 36 36 39 40 39 38 37 38 37 35 32 29 26 26 23 22 19 19 22 22 21 19 18 21 17 17 18 17 14 12 12 12 13 15 13 15 16 21 25 24 23 17
40 40 40 39 38 38 38 38 38 38 37 39 39 39 37 38 29 30 28 27 25 23 22 23 25 24 23 19 22 22 19 19 16 14 13 12 11 12 13 16 14 18 23 23 21 15 16
41 41 41 41 41 40 40 40 39 40 39 39 40 39 38 36 34 34 32 29 31 28 28 26 26 27 31 27 25 22 22 18 15 10 11 14 15 16 16 18 19 18 15 17 6 9 10
43 42 41 41 41 41 41 41 41 41 41 41 41 41 40 39 37 36 34 31 31 33 28 28 28 29 29 30 24 21 17 14 11 13 13 14 15 15 11 13 13 16 14 11 9 10 14
40 41 41 40 40 40 41 41 42 42 42 42 42 42 40 39 40 39 38 36 32 32 31 27 29 28 25 20 25 23 21 17 16 17 15 12 10 7 9 9 15 11 10 15 19 17 16
39 39 40 41 40 40 41 41 41 42 41 41 41 41 40 40 39 38 38 40 37 34 35 33 17 23 19 20 26 21 19 20 18 16 10 11 10 13 9 9 11 11 15 16 15 15 19
39 39 40 40 40 40 40 39 39 38 38 38 38 38 37 37 38 37 41 36 38 39 37 34 32 36 32 25 29 28 27 20 16 13 10 12 19 12 17 20 21 14 12 15 15 14 18
39 39 39 39 38 38 37 37 37 36 35 35 36 37 35 33 34 40 35 36 35 36 36 41 36 33 33 36 35 22 26 17 15 15 15 21 10 14 21 13 12 12 13 15 16 16 18
36 37 37 37 37 36 35 35 35 35 35 35 35 36 37 33 31 34 39 35 31 32 30 41 37 38 38 34 35 27 28 19 14 16 16 22 19 20 13 13 12 12 10 10 14 12 14
34 34 33 34 35 35 34 34 34 34 33 35 35 35 40 32 31 33 30 33 29 27 8 13 14 20 17 36 20 17 28 23 23 18 16 14 14 16 15 13 13 11 12 11 13 15 17
34 34 35 36 36 37 37 36 36 36 36 36 38 38 40 39 35 34 31 28 35 15 8 12 14 15 18 25 18 13 20 22 15 17 21 22 9 18 16 13 16 10 13 15 15 15 15
35 36 37 38 39 40 39 38 38 38 38 40 40 41 45 42 37 35 34 33 20 13 7 21 24 22 20 22 25 21 17 19 17 11 19 22 25 19 13 14 12 10 8 7 7 9 11
37 38 39 40 41 42 42 40 40 39 41 43 44 43 46 46 39 38 36 32 20 25 32 16 16 19 25 22 20 22 19 21 23 19 17 17 19 23 19 20 9 16 10 8 5 7 13
39 41 42 43 45 44 42 39 37 40 44 45 47 46 49 51 46 42 37 29 31 36 19 28 19 22 23 23 15 20 22 23 20 19 13 10 18 13 10 12 13 9 13 9 14 18 16
39 42 42 42 43 40 37 34 38 42 45 47 50 52 53 52 44 41 44 42 38 24 32 27 29 22 25 29 19 13 15 14 20 18 15 7 7 8 15 11 15 16 7 4 10 4 6
39 40 40 38 35 34 34 36 41 44 47 48 44 49 54 51 44 47 47 49 41 33 22 31 32 21 25 26 25 22 13 11 16 19 25 9 8 7 14 15 15 15 13 14 13 18 5
37 37 37 36 32 33 35 39 43 47 44 40 51 52 56 58 57 49 53 50 46 21 24 25 23 19 23 25 28 19 20 13 13 15 15 13 8 10 14 14 13 11 12 14 11 9 15
35 35 35 33 31 34 35 37 44 40 47 54 58 53 45 59 55 54 47 48 32 31 28 27 27 24 20 24 24 26 17 14 16 16 11 16 7 4 9 12 9 9 7 8 13 15 14
31 31 29 29 32 33 31 29 15 27 47 60 65 39 49 62 55 54 51 35 34 27 30 28 27 30 26 28 30 24 23 19 17 22 21 12 12 13 7 1 7 6 6 9 15 16 13
27 26 26 27 30 30 24 15 23 55 59 55 44 48 55 63 60 50 49 32 30 31 23 22 21 27 26 28 26 21 27 20 24 23 15 17 12 14 6 2 5 7 9 7 7 14 13
23 22 25 25 24 22 15 13 43 55 52 55 34 43 49 18 44 35 39 35 33 29 27 32 22 28 31 29 32 30 27 20 15 17 17 18 7 13 15 12 10 12 9 5 1 4 9
20 22 25 23 20 19 18 23 42 47 49 52 38 27 45 25 52 38 40 37 34 31 24 30 15 20 18 14 17 16 20 16 10 16 17 14 12 9 8 10 11 12 16 9 5 6 6
19 21 21 20 20 23 26 26 38 38 34 43 32 31 38 32 44 42 36 35 35 27 25 25 23 24 20 22 19 21 21 15 11 12 15 13 12 8 6 10 6 7 7 7 9 8 11
17 17 16 18 17 20 27 39 36 42 21 13 12 23 37 37 37 37 37 43 35 29 23 22 22 19 25 19 16 12 10 10 13 14 14 9 9 7 7 14 5 8 13 12 8 8 7
15 12 13 12 12 15 18 19 25 36 36 25 17 14 17 32 40 38 41 35 35 24 20 28 27 24 21 22 14 12 11 12 12 10 14 13 11 10 9 6 3 1 8 9 8 8 12
12 10 11 6 10 25 23 19 17 10 17 20 20 19 16 22 28 28 32 34 28 27 27 28 31 28 29 18 15 12 14 12 10 13 14 17 15 17 13 10 1 7 14 15 8 6 12
13 11 12 11 28 27 25 21 26 31 33 29 28 22 24 26 24 22 20 24 24 24 28 28 26 26 28 15 14 11 5 10 6 4 13 12 11 11 11 12 4 12 8 12 10 7 10
14 13 12 14 34 31 27 26 25 26 24 21 17 21 26 24 28 31 34 25 27 22 19 20 20 25 22 14 10 12 10 6 11 7 13 4 6 6 9 8 6 8 12 17 11 9 12